<?xml version='1.0' encoding='UTF-8'?><gpx version="1.1" creator="JPX - https://github.com/jenetics/jpx" xmlns="http://www.topografix.com/GPX/1/1"><trk><trkseg><trkpt lat="43.5870448" lon="12.6819496"><ele>373.0</ele><time>2026-03-29T07:33:53.459Z</time></trkpt><trkpt lat="43.5871317" lon="12.6819907"><ele>373.0</ele><time>2026-03-29T07:33:55.459Z</time></trkpt><trkpt lat="43.5871991" lon="12.6819529"><ele>373.0</ele><time>2026-03-29T07:33:57.459Z</time></trkpt><trkpt lat="43.5872571" lon="12.6818568"><ele>373.0</ele><time>2026-03-29T07:33:59.458Z</time></trkpt><trkpt lat="43.5873185" lon="12.681773"><ele>373.0</ele><time>2026-03-29T07:34:00.457Z</time></trkpt><trkpt lat="43.5873608" lon="12.6816942"><ele>373.0</ele><time>2026-03-29T07:34:01.458Z</time></trkpt><trkpt lat="43.5874" lon="12.6816147"><ele>372.0</ele><time>2026-03-29T07:34:02.458Z</time></trkpt><trkpt lat="43.5874533" lon="12.6815194"><ele>371.0</ele><time>2026-03-29T07:34:03.457Z</time></trkpt><trkpt lat="43.5874868" lon="12.6814351"><ele>370.0</ele><time>2026-03-29T07:34:04.458Z</time></trkpt><trkpt lat="43.5875228" lon="12.6813519"><ele>369.0</ele><time>2026-03-29T07:34:05.457Z</time></trkpt><trkpt lat="43.5875801" lon="12.6812635"><ele>368.0</ele><time>2026-03-29T07:34:07.458Z</time></trkpt><trkpt lat="43.5876379" lon="12.6813203"><ele>367.0</ele><time>2026-03-29T07:34:09.457Z</time></trkpt><trkpt lat="43.5876068" lon="12.6814648"><ele>367.0</ele><time>2026-03-29T07:34:12.457Z</time></trkpt><trkpt lat="43.5875628" lon="12.6815876"><ele>367.0</ele><time>2026-03-29T07:34:14.457Z</time></trkpt><trkpt lat="43.5874978" lon="12.681722"><ele>367.0</ele><time>2026-03-29T07:34:16.457Z</time></trkpt><trkpt lat="43.5874573" lon="12.6818714"><ele>367.0</ele><time>2026-03-29T07:34:18.457Z</time></trkpt><trkpt lat="43.5874497" lon="12.6820335"><ele>367.0</ele><time>2026-03-29T07:34:20.457Z</time></trkpt><trkpt lat="43.5874639" lon="12.6821278"><ele>367.85714285714283</ele><time>2026-03-29T07:34:21.459Z</time></trkpt><trkpt lat="43.5874792" lon="12.6822352"><ele>368.7142857142857</ele><time>2026-03-29T07:34:22.458Z</time></trkpt><trkpt lat="43.5875101" lon="12.6823196"><ele>369.57142857142856</ele><time>2026-03-29T07:34:23.458Z</time></trkpt><trkpt lat="43.5875327" lon="12.6824072"><ele>370.42857142857144</ele><time>2026-03-29T07:34:24.458Z</time></trkpt><trkpt lat="43.587574" lon="12.6824966"><ele>371.28571428571433</ele><time>2026-03-29T07:34:25.457Z</time></trkpt><trkpt lat="43.5876156" lon="12.6825824"><ele>372.14285714285717</ele><time>2026-03-29T07:34:26.459Z</time></trkpt><trkpt lat="43.5876702" lon="12.6826499"><ele>373.0</ele><time>2026-03-29T07:34:27.458Z</time></trkpt><trkpt lat="43.5877261" lon="12.6827185"><ele>372.5</ele><time>2026-03-29T07:34:28.458Z</time></trkpt><trkpt lat="43.5877815" lon="12.6828"><ele>372.0</ele><time>2026-03-29T07:34:29.458Z</time></trkpt><trkpt lat="43.5878265" lon="12.6828828"><ele>371.5</ele><time>2026-03-29T07:34:30.458Z</time></trkpt><trkpt lat="43.5878453" lon="12.6830284"><ele>371.0</ele><time>2026-03-29T07:34:32.457Z</time></trkpt><trkpt lat="43.5878791" lon="12.6831035"><ele>370.5</ele><time>2026-03-29T07:34:33.458Z</time></trkpt><trkpt lat="43.5879543" lon="12.6830529"><ele>370.0</ele><time>2026-03-29T07:34:35.458Z</time></trkpt><trkpt lat="43.5879634" lon="12.682923"><ele>372.5</ele><time>2026-03-29T07:34:37.458Z</time></trkpt><trkpt lat="43.5879404" lon="12.6828373"><ele>375.0</ele><time>2026-03-29T07:34:38.459Z</time></trkpt><trkpt lat="43.5879234" lon="12.6827489"><ele>377.5</ele><time>2026-03-29T07:34:39.459Z</time></trkpt><trkpt lat="43.5879685" lon="12.682679"><ele>380.0</ele><time>2026-03-29T07:34:42.458Z</time></trkpt><trkpt lat="43.5880113" lon="12.6827946"><ele>382.50000000000006</ele><time>2026-03-29T07:34:44.458Z</time></trkpt><trkpt lat="43.5880542" lon="12.6829253"><ele>385.0</ele><time>2026-03-29T07:34:46.459Z</time></trkpt><trkpt lat="43.5880613" lon="12.6830268"><ele>387.83333333333337</ele><time>2026-03-29T07:34:47.459Z</time></trkpt><trkpt lat="43.5880684" lon="12.6831315"><ele>390.6666666666667</ele><time>2026-03-29T07:34:48.459Z</time></trkpt><trkpt lat="43.5880815" lon="12.6832365"><ele>393.5</ele><time>2026-03-29T07:34:49.458Z</time></trkpt><trkpt lat="43.5880835" lon="12.6833624"><ele>396.33333333333337</ele><time>2026-03-29T07:34:50.459Z</time></trkpt><trkpt lat="43.5880753" lon="12.6834633"><ele>399.1666666666667</ele><time>2026-03-29T07:34:51.458Z</time></trkpt><trkpt lat="43.588047" lon="12.6835604"><ele>402.0</ele><time>2026-03-29T07:34:52.46Z</time></trkpt><trkpt lat="43.5879968" lon="12.683667"><ele>403.5</ele><time>2026-03-29T07:34:53.458Z</time></trkpt><trkpt lat="43.5879406" lon="12.6837493"><ele>405.0</ele><time>2026-03-29T07:34:54.458Z</time></trkpt><trkpt lat="43.5878933" lon="12.6838314"><ele>406.5</ele><time>2026-03-29T07:34:55.458Z</time></trkpt><trkpt lat="43.587855" lon="12.6839857"><ele>408.0</ele><time>2026-03-29T07:34:57.459Z</time></trkpt><trkpt lat="43.5878379" lon="12.6840828"><ele>409.5</ele><time>2026-03-29T07:34:58.459Z</time></trkpt><trkpt lat="43.5878705" lon="12.6841669"><ele>411.0</ele><time>2026-03-29T07:34:59.458Z</time></trkpt><trkpt lat="43.5880062" lon="12.6842167"><ele>411.0</ele><time>2026-03-29T07:35:01.459Z</time></trkpt><trkpt lat="43.5880802" lon="12.6842675"><ele>411.0</ele><time>2026-03-29T07:35:02.459Z</time></trkpt><trkpt lat="43.58816" lon="12.6843239"><ele>411.0</ele><time>2026-03-29T07:35:03.459Z</time></trkpt><trkpt lat="43.5882343" lon="12.6843867"><ele>411.0</ele><time>2026-03-29T07:35:04.458Z</time></trkpt><trkpt lat="43.5883029" lon="12.6844686"><ele>411.0</ele><time>2026-03-29T07:35:05.46Z</time></trkpt><trkpt lat="43.5883607" lon="12.6845629"><ele>411.0</ele><time>2026-03-29T07:35:06.458Z</time></trkpt><trkpt lat="43.5884202" lon="12.6846403"><ele>410.5</ele><time>2026-03-29T07:35:07.46Z</time></trkpt><trkpt lat="43.5884761" lon="12.6847235"><ele>410.0</ele><time>2026-03-29T07:35:08.458Z</time></trkpt><trkpt lat="43.5885205" lon="12.684807"><ele>409.5</ele><time>2026-03-29T07:35:09.459Z</time></trkpt><trkpt lat="43.5884888" lon="12.6848986"><ele>409.0</ele><time>2026-03-29T07:35:11.458Z</time></trkpt><trkpt lat="43.5883805" lon="12.6849497"><ele>408.5</ele><time>2026-03-29T07:35:13.458Z</time></trkpt><trkpt lat="43.5883235" lon="12.6850522"><ele>408.0</ele><time>2026-03-29T07:35:15.46Z</time></trkpt><trkpt lat="43.5883672" lon="12.6851277"><ele>408.0</ele><time>2026-03-29T07:35:18.458Z</time></trkpt><trkpt lat="43.5884789" lon="12.6851191"><ele>408.0</ele><time>2026-03-29T07:35:20.458Z</time></trkpt><trkpt lat="43.5885475" lon="12.6850991"><ele>408.0</ele><time>2026-03-29T07:35:21.459Z</time></trkpt><trkpt lat="43.5886046" lon="12.6850455"><ele>408.0</ele><time>2026-03-29T07:35:22.458Z</time></trkpt><trkpt lat="43.5886539" lon="12.6849812"><ele>408.0</ele><time>2026-03-29T07:35:23.46Z</time></trkpt><trkpt lat="43.5886962" lon="12.6848885"><ele>408.0</ele><time>2026-03-29T07:35:24.458Z</time></trkpt><trkpt lat="43.5887062" lon="12.6847817"><ele>408.5</ele><time>2026-03-29T07:35:25.458Z</time></trkpt><trkpt lat="43.5887247" lon="12.6846809"><ele>409.0</ele><time>2026-03-29T07:35:26.459Z</time></trkpt><trkpt lat="43.5887272" lon="12.6845536"><ele>409.5</ele><time>2026-03-29T07:35:27.459Z</time></trkpt><trkpt lat="43.5887144" lon="12.6844484"><ele>410.0</ele><time>2026-03-29T07:35:28.459Z</time></trkpt><trkpt lat="43.5886162" lon="12.6843787"><ele>410.5</ele><time>2026-03-29T07:35:29.458Z</time></trkpt><trkpt lat="43.5885701" lon="12.6842835"><ele>411.0</ele><time>2026-03-29T07:35:30.459Z</time></trkpt><trkpt lat="43.5885296" lon="12.6841959"><ele>411.0</ele><time>2026-03-29T07:35:31.458Z</time></trkpt><trkpt lat="43.5884985" lon="12.6841149"><ele>411.0</ele><time>2026-03-29T07:35:32.458Z</time></trkpt><trkpt lat="43.5885305" lon="12.6840071"><ele>411.0</ele><time>2026-03-29T07:35:35.458Z</time></trkpt><trkpt lat="43.5886329" lon="12.6839678"><ele>411.0</ele><time>2026-03-29T07:35:37.459Z</time></trkpt><trkpt lat="43.5887107" lon="12.6839776"><ele>411.0</ele><time>2026-03-29T07:35:38.459Z</time></trkpt><trkpt lat="43.5888026" lon="12.6840127"><ele>411.0</ele><time>2026-03-29T07:35:39.458Z</time></trkpt><trkpt lat="43.5888838" lon="12.6840409"><ele>412.8333333333333</ele><time>2026-03-29T07:35:40.458Z</time></trkpt><trkpt lat="43.5889097" lon="12.6841202"><ele>414.66666666666663</ele><time>2026-03-29T07:35:41.458Z</time></trkpt><trkpt lat="43.5889794" lon="12.6841953"><ele>416.5</ele><time>2026-03-29T07:35:42.459Z</time></trkpt><trkpt lat="43.5890326" lon="12.6842782"><ele>418.3333333333333</ele><time>2026-03-29T07:35:43.458Z</time></trkpt><trkpt lat="43.5890874" lon="12.684351"><ele>420.16666666666663</ele><time>2026-03-29T07:35:44.459Z</time></trkpt><trkpt lat="43.5891356" lon="12.6844697"><ele>422.0</ele><time>2026-03-29T07:35:46.459Z</time></trkpt><trkpt lat="43.5891826" lon="12.6845322"><ele>423.8333333333333</ele><time>2026-03-29T07:35:48.459Z</time></trkpt><trkpt lat="43.5892397" lon="12.6846336"><ele>425.66666666666663</ele><time>2026-03-29T07:35:50.458Z</time></trkpt><trkpt lat="43.5892828" lon="12.6847463"><ele>427.5</ele><time>2026-03-29T07:35:52.458Z</time></trkpt><trkpt lat="43.5893298" lon="12.6848099"><ele>429.33333333333337</ele><time>2026-03-29T07:35:54.458Z</time></trkpt><trkpt lat="43.5893917" lon="12.6848658"><ele>431.1666666666667</ele><time>2026-03-29T07:35:56.458Z</time></trkpt><trkpt lat="43.5894617" lon="12.6849009"><ele>433.0</ele><time>2026-03-29T07:35:58.458Z</time></trkpt><trkpt lat="43.5895292" lon="12.6849459"><ele>433.50000000000006</ele><time>2026-03-29T07:36:01.458Z</time></trkpt><trkpt lat="43.5895903" lon="12.6850443"><ele>434.0</ele><time>2026-03-29T07:36:04.458Z</time></trkpt><trkpt lat="43.589605" lon="12.6851346"><ele>434.5</ele><time>2026-03-29T07:36:06.458Z</time></trkpt><trkpt lat="43.5896028" lon="12.6852532"><ele>435.0</ele><time>2026-03-29T07:36:09.458Z</time></trkpt><trkpt lat="43.58963" lon="12.6853519"><ele>435.50000000000006</ele><time>2026-03-29T07:36:11.458Z</time></trkpt><trkpt lat="43.5896477" lon="12.6854792"><ele>436.0</ele><time>2026-03-29T07:36:13.458Z</time></trkpt><trkpt lat="43.589687" lon="12.6855898"><ele>439.6</ele><time>2026-03-29T07:36:15.458Z</time></trkpt><trkpt lat="43.5897302" lon="12.685673"><ele>443.20000000000005</ele><time>2026-03-29T07:36:17.458Z</time></trkpt><trkpt lat="43.5897952" lon="12.6857592"><ele>446.79999999999995</ele><time>2026-03-29T07:36:19.459Z</time></trkpt><trkpt lat="43.5898525" lon="12.6858638"><ele>450.4</ele><time>2026-03-29T07:36:21.458Z</time></trkpt><trkpt lat="43.5899102" lon="12.6859634"><ele>454.0</ele><time>2026-03-29T07:36:23.459Z</time></trkpt><trkpt lat="43.5899984" lon="12.6860268"><ele>454.0</ele><time>2026-03-29T07:36:25.458Z</time></trkpt><trkpt lat="43.5900718" lon="12.6860382"><ele>454.00000000000006</ele><time>2026-03-29T07:36:27.459Z</time></trkpt><trkpt lat="43.5901349" lon="12.6860772"><ele>454.0</ele><time>2026-03-29T07:36:29.458Z</time></trkpt><trkpt lat="43.5901094" lon="12.6861635"><ele>454.0</ele><time>2026-03-29T07:36:34.459Z</time></trkpt><trkpt lat="43.5900628" lon="12.6862485"><ele>454.00000000000006</ele><time>2026-03-29T07:36:37.458Z</time></trkpt><trkpt lat="43.5900155" lon="12.6863361"><ele>454.0</ele><time>2026-03-29T07:36:39.458Z</time></trkpt><trkpt lat="43.5899738" lon="12.6864299"><ele>454.0</ele><time>2026-03-29T07:36:42.46Z</time></trkpt><trkpt lat="43.5899599" lon="12.6865262"><ele>455.6</ele><time>2026-03-29T07:36:46.459Z</time></trkpt><trkpt lat="43.5899915" lon="12.6866265"><ele>457.2</ele><time>2026-03-29T07:36:50.458Z</time></trkpt><trkpt lat="43.5900653" lon="12.6867691"><ele>458.80000000000007</ele><time>2026-03-29T07:36:53.458Z</time></trkpt><trkpt lat="43.590137" lon="12.6868921"><ele>460.40000000000003</ele><time>2026-03-29T07:36:55.458Z</time></trkpt><trkpt lat="43.5902039" lon="12.6870217"><ele>462.0</ele><time>2026-03-29T07:36:57.459Z</time></trkpt><trkpt lat="43.59023" lon="12.6871138"><ele>463.0</ele><time>2026-03-29T07:36:58.458Z</time></trkpt><trkpt lat="43.5902443" lon="12.6871995"><ele>464.0</ele><time>2026-03-29T07:36:59.459Z</time></trkpt><trkpt lat="43.5902415" lon="12.6872933"><ele>465.0</ele><time>2026-03-29T07:37:00.458Z</time></trkpt><trkpt lat="43.5902405" lon="12.687426"><ele>466.0</ele><time>2026-03-29T07:37:01.459Z</time></trkpt><trkpt lat="43.5902454" lon="12.6875148"><ele>467.0</ele><time>2026-03-29T07:37:02.458Z</time></trkpt><trkpt lat="43.5902207" lon="12.6875969"><ele>468.0</ele><time>2026-03-29T07:37:03.458Z</time></trkpt><trkpt lat="43.5901586" lon="12.6877671"><ele>469.0</ele><time>2026-03-29T07:37:05.459Z</time></trkpt><trkpt lat="43.5900939" lon="12.6878674"><ele>469.99999999999994</ele><time>2026-03-29T07:37:06.459Z</time></trkpt><trkpt lat="43.5900424" lon="12.6879744"><ele>470.99999999999994</ele><time>2026-03-29T07:37:07.458Z</time></trkpt><trkpt lat="43.5900135" lon="12.6881648"><ele>472.0</ele><time>2026-03-29T07:37:09.458Z</time></trkpt><trkpt lat="43.5900658" lon="12.6882457"><ele>473.0</ele><time>2026-03-29T07:37:10.459Z</time></trkpt><trkpt lat="43.5900903" lon="12.6883467"><ele>473.0</ele><time>2026-03-29T07:37:11.458Z</time></trkpt><trkpt lat="43.5901428" lon="12.6884316"><ele>472.99999999999994</ele><time>2026-03-29T07:37:12.459Z</time></trkpt><trkpt lat="43.5902001" lon="12.6885228"><ele>472.99999999999994</ele><time>2026-03-29T07:37:13.458Z</time></trkpt><trkpt lat="43.5902568" lon="12.6886173"><ele>473.0</ele><time>2026-03-29T07:37:14.459Z</time></trkpt><trkpt lat="43.5903201" lon="12.6887309"><ele>473.0</ele><time>2026-03-29T07:37:15.458Z</time></trkpt><trkpt lat="43.5903786" lon="12.6888391"><ele>472.99999999999994</ele><time>2026-03-29T07:37:16.459Z</time></trkpt><trkpt lat="43.5903981" lon="12.6889225"><ele>473.0</ele><time>2026-03-29T07:37:17.458Z</time></trkpt><trkpt lat="43.5904261" lon="12.6890226"><ele>473.0</ele><time>2026-03-29T07:37:18.459Z</time></trkpt><trkpt lat="43.5904499" lon="12.689122"><ele>473.0</ele><time>2026-03-29T07:37:19.459Z</time></trkpt><trkpt lat="43.5904918" lon="12.6892367"><ele>472.99999999999994</ele><time>2026-03-29T07:37:20.458Z</time></trkpt><trkpt lat="43.5905364" lon="12.6893492"><ele>473.0</ele><time>2026-03-29T07:37:21.459Z</time></trkpt><trkpt lat="43.5905826" lon="12.689473"><ele>473.0</ele><time>2026-03-29T07:37:22.459Z</time></trkpt><trkpt lat="43.5906403" lon="12.6896168"><ele>472.99999999999994</ele><time>2026-03-29T07:37:23.458Z</time></trkpt><trkpt lat="43.5906994" lon="12.6897255"><ele>472.99999999999994</ele><time>2026-03-29T07:37:24.46Z</time></trkpt><trkpt lat="43.5907488" lon="12.6898603"><ele>473.0</ele><time>2026-03-29T07:37:25.458Z</time></trkpt><trkpt lat="43.5907902" lon="12.6899659"><ele>473.0</ele><time>2026-03-29T07:37:26.459Z</time></trkpt><trkpt lat="43.5908294" lon="12.6900378"><ele>473.0</ele><time>2026-03-29T07:37:27.458Z</time></trkpt><trkpt lat="43.5908672" lon="12.6901724"><ele>472.99999999999994</ele><time>2026-03-29T07:37:29.458Z</time></trkpt><trkpt lat="43.5908738" lon="12.6902596"><ele>472.99999999999994</ele><time>2026-03-29T07:37:30.459Z</time></trkpt><trkpt lat="43.5909259" lon="12.6903794"><ele>473.0</ele><time>2026-03-29T07:37:32.458Z</time></trkpt><trkpt lat="43.5909836" lon="12.6904871"><ele>473.0</ele><time>2026-03-29T07:37:34.458Z</time></trkpt><trkpt lat="43.5910148" lon="12.6906339"><ele>471.25</ele><time>2026-03-29T07:37:36.46Z</time></trkpt><trkpt lat="43.5910653" lon="12.690773"><ele>469.5</ele><time>2026-03-29T07:37:38.458Z</time></trkpt><trkpt lat="43.591126" lon="12.6908972"><ele>467.75</ele><time>2026-03-29T07:37:40.458Z</time></trkpt><trkpt lat="43.5911819" lon="12.6910699"><ele>466.0</ele><time>2026-03-29T07:37:42.458Z</time></trkpt><trkpt lat="43.5912036" lon="12.6912315"><ele>466.00000000000006</ele><time>2026-03-29T07:37:44.459Z</time></trkpt><trkpt lat="43.5912222" lon="12.6913404"><ele>466.0</ele><time>2026-03-29T07:37:45.459Z</time></trkpt><trkpt lat="43.5912456" lon="12.6914336"><ele>466.0</ele><time>2026-03-29T07:37:46.459Z</time></trkpt><trkpt lat="43.5912741" lon="12.6915303"><ele>466.0</ele><time>2026-03-29T07:37:47.458Z</time></trkpt><trkpt lat="43.5912895" lon="12.6916163"><ele>466.00000000000006</ele><time>2026-03-29T07:37:48.459Z</time></trkpt><trkpt lat="43.5913091" lon="12.6917038"><ele>466.0</ele><time>2026-03-29T07:37:49.458Z</time></trkpt><trkpt lat="43.5913381" lon="12.6918525"><ele>467.6666666666667</ele><time>2026-03-29T07:37:51.458Z</time></trkpt><trkpt lat="43.5913625" lon="12.6919438"><ele>469.33333333333337</ele><time>2026-03-29T07:37:53.458Z</time></trkpt><trkpt lat="43.5913925" lon="12.6920284"><ele>471.0</ele><time>2026-03-29T07:37:58.46Z</time></trkpt><trkpt lat="43.5914168" lon="12.69214"><ele>472.66666666666663</ele><time>2026-03-29T07:38:01.458Z</time></trkpt><trkpt lat="43.5914495" lon="12.6922253"><ele>474.3333333333333</ele><time>2026-03-29T07:38:02.46Z</time></trkpt><trkpt lat="43.5914696" lon="12.6923744"><ele>476.0</ele><time>2026-03-29T07:38:04.459Z</time></trkpt><trkpt lat="43.5915103" lon="12.6925218"><ele>475.99999999999994</ele><time>2026-03-29T07:38:06.46Z</time></trkpt><trkpt lat="43.5915274" lon="12.6926083"><ele>476.0</ele><time>2026-03-29T07:38:07.459Z</time></trkpt><trkpt lat="43.5915449" lon="12.6926991"><ele>476.0</ele><time>2026-03-29T07:38:08.459Z</time></trkpt><trkpt lat="43.5915769" lon="12.6928037"><ele>476.0</ele><time>2026-03-29T07:38:09.458Z</time></trkpt><trkpt lat="43.5916091" lon="12.6929076"><ele>475.99999999999994</ele><time>2026-03-29T07:38:10.46Z</time></trkpt><trkpt lat="43.5916491" lon="12.6930143"><ele>476.0</ele><time>2026-03-29T07:38:11.458Z</time></trkpt><trkpt lat="43.591689" lon="12.6931188"><ele>475.8571428571429</ele><time>2026-03-29T07:38:12.459Z</time></trkpt><trkpt lat="43.5917267" lon="12.6932136"><ele>475.7142857142857</ele><time>2026-03-29T07:38:13.459Z</time></trkpt><trkpt lat="43.5917669" lon="12.6932879"><ele>475.57142857142856</ele><time>2026-03-29T07:38:14.459Z</time></trkpt><trkpt lat="43.5918005" lon="12.6933705"><ele>475.42857142857144</ele><time>2026-03-29T07:38:15.458Z</time></trkpt><trkpt lat="43.5918366" lon="12.6934488"><ele>475.28571428571433</ele><time>2026-03-29T07:38:16.459Z</time></trkpt><trkpt lat="43.591866" lon="12.6935331"><ele>475.14285714285717</ele><time>2026-03-29T07:38:17.458Z</time></trkpt><trkpt lat="43.5918817" lon="12.693625"><ele>475.0</ele><time>2026-03-29T07:38:18.458Z</time></trkpt><trkpt lat="43.5918953" lon="12.693733"><ele>475.5714285714286</ele><time>2026-03-29T07:38:19.459Z</time></trkpt><trkpt lat="43.5919027" lon="12.6938353"><ele>476.1428571428572</ele><time>2026-03-29T07:38:20.459Z</time></trkpt><trkpt lat="43.5919037" lon="12.6939441"><ele>476.7142857142857</ele><time>2026-03-29T07:38:21.458Z</time></trkpt><trkpt lat="43.5919071" lon="12.6940486"><ele>477.28571428571433</ele><time>2026-03-29T07:38:22.46Z</time></trkpt><trkpt lat="43.5919135" lon="12.6941494"><ele>477.8571428571429</ele><time>2026-03-29T07:38:23.458Z</time></trkpt><trkpt lat="43.5919234" lon="12.6942505"><ele>478.42857142857144</ele><time>2026-03-29T07:38:24.458Z</time></trkpt><trkpt lat="43.5919317" lon="12.6943473"><ele>479.0</ele><time>2026-03-29T07:38:25.459Z</time></trkpt><trkpt lat="43.5919298" lon="12.6944555"><ele>480.85714285714283</ele><time>2026-03-29T07:38:26.458Z</time></trkpt><trkpt lat="43.5919485" lon="12.694552"><ele>482.7142857142858</ele><time>2026-03-29T07:38:27.459Z</time></trkpt><trkpt lat="43.5919578" lon="12.6946441"><ele>484.5714285714286</ele><time>2026-03-29T07:38:28.458Z</time></trkpt><trkpt lat="43.5919713" lon="12.6947415"><ele>486.42857142857144</ele><time>2026-03-29T07:38:29.458Z</time></trkpt><trkpt lat="43.5919769" lon="12.6948457"><ele>488.28571428571433</ele><time>2026-03-29T07:38:30.458Z</time></trkpt><trkpt lat="43.5919765" lon="12.6949555"><ele>490.1428571428572</ele><time>2026-03-29T07:38:31.458Z</time></trkpt><trkpt lat="43.5919801" lon="12.6950639"><ele>492.00000000000006</ele><time>2026-03-29T07:38:32.458Z</time></trkpt><trkpt lat="43.5919917" lon="12.6951823"><ele>490.6666666666667</ele><time>2026-03-29T07:38:33.458Z</time></trkpt><trkpt lat="43.5920012" lon="12.6953174"><ele>489.33333333333337</ele><time>2026-03-29T07:38:34.458Z</time></trkpt><trkpt lat="43.592036" lon="12.6954107"><ele>488.0</ele><time>2026-03-29T07:38:35.458Z</time></trkpt><trkpt lat="43.5920562" lon="12.6955196"><ele>486.6666666666667</ele><time>2026-03-29T07:38:36.459Z</time></trkpt><trkpt lat="43.5920755" lon="12.6956221"><ele>485.33333333333337</ele><time>2026-03-29T07:38:37.459Z</time></trkpt><trkpt lat="43.5921232" lon="12.6956923"><ele>484.0</ele><time>2026-03-29T07:38:38.458Z</time></trkpt><trkpt lat="43.5921348" lon="12.6957844"><ele>484.0</ele><time>2026-03-29T07:38:39.46Z</time></trkpt><trkpt lat="43.5921317" lon="12.695896"><ele>484.0</ele><time>2026-03-29T07:38:40.458Z</time></trkpt><trkpt lat="43.5921351" lon="12.696028"><ele>484.0</ele><time>2026-03-29T07:38:41.458Z</time></trkpt><trkpt lat="43.5921433" lon="12.6961574"><ele>484.0</ele><time>2026-03-29T07:38:42.458Z</time></trkpt><trkpt lat="43.5921403" lon="12.6963006"><ele>484.0</ele><time>2026-03-29T07:38:43.459Z</time></trkpt><trkpt lat="43.592155" lon="12.6964139"><ele>485.4</ele><time>2026-03-29T07:38:44.459Z</time></trkpt><trkpt lat="43.5921456" lon="12.6965261"><ele>486.79999999999995</ele><time>2026-03-29T07:38:45.459Z</time></trkpt><trkpt lat="43.5921497" lon="12.6966436"><ele>488.20000000000005</ele><time>2026-03-29T07:38:46.458Z</time></trkpt><trkpt lat="43.5921253" lon="12.6967797"><ele>489.6</ele><time>2026-03-29T07:38:47.459Z</time></trkpt><trkpt lat="43.5921175" lon="12.6969011"><ele>491.0</ele><time>2026-03-29T07:38:48.458Z</time></trkpt><trkpt lat="43.5920922" lon="12.6970305"><ele>492.3333333333333</ele><time>2026-03-29T07:38:49.458Z</time></trkpt><trkpt lat="43.5920632" lon="12.6971646"><ele>493.66666666666663</ele><time>2026-03-29T07:38:50.459Z</time></trkpt><trkpt lat="43.5920502" lon="12.6972806"><ele>495.0</ele><time>2026-03-29T07:38:51.458Z</time></trkpt><trkpt lat="43.5920686" lon="12.6973741"><ele>496.33333333333337</ele><time>2026-03-29T07:38:52.459Z</time></trkpt><trkpt lat="43.5920543" lon="12.6974752"><ele>497.6666666666667</ele><time>2026-03-29T07:38:53.458Z</time></trkpt><trkpt lat="43.5920468" lon="12.6975757"><ele>499.0</ele><time>2026-03-29T07:38:54.459Z</time></trkpt><trkpt lat="43.5920199" lon="12.6976675"><ele>502.33333333333337</ele><time>2026-03-29T07:38:55.458Z</time></trkpt><trkpt lat="43.591986" lon="12.6977587"><ele>505.6666666666667</ele><time>2026-03-29T07:38:56.458Z</time></trkpt><trkpt lat="43.5919501" lon="12.6978577"><ele>509.0</ele><time>2026-03-29T07:38:57.459Z</time></trkpt><trkpt lat="43.5919003" lon="12.6979538"><ele>512.3333333333334</ele><time>2026-03-29T07:38:58.459Z</time></trkpt><trkpt lat="43.5918407" lon="12.698033"><ele>515.6666666666666</ele><time>2026-03-29T07:38:59.458Z</time></trkpt><trkpt lat="43.5917586" lon="12.6981263"><ele>519.0</ele><time>2026-03-29T07:39:00.458Z</time></trkpt><trkpt lat="43.5917179" lon="12.6982176"><ele>519.0</ele><time>2026-03-29T07:39:01.46Z</time></trkpt><trkpt lat="43.5916648" lon="12.6983156"><ele>519.0</ele><time>2026-03-29T07:39:02.458Z</time></trkpt><trkpt lat="43.5916257" lon="12.6984308"><ele>519.0</ele><time>2026-03-29T07:39:03.458Z</time></trkpt><trkpt lat="43.5916214" lon="12.6985799"><ele>519.0</ele><time>2026-03-29T07:39:05.458Z</time></trkpt><trkpt lat="43.591615" lon="12.6987105"><ele>519.0</ele><time>2026-03-29T07:39:06.46Z</time></trkpt><trkpt lat="43.5916634" lon="12.6988482"><ele>521.0</ele><time>2026-03-29T07:39:08.458Z</time></trkpt><trkpt lat="43.5916588" lon="12.6989511"><ele>523.0</ele><time>2026-03-29T07:39:09.459Z</time></trkpt><trkpt lat="43.5916756" lon="12.6991097"><ele>525.0</ele><time>2026-03-29T07:39:11.458Z</time></trkpt><trkpt lat="43.5918033" lon="12.6991038"><ele>527.0</ele><time>2026-03-29T07:39:13.458Z</time></trkpt><trkpt lat="43.5919132" lon="12.6989933"><ele>527.0</ele><time>2026-03-29T07:39:15.459Z</time></trkpt><trkpt lat="43.591967" lon="12.6989291"><ele>527.0</ele><time>2026-03-29T07:39:16.459Z</time></trkpt><trkpt lat="43.5920198" lon="12.6988342"><ele>527.0</ele><time>2026-03-29T07:39:17.458Z</time></trkpt><trkpt lat="43.5920743" lon="12.6987632"><ele>527.0</ele><time>2026-03-29T07:39:18.459Z</time></trkpt><trkpt lat="43.5921335" lon="12.6986915"><ele>527.0</ele><time>2026-03-29T07:39:19.46Z</time></trkpt><trkpt lat="43.5921778" lon="12.6986277"><ele>527.0</ele><time>2026-03-29T07:39:20.458Z</time></trkpt><trkpt lat="43.5922449" lon="12.6985737"><ele>524.4</ele><time>2026-03-29T07:39:21.459Z</time></trkpt><trkpt lat="43.592368" lon="12.6985186"><ele>521.8000000000001</ele><time>2026-03-29T07:39:23.459Z</time></trkpt><trkpt lat="43.592425" lon="12.6984748"><ele>519.2</ele><time>2026-03-29T07:39:25.459Z</time></trkpt><trkpt lat="43.59251" lon="12.6984433"><ele>516.6</ele><time>2026-03-29T07:39:27.46Z</time></trkpt><trkpt lat="43.5926026" lon="12.6983674"><ele>514.0</ele><time>2026-03-29T07:39:29.458Z</time></trkpt><trkpt lat="43.5926995" lon="12.6982545"><ele>514.0</ele><time>2026-03-29T07:39:31.458Z</time></trkpt><trkpt lat="43.5927588" lon="12.6981992"><ele>514.0</ele><time>2026-03-29T07:39:32.459Z</time></trkpt><trkpt lat="43.5928037" lon="12.6981315"><ele>514.0</ele><time>2026-03-29T07:39:33.458Z</time></trkpt><trkpt lat="43.5928627" lon="12.6980628"><ele>514.0</ele><time>2026-03-29T07:39:34.459Z</time></trkpt><trkpt lat="43.5929766" lon="12.697954"><ele>514.0</ele><time>2026-03-29T07:39:36.458Z</time></trkpt><trkpt lat="43.5930465" lon="12.6979257"><ele>514.0</ele><time>2026-03-29T07:39:37.46Z</time></trkpt><trkpt lat="43.5931784" lon="12.6979308"><ele>517.2</ele><time>2026-03-29T07:39:39.458Z</time></trkpt><trkpt lat="43.5932517" lon="12.6979598"><ele>520.4</ele><time>2026-03-29T07:39:40.458Z</time></trkpt><trkpt lat="43.5933432" lon="12.69799"><ele>523.6</ele><time>2026-03-29T07:39:41.458Z</time></trkpt><trkpt lat="43.5934636" lon="12.6980727"><ele>526.8</ele><time>2026-03-29T07:39:43.458Z</time></trkpt><trkpt lat="43.5935336" lon="12.698028"><ele>530.0</ele><time>2026-03-29T07:39:44.459Z</time></trkpt><trkpt lat="43.5936288" lon="12.6979252"><ele>530.7142857142857</ele><time>2026-03-29T07:39:46.458Z</time></trkpt><trkpt lat="43.5936835" lon="12.6978578"><ele>531.4285714285714</ele><time>2026-03-29T07:39:47.459Z</time></trkpt><trkpt lat="43.593727" lon="12.6977801"><ele>532.1428571428571</ele><time>2026-03-29T07:39:48.458Z</time></trkpt><trkpt lat="43.5937637" lon="12.6977"><ele>532.8571428571429</ele><time>2026-03-29T07:39:49.46Z</time></trkpt><trkpt lat="43.5938037" lon="12.6976179"><ele>533.5714285714286</ele><time>2026-03-29T07:39:50.458Z</time></trkpt><trkpt lat="43.5938445" lon="12.6975213"><ele>534.2857142857142</ele><time>2026-03-29T07:39:51.459Z</time></trkpt><trkpt lat="43.5938828" lon="12.6974234"><ele>535.0</ele><time>2026-03-29T07:39:52.458Z</time></trkpt><trkpt lat="43.593921" lon="12.6973292"><ele>535.0</ele><time>2026-03-29T07:39:53.458Z</time></trkpt><trkpt lat="43.5939399" lon="12.6972368"><ele>535.0</ele><time>2026-03-29T07:39:54.458Z</time></trkpt><trkpt lat="43.5939702" lon="12.6971491"><ele>535.0</ele><time>2026-03-29T07:39:55.458Z</time></trkpt><trkpt lat="43.5939969" lon="12.6970621"><ele>535.0</ele><time>2026-03-29T07:39:56.459Z</time></trkpt><trkpt lat="43.5940357" lon="12.6969856"><ele>535.0</ele><time>2026-03-29T07:39:57.458Z</time></trkpt><trkpt lat="43.5941363" lon="12.6968711"><ele>535.0</ele><time>2026-03-29T07:39:59.458Z</time></trkpt><trkpt lat="43.5941974" lon="12.6968173"><ele>532.1666666666667</ele><time>2026-03-29T07:40:00.46Z</time></trkpt><trkpt lat="43.5942801" lon="12.6967621"><ele>529.3333333333334</ele><time>2026-03-29T07:40:01.459Z</time></trkpt><trkpt lat="43.5943381" lon="12.6967092"><ele>526.5</ele><time>2026-03-29T07:40:02.46Z</time></trkpt><trkpt lat="43.5943923" lon="12.6966418"><ele>523.6666666666666</ele><time>2026-03-29T07:40:03.458Z</time></trkpt><trkpt lat="43.5944461" lon="12.6965604"><ele>520.8333333333333</ele><time>2026-03-29T07:40:04.459Z</time></trkpt><trkpt lat="43.5944767" lon="12.6964713"><ele>518.0</ele><time>2026-03-29T07:40:05.459Z</time></trkpt><trkpt lat="43.5944922" lon="12.696377"><ele>518.0</ele><time>2026-03-29T07:40:06.459Z</time></trkpt><trkpt lat="43.594501" lon="12.6962823"><ele>518.0</ele><time>2026-03-29T07:40:07.458Z</time></trkpt><trkpt lat="43.5945133" lon="12.6961833"><ele>518.0</ele><time>2026-03-29T07:40:08.459Z</time></trkpt><trkpt lat="43.594536" lon="12.6960877"><ele>518.0</ele><time>2026-03-29T07:40:09.458Z</time></trkpt><trkpt lat="43.5945885" lon="12.6960042"><ele>518.0</ele><time>2026-03-29T07:40:10.459Z</time></trkpt><trkpt lat="43.5946248" lon="12.6959197"><ele>518.0</ele><time>2026-03-29T07:40:11.458Z</time></trkpt><trkpt lat="43.5946618" lon="12.6958392"><ele>518.0</ele><time>2026-03-29T07:40:12.46Z</time></trkpt><trkpt lat="43.5946808" lon="12.6957527"><ele>517.2857142857143</ele><time>2026-03-29T07:40:13.459Z</time></trkpt><trkpt lat="43.594709" lon="12.695648"><ele>516.5714285714286</ele><time>2026-03-29T07:40:14.459Z</time></trkpt><trkpt lat="43.5947163" lon="12.6955545"><ele>515.8571428571429</ele><time>2026-03-29T07:40:15.459Z</time></trkpt><trkpt lat="43.5947292" lon="12.6954576"><ele>515.1428571428571</ele><time>2026-03-29T07:40:16.458Z</time></trkpt><trkpt lat="43.5947469" lon="12.6953679"><ele>514.4285714285714</ele><time>2026-03-29T07:40:17.459Z</time></trkpt><trkpt lat="43.5947801" lon="12.6952877"><ele>513.7142857142858</ele><time>2026-03-29T07:40:18.458Z</time></trkpt><trkpt lat="43.5948317" lon="12.6952211"><ele>513.0</ele><time>2026-03-29T07:40:19.459Z</time></trkpt><trkpt lat="43.5948786" lon="12.6951592"><ele>513.0</ele><time>2026-03-29T07:40:20.46Z</time></trkpt><trkpt lat="43.5949393" lon="12.6951197"><ele>513.0</ele><time>2026-03-29T07:40:21.458Z</time></trkpt><trkpt lat="43.595038" lon="12.6950688"><ele>513.0</ele><time>2026-03-29T07:40:23.458Z</time></trkpt><trkpt lat="43.5951422" lon="12.6951357"><ele>513.0</ele><time>2026-03-29T07:40:25.458Z</time></trkpt><trkpt lat="43.5952124" lon="12.6951716"><ele>513.0</ele><time>2026-03-29T07:40:26.459Z</time></trkpt><trkpt lat="43.5952643" lon="12.6952265"><ele>513.0</ele><time>2026-03-29T07:40:27.459Z</time></trkpt><trkpt lat="43.5953251" lon="12.6952722"><ele>514.8333333333334</ele><time>2026-03-29T07:40:28.459Z</time></trkpt><trkpt lat="43.5953906" lon="12.6953081"><ele>516.6666666666666</ele><time>2026-03-29T07:40:29.459Z</time></trkpt><trkpt lat="43.5954508" lon="12.6953512"><ele>518.5</ele><time>2026-03-29T07:40:30.458Z</time></trkpt><trkpt lat="43.5955187" lon="12.6953947"><ele>520.3333333333333</ele><time>2026-03-29T07:40:31.459Z</time></trkpt><trkpt lat="43.5955829" lon="12.6954485"><ele>522.1666666666666</ele><time>2026-03-29T07:40:32.458Z</time></trkpt><trkpt lat="43.595646" lon="12.6956055"><ele>524.0</ele><time>2026-03-29T07:40:34.458Z</time></trkpt><trkpt lat="43.5956709" lon="12.6956997"><ele>524.0</ele><time>2026-03-29T07:40:35.46Z</time></trkpt><trkpt lat="43.5956993" lon="12.6957955"><ele>524.0</ele><time>2026-03-29T07:40:36.459Z</time></trkpt><trkpt lat="43.5957316" lon="12.6958949"><ele>524.0</ele><time>2026-03-29T07:40:37.459Z</time></trkpt><trkpt lat="43.5957596" lon="12.6959912"><ele>524.0</ele><time>2026-03-29T07:40:38.458Z</time></trkpt><trkpt lat="43.5958127" lon="12.6960823"><ele>524.0</ele><time>2026-03-29T07:40:39.459Z</time></trkpt><trkpt lat="43.5958619" lon="12.696167"><ele>524.0</ele><time>2026-03-29T07:40:40.458Z</time></trkpt><trkpt lat="43.5959041" lon="12.6962553"><ele>523.6</ele><time>2026-03-29T07:40:41.46Z</time></trkpt><trkpt lat="43.5959415" lon="12.6963257"><ele>523.2</ele><time>2026-03-29T07:40:42.458Z</time></trkpt><trkpt lat="43.5960389" lon="12.6963222"><ele>522.8000000000001</ele><time>2026-03-29T07:40:43.459Z</time></trkpt><trkpt lat="43.5961548" lon="12.6963351"><ele>522.4</ele><time>2026-03-29T07:40:45.459Z</time></trkpt><trkpt lat="43.596265" lon="12.6963634"><ele>522.0</ele><time>2026-03-29T07:40:47.458Z</time></trkpt><trkpt lat="43.5963542" lon="12.6964463"><ele>522.0</ele><time>2026-03-29T07:40:49.458Z</time></trkpt><trkpt lat="43.5964433" lon="12.6964589"><ele>522.0</ele><time>2026-03-29T07:40:52.459Z</time></trkpt><trkpt lat="43.5965033" lon="12.6963815"><ele>522.0</ele><time>2026-03-29T07:40:54.459Z</time></trkpt><trkpt lat="43.596582" lon="12.6962827"><ele>522.0</ele><time>2026-03-29T07:40:56.458Z</time></trkpt><trkpt lat="43.5966334" lon="12.6962292"><ele>522.0</ele><time>2026-03-29T07:40:57.458Z</time></trkpt><trkpt lat="43.5966899" lon="12.6961749"><ele>522.0</ele><time>2026-03-29T07:40:58.459Z</time></trkpt><trkpt lat="43.5967492" lon="12.6961168"><ele>522.3333333333334</ele><time>2026-03-29T07:40:59.458Z</time></trkpt><trkpt lat="43.5968203" lon="12.6960524"><ele>522.6666666666666</ele><time>2026-03-29T07:41:00.458Z</time></trkpt><trkpt lat="43.5968856" lon="12.6959865"><ele>523.0</ele><time>2026-03-29T07:41:01.459Z</time></trkpt><trkpt lat="43.5969565" lon="12.6959176"><ele>523.3333333333333</ele><time>2026-03-29T07:41:02.459Z</time></trkpt><trkpt lat="43.597034" lon="12.6958474"><ele>523.6666666666666</ele><time>2026-03-29T07:41:03.458Z</time></trkpt><trkpt lat="43.5971008" lon="12.6957845"><ele>524.0</ele><time>2026-03-29T07:41:04.458Z</time></trkpt><trkpt lat="43.5971651" lon="12.6957226"><ele>523.6666666666666</ele><time>2026-03-29T07:41:05.458Z</time></trkpt><trkpt lat="43.5972268" lon="12.695662"><ele>523.3333333333333</ele><time>2026-03-29T07:41:06.458Z</time></trkpt><trkpt lat="43.5973306" lon="12.6955672"><ele>523.0</ele><time>2026-03-29T07:41:08.458Z</time></trkpt><trkpt lat="43.5974104" lon="12.695497"><ele>522.6666666666666</ele><time>2026-03-29T07:41:10.459Z</time></trkpt><trkpt lat="43.5974741" lon="12.6954265"><ele>522.3333333333334</ele><time>2026-03-29T07:41:12.458Z</time></trkpt><trkpt lat="43.597514" lon="12.6953434"><ele>522.0</ele><time>2026-03-29T07:41:14.459Z</time></trkpt><trkpt lat="43.5975305" lon="12.6952376"><ele>522.0</ele><time>2026-03-29T07:41:17.459Z</time></trkpt><trkpt lat="43.5976029" lon="12.6951557"><ele>522.0</ele><time>2026-03-29T07:41:20.459Z</time></trkpt><trkpt lat="43.5976654" lon="12.6950691"><ele>522.0</ele><time>2026-03-29T07:41:22.459Z</time></trkpt><trkpt lat="43.5977237" lon="12.6949684"><ele>522.0</ele><time>2026-03-29T07:41:24.458Z</time></trkpt><trkpt lat="43.5977795" lon="12.6948656"><ele>522.0</ele><time>2026-03-29T07:41:26.459Z</time></trkpt><trkpt lat="43.5978366" lon="12.6947635"><ele>521.0</ele><time>2026-03-29T07:41:28.459Z</time></trkpt><trkpt lat="43.5979039" lon="12.6946695"><ele>520.0</ele><time>2026-03-29T07:41:30.459Z</time></trkpt><trkpt lat="43.5979639" lon="12.6945526"><ele>519.0</ele><time>2026-03-29T07:41:32.458Z</time></trkpt><trkpt lat="43.59803" lon="12.6944436"><ele>518.0</ele><time>2026-03-29T07:41:34.459Z</time></trkpt><trkpt lat="43.5980905" lon="12.6943337"><ele>517.0</ele><time>2026-03-29T07:41:36.46Z</time></trkpt><trkpt lat="43.5981472" lon="12.6942213"><ele>517.0</ele><time>2026-03-29T07:41:38.458Z</time></trkpt><trkpt lat="43.598202" lon="12.6941144"><ele>517.0</ele><time>2026-03-29T07:41:40.459Z</time></trkpt><trkpt lat="43.5982414" lon="12.6940278"><ele>517.0</ele><time>2026-03-29T07:41:42.46Z</time></trkpt><trkpt lat="43.5982822" lon="12.6939521"><ele>517.0</ele><time>2026-03-29T07:41:44.458Z</time></trkpt><trkpt lat="43.598331" lon="12.6938525"><ele>517.0</ele><time>2026-03-29T07:41:47.46Z</time></trkpt><trkpt lat="43.5983826" lon="12.693757"><ele>517.0</ele><time>2026-03-29T07:41:49.459Z</time></trkpt><trkpt lat="43.5984567" lon="12.6936577"><ele>517.4</ele><time>2026-03-29T07:41:51.459Z</time></trkpt><trkpt lat="43.5985208" lon="12.6935601"><ele>517.8000000000001</ele><time>2026-03-29T07:41:53.458Z</time></trkpt><trkpt lat="43.5985709" lon="12.6934333"><ele>518.2</ele><time>2026-03-29T07:41:55.458Z</time></trkpt><trkpt lat="43.5986003" lon="12.6933275"><ele>518.6</ele><time>2026-03-29T07:41:57.459Z</time></trkpt><trkpt lat="43.5986086" lon="12.6932164"><ele>519.0</ele><time>2026-03-29T07:41:59.459Z</time></trkpt><trkpt lat="43.5986495" lon="12.6931022"><ele>519.6</ele><time>2026-03-29T07:42:02.459Z</time></trkpt><trkpt lat="43.5987021" lon="12.6929724"><ele>520.2</ele><time>2026-03-29T07:42:05.458Z</time></trkpt><trkpt lat="43.5987543" lon="12.6928628"><ele>520.8000000000001</ele><time>2026-03-29T07:42:07.459Z</time></trkpt><trkpt lat="43.5988044" lon="12.6927563"><ele>521.4</ele><time>2026-03-29T07:42:09.459Z</time></trkpt><trkpt lat="43.5988594" lon="12.6926673"><ele>522.0</ele><time>2026-03-29T07:42:11.458Z</time></trkpt><trkpt lat="43.5989195" lon="12.6925733"><ele>522.0</ele><time>2026-03-29T07:42:13.46Z</time></trkpt><trkpt lat="43.5989864" lon="12.6925029"><ele>522.0</ele><time>2026-03-29T07:42:15.458Z</time></trkpt><trkpt lat="43.5990733" lon="12.6924563"><ele>522.0</ele><time>2026-03-29T07:42:17.459Z</time></trkpt><trkpt lat="43.5991524" lon="12.6924095"><ele>522.0</ele><time>2026-03-29T07:42:19.458Z</time></trkpt><trkpt lat="43.5992335" lon="12.6923899"><ele>522.0</ele><time>2026-03-29T07:42:21.459Z</time></trkpt><trkpt lat="43.5992967" lon="12.6923285"><ele>522.0</ele><time>2026-03-29T07:42:23.458Z</time></trkpt><trkpt lat="43.5993567" lon="12.6922447"><ele>522.0</ele><time>2026-03-29T07:42:25.458Z</time></trkpt><trkpt lat="43.5993966" lon="12.692176"><ele>522.0</ele><time>2026-03-29T07:42:27.459Z</time></trkpt><trkpt lat="43.5994587" lon="12.6921137"><ele>522.0</ele><time>2026-03-29T07:42:29.458Z</time></trkpt><trkpt lat="43.5995384" lon="12.6920498"><ele>522.0</ele><time>2026-03-29T07:42:31.459Z</time></trkpt><trkpt lat="43.5996045" lon="12.6919786"><ele>522.0</ele><time>2026-03-29T07:42:33.458Z</time></trkpt><trkpt lat="43.5996473" lon="12.6918803"><ele>522.0</ele><time>2026-03-29T07:42:36.458Z</time></trkpt><trkpt lat="43.5996886" lon="12.6917852"><ele>521.5</ele><time>2026-03-29T07:42:39.458Z</time></trkpt><trkpt lat="43.5997386" lon="12.6917291"><ele>521.0</ele><time>2026-03-29T07:42:41.458Z</time></trkpt><trkpt lat="43.5998023" lon="12.691665"><ele>520.5</ele><time>2026-03-29T07:42:43.459Z</time></trkpt><trkpt lat="43.599866" lon="12.691617"><ele>520.0</ele><time>2026-03-29T07:42:45.459Z</time></trkpt><trkpt lat="43.5999379" lon="12.691536"><ele>519.5</ele><time>2026-03-29T07:42:47.46Z</time></trkpt><trkpt lat="43.6000351" lon="12.6914397"><ele>519.0</ele><time>2026-03-29T07:42:49.46Z</time></trkpt><trkpt lat="43.6000878" lon="12.6913883"><ele>519.0</ele><time>2026-03-29T07:42:50.458Z</time></trkpt><trkpt lat="43.6001942" lon="12.691278"><ele>519.0</ele><time>2026-03-29T07:42:52.459Z</time></trkpt><trkpt lat="43.6002498" lon="12.6912228"><ele>519.0</ele><time>2026-03-29T07:42:53.458Z</time></trkpt><trkpt lat="43.6003099" lon="12.6911744"><ele>519.0</ele><time>2026-03-29T07:42:54.459Z</time></trkpt><trkpt lat="43.6004131" lon="12.6910793"><ele>519.0</ele><time>2026-03-29T07:42:56.459Z</time></trkpt><trkpt lat="43.6004898" lon="12.6910133"><ele>519.3333333333334</ele><time>2026-03-29T07:42:58.46Z</time></trkpt><trkpt lat="43.6005671" lon="12.690979"><ele>519.6666666666666</ele><time>2026-03-29T07:43:01.458Z</time></trkpt><trkpt lat="43.6006312" lon="12.6909244"><ele>520.0</ele><time>2026-03-29T07:43:04.459Z</time></trkpt><trkpt lat="43.6006839" lon="12.6908542"><ele>520.3333333333333</ele><time>2026-03-29T07:43:06.459Z</time></trkpt><trkpt lat="43.6007465" lon="12.6907616"><ele>520.6666666666666</ele><time>2026-03-29T07:43:08.46Z</time></trkpt><trkpt lat="43.600774" lon="12.6906647"><ele>521.0</ele><time>2026-03-29T07:43:10.458Z</time></trkpt><trkpt lat="43.6008268" lon="12.6905148"><ele>521.0</ele><time>2026-03-29T07:43:12.458Z</time></trkpt><trkpt lat="43.6008592" lon="12.6903873"><ele>521.0</ele><time>2026-03-29T07:43:14.459Z</time></trkpt><trkpt lat="43.600859" lon="12.6902514"><ele>521.0</ele><time>2026-03-29T07:43:16.459Z</time></trkpt><trkpt lat="43.6008983" lon="12.6901527"><ele>521.0</ele><time>2026-03-29T07:43:18.458Z</time></trkpt><trkpt lat="43.6009397" lon="12.6900702"><ele>521.0</ele><time>2026-03-29T07:43:19.458Z</time></trkpt><trkpt lat="43.6010036" lon="12.6899749"><ele>521.0</ele><time>2026-03-29T07:43:21.459Z</time></trkpt><trkpt lat="43.6010551" lon="12.6898956"><ele>520.5</ele><time>2026-03-29T07:43:22.458Z</time></trkpt><trkpt lat="43.6010925" lon="12.6898213"><ele>520.0</ele><time>2026-03-29T07:43:23.458Z</time></trkpt><trkpt lat="43.6011471" lon="12.6896775"><ele>519.5</ele><time>2026-03-29T07:43:25.458Z</time></trkpt><trkpt lat="43.6011828" lon="12.68959"><ele>519.0</ele><time>2026-03-29T07:43:27.459Z</time></trkpt><trkpt lat="43.6012335" lon="12.6895069"><ele>518.5</ele><time>2026-03-29T07:43:29.459Z</time></trkpt><trkpt lat="43.6012738" lon="12.6894123"><ele>518.0</ele><time>2026-03-29T07:43:31.459Z</time></trkpt><trkpt lat="43.6013147" lon="12.6893106"><ele>518.0</ele><time>2026-03-29T07:43:34.459Z</time></trkpt><trkpt lat="43.6013664" lon="12.6892435"><ele>518.0</ele><time>2026-03-29T07:43:37.458Z</time></trkpt><trkpt lat="43.6014067" lon="12.6891369"><ele>518.0</ele><time>2026-03-29T07:43:40.458Z</time></trkpt><trkpt lat="43.6014251" lon="12.6890234"><ele>518.0</ele><time>2026-03-29T07:43:43.458Z</time></trkpt><trkpt lat="43.601436" lon="12.6889244"><ele>518.0</ele><time>2026-03-29T07:43:46.458Z</time></trkpt><trkpt lat="43.601504" lon="12.6888463"><ele>518.0</ele><time>2026-03-29T07:43:50.458Z</time></trkpt><trkpt lat="43.6015606" lon="12.6887939"><ele>518.0</ele><time>2026-03-29T07:43:52.459Z</time></trkpt><trkpt lat="43.6016366" lon="12.6887169"><ele>518.0</ele><time>2026-03-29T07:43:54.46Z</time></trkpt><trkpt lat="43.6017025" lon="12.6886124"><ele>518.0</ele><time>2026-03-29T07:43:56.459Z</time></trkpt><trkpt lat="43.6017734" lon="12.6885156"><ele>518.0</ele><time>2026-03-29T07:43:58.459Z</time></trkpt><trkpt lat="43.6018169" lon="12.6884396"><ele>518.0</ele><time>2026-03-29T07:44:00.458Z</time></trkpt><trkpt lat="43.60184" lon="12.6883553"><ele>518.0</ele><time>2026-03-29T07:44:02.459Z</time></trkpt><trkpt lat="43.6018955" lon="12.6882248"><ele>517.6</ele><time>2026-03-29T07:44:04.459Z</time></trkpt><trkpt lat="43.6019556" lon="12.6881344"><ele>517.1999999999999</ele><time>2026-03-29T07:44:06.459Z</time></trkpt><trkpt lat="43.6020424" lon="12.688058"><ele>516.8</ele><time>2026-03-29T07:44:08.459Z</time></trkpt><trkpt lat="43.6020909" lon="12.6879277"><ele>516.4</ele><time>2026-03-29T07:44:10.459Z</time></trkpt><trkpt lat="43.6021462" lon="12.6878101"><ele>516.0</ele><time>2026-03-29T07:44:12.459Z</time></trkpt><trkpt lat="43.6022046" lon="12.6876759"><ele>518.6</ele><time>2026-03-29T07:44:14.458Z</time></trkpt><trkpt lat="43.6022537" lon="12.6875648"><ele>521.2</ele><time>2026-03-29T07:44:16.459Z</time></trkpt><trkpt lat="43.6023134" lon="12.6874533"><ele>523.8</ele><time>2026-03-29T07:44:18.459Z</time></trkpt><trkpt lat="43.6023857" lon="12.6873452"><ele>526.4</ele><time>2026-03-29T07:44:20.459Z</time></trkpt><trkpt lat="43.6024535" lon="12.6872592"><ele>529.0</ele><time>2026-03-29T07:44:22.459Z</time></trkpt><trkpt lat="43.6025301" lon="12.6871641"><ele>529.0</ele><time>2026-03-29T07:44:24.458Z</time></trkpt><trkpt lat="43.6025746" lon="12.6870349"><ele>529.0</ele><time>2026-03-29T07:44:26.458Z</time></trkpt><trkpt lat="43.6025944" lon="12.6869071"><ele>529.0</ele><time>2026-03-29T07:44:28.459Z</time></trkpt><trkpt lat="43.6025998" lon="12.6867591"><ele>529.0</ele><time>2026-03-29T07:44:30.458Z</time></trkpt><trkpt lat="43.6026065" lon="12.686625"><ele>529.0</ele><time>2026-03-29T07:44:32.459Z</time></trkpt><trkpt lat="43.6026756" lon="12.686583"><ele>529.0</ele><time>2026-03-29T07:44:35.458Z</time></trkpt><trkpt lat="43.602738" lon="12.6865395"><ele>529.0</ele><time>2026-03-29T07:44:39.46Z</time></trkpt><trkpt lat="43.6026834" lon="12.6865879"><ele>529.0</ele><time>2026-03-29T07:45:31.458Z</time></trkpt><trkpt lat="43.6026131" lon="12.6865984"><ele>529.0</ele><time>2026-03-29T07:45:43.458Z</time></trkpt><trkpt lat="43.6025982" lon="12.6866945"><ele>529.0</ele><time>2026-03-29T07:45:49.459Z</time></trkpt><trkpt lat="43.6025981" lon="12.6867821"><ele>529.0</ele><time>2026-03-29T07:45:52.459Z</time></trkpt><trkpt lat="43.6025935" lon="12.686884"><ele>529.0</ele><time>2026-03-29T07:45:55.458Z</time></trkpt><trkpt lat="43.6025802" lon="12.6869908"><ele>529.0</ele><time>2026-03-29T07:45:58.458Z</time></trkpt><trkpt lat="43.6025595" lon="12.6871053"><ele>529.0</ele><time>2026-03-29T07:46:01.458Z</time></trkpt><trkpt lat="43.6025117" lon="12.6871988"><ele>529.0</ele><time>2026-03-29T07:46:04.458Z</time></trkpt><trkpt lat="43.602452" lon="12.6872646"><ele>529.0</ele><time>2026-03-29T07:46:06.458Z</time></trkpt><trkpt lat="43.6023935" lon="12.6873421"><ele>529.0</ele><time>2026-03-29T07:46:08.459Z</time></trkpt><trkpt lat="43.6023373" lon="12.68743"><ele>529.0</ele><time>2026-03-29T07:46:10.458Z</time></trkpt><trkpt lat="43.6022893" lon="12.6875267"><ele>529.0</ele><time>2026-03-29T07:46:12.458Z</time></trkpt><trkpt lat="43.6022434" lon="12.6876308"><ele>529.0</ele><time>2026-03-29T07:46:14.459Z</time></trkpt><trkpt lat="43.6021924" lon="12.6877406"><ele>529.0</ele><time>2026-03-29T07:46:16.46Z</time></trkpt><trkpt lat="43.6021577" lon="12.6878279"><ele>529.0</ele><time>2026-03-29T07:46:18.458Z</time></trkpt><trkpt lat="43.6021213" lon="12.6879161"><ele>529.0</ele><time>2026-03-29T07:46:20.46Z</time></trkpt><trkpt lat="43.6020746" lon="12.6880033"><ele>529.0</ele><time>2026-03-29T07:46:22.458Z</time></trkpt><trkpt lat="43.6020314" lon="12.688078"><ele>530.1666666666667</ele><time>2026-03-29T07:46:24.458Z</time></trkpt><trkpt lat="43.6019711" lon="12.6881797"><ele>531.3333333333334</ele><time>2026-03-29T07:46:27.458Z</time></trkpt><trkpt lat="43.6019329" lon="12.6882684"><ele>532.5</ele><time>2026-03-29T07:46:29.459Z</time></trkpt><trkpt lat="43.6018776" lon="12.6883605"><ele>533.6666666666666</ele><time>2026-03-29T07:46:31.458Z</time></trkpt><trkpt lat="43.6018062" lon="12.6884192"><ele>534.8333333333333</ele><time>2026-03-29T07:46:32.458Z</time></trkpt><trkpt lat="43.6017599" lon="12.6885047"><ele>536.0</ele><time>2026-03-29T07:46:34.459Z</time></trkpt><trkpt lat="43.6017339" lon="12.6885848"><ele>533.0</ele><time>2026-03-29T07:46:36.459Z</time></trkpt><trkpt lat="43.6016934" lon="12.688653"><ele>530.0</ele><time>2026-03-29T07:46:38.459Z</time></trkpt><trkpt lat="43.6016474" lon="12.6887389"><ele>527.0</ele><time>2026-03-29T07:46:40.458Z</time></trkpt><trkpt lat="43.6015728" lon="12.6888165"><ele>524.0</ele><time>2026-03-29T07:46:42.46Z</time></trkpt><trkpt lat="43.6014932" lon="12.6888638"><ele>521.0</ele><time>2026-03-29T07:46:44.459Z</time></trkpt><trkpt lat="43.6014176" lon="12.688898"><ele>518.0</ele><time>2026-03-29T07:46:47.46Z</time></trkpt><trkpt lat="43.6014378" lon="12.6890095"><ele>518.0</ele><time>2026-03-29T07:47:30.46Z</time></trkpt><trkpt lat="43.6014311" lon="12.6891137"><ele>518.0</ele><time>2026-03-29T07:47:32.46Z</time></trkpt><trkpt lat="43.6014071" lon="12.6891977"><ele>518.0</ele><time>2026-03-29T07:47:34.46Z</time></trkpt><trkpt lat="43.6013584" lon="12.6893003"><ele>518.0</ele><time>2026-03-29T07:47:36.46Z</time></trkpt><trkpt lat="43.6013131" lon="12.6893666"><ele>518.0</ele><time>2026-03-29T07:47:37.459Z</time></trkpt><trkpt lat="43.6012445" lon="12.6894737"><ele>518.0</ele><time>2026-03-29T07:47:39.46Z</time></trkpt><trkpt lat="43.6011783" lon="12.6896062"><ele>521.8</ele><time>2026-03-29T07:47:41.46Z</time></trkpt><trkpt lat="43.6011058" lon="12.6897363"><ele>525.5999999999999</ele><time>2026-03-29T07:47:43.461Z</time></trkpt><trkpt lat="43.6010681" lon="12.689824"><ele>529.4000000000001</ele><time>2026-03-29T07:47:44.46Z</time></trkpt><trkpt lat="43.6009934" lon="12.6899532"><ele>533.2</ele><time>2026-03-29T07:47:46.459Z</time></trkpt><trkpt lat="43.6009647" lon="12.6900586"><ele>537.0</ele><time>2026-03-29T07:47:47.459Z</time></trkpt><trkpt lat="43.6009168" lon="12.69016"><ele>533.8000000000001</ele><time>2026-03-29T07:47:49.459Z</time></trkpt><trkpt lat="43.6008469" lon="12.6903132"><ele>530.6</ele><time>2026-03-29T07:47:51.46Z</time></trkpt><trkpt lat="43.6008156" lon="12.6904509"><ele>527.4000000000001</ele><time>2026-03-29T07:47:53.461Z</time></trkpt><trkpt lat="43.6007797" lon="12.6905869"><ele>524.2</ele><time>2026-03-29T07:47:55.459Z</time></trkpt><trkpt lat="43.6007376" lon="12.6906864"><ele>521.0</ele><time>2026-03-29T07:47:57.46Z</time></trkpt><trkpt lat="43.6006999" lon="12.6907994"><ele>521.0</ele><time>2026-03-29T07:47:59.459Z</time></trkpt><trkpt lat="43.6006379" lon="12.6908994"><ele>521.0</ele><time>2026-03-29T07:48:01.459Z</time></trkpt><trkpt lat="43.6005447" lon="12.6909853"><ele>521.0</ele><time>2026-03-29T07:48:04.46Z</time></trkpt><trkpt lat="43.6004686" lon="12.6910289"><ele>521.0</ele><time>2026-03-29T07:48:07.46Z</time></trkpt><trkpt lat="43.6004039" lon="12.6911031"><ele>521.0</ele><time>2026-03-29T07:48:11.459Z</time></trkpt><trkpt lat="43.6003308" lon="12.6911655"><ele>520.6666666666666</ele><time>2026-03-29T07:48:14.46Z</time></trkpt><trkpt lat="43.6002637" lon="12.6912283"><ele>520.3333333333333</ele><time>2026-03-29T07:48:17.46Z</time></trkpt><trkpt lat="43.6002008" lon="12.6912959"><ele>520.0</ele><time>2026-03-29T07:48:20.46Z</time></trkpt><trkpt lat="43.6001408" lon="12.6913594"><ele>519.6666666666666</ele><time>2026-03-29T07:48:22.46Z</time></trkpt><trkpt lat="43.6000814" lon="12.6914053"><ele>519.3333333333334</ele><time>2026-03-29T07:48:24.459Z</time></trkpt><trkpt lat="43.6000088" lon="12.6914714"><ele>519.0</ele><time>2026-03-29T07:48:26.461Z</time></trkpt><trkpt lat="43.5999515" lon="12.6915387"><ele>519.0</ele><time>2026-03-29T07:48:28.459Z</time></trkpt><trkpt lat="43.59989" lon="12.6916012"><ele>519.0</ele><time>2026-03-29T07:48:30.459Z</time></trkpt><trkpt lat="43.5998034" lon="12.6916695"><ele>519.0</ele><time>2026-03-29T07:48:32.459Z</time></trkpt><trkpt lat="43.5997262" lon="12.6917578"><ele>519.0</ele><time>2026-03-29T07:48:34.459Z</time></trkpt><trkpt lat="43.5996667" lon="12.6918761"><ele>519.0</ele><time>2026-03-29T07:48:36.459Z</time></trkpt><trkpt lat="43.5996041" lon="12.691987"><ele>519.5</ele><time>2026-03-29T07:48:38.46Z</time></trkpt><trkpt lat="43.5995446" lon="12.6920623"><ele>520.0</ele><time>2026-03-29T07:48:40.46Z</time></trkpt><trkpt lat="43.5994875" lon="12.6921065"><ele>520.5</ele><time>2026-03-29T07:48:41.46Z</time></trkpt><trkpt lat="43.5993912" lon="12.6921927"><ele>521.0</ele><time>2026-03-29T07:48:43.459Z</time></trkpt><trkpt lat="43.5993201" lon="12.6923044"><ele>521.5</ele><time>2026-03-29T07:48:45.459Z</time></trkpt><trkpt lat="43.5992571" lon="12.6923685"><ele>522.0</ele><time>2026-03-29T07:48:47.459Z</time></trkpt><trkpt lat="43.599187" lon="12.6924059"><ele>522.0</ele><time>2026-03-29T07:48:49.459Z</time></trkpt><trkpt lat="43.5991072" lon="12.6924327"><ele>522.0</ele><time>2026-03-29T07:48:51.459Z</time></trkpt><trkpt lat="43.5990267" lon="12.6924771"><ele>522.0</ele><time>2026-03-29T07:48:53.459Z</time></trkpt><trkpt lat="43.5989471" lon="12.6925476"><ele>522.0</ele><time>2026-03-29T07:48:55.46Z</time></trkpt><trkpt lat="43.5988716" lon="12.6926474"><ele>522.0</ele><time>2026-03-29T07:48:57.46Z</time></trkpt><trkpt lat="43.5987975" lon="12.692757"><ele>521.4</ele><time>2026-03-29T07:48:59.461Z</time></trkpt><trkpt lat="43.5987336" lon="12.6928822"><ele>520.8000000000001</ele><time>2026-03-29T07:49:01.46Z</time></trkpt><trkpt lat="43.5986908" lon="12.6929973"><ele>520.2</ele><time>2026-03-29T07:49:03.461Z</time></trkpt><trkpt lat="43.598627" lon="12.6931503"><ele>519.6</ele><time>2026-03-29T07:49:05.459Z</time></trkpt><trkpt lat="43.5985977" lon="12.6932735"><ele>519.0</ele><time>2026-03-29T07:49:07.46Z</time></trkpt><trkpt lat="43.5985681" lon="12.6933867"><ele>519.0</ele><time>2026-03-29T07:49:09.46Z</time></trkpt><trkpt lat="43.5985351" lon="12.6935204"><ele>519.0</ele><time>2026-03-29T07:49:11.46Z</time></trkpt><trkpt lat="43.5984661" lon="12.6936383"><ele>519.0</ele><time>2026-03-29T07:49:13.46Z</time></trkpt><trkpt lat="43.5984007" lon="12.6937198"><ele>519.0</ele><time>2026-03-29T07:49:15.46Z</time></trkpt><trkpt lat="43.5983391" lon="12.6938045"><ele>519.0</ele><time>2026-03-29T07:49:17.46Z</time></trkpt><trkpt lat="43.5982862" lon="12.6938936"><ele>518.6</ele><time>2026-03-29T07:49:19.46Z</time></trkpt><trkpt lat="43.5982308" lon="12.6940027"><ele>518.2</ele><time>2026-03-29T07:49:21.459Z</time></trkpt><trkpt lat="43.5981725" lon="12.6941328"><ele>517.8000000000001</ele><time>2026-03-29T07:49:23.46Z</time></trkpt><trkpt lat="43.598119" lon="12.6942517"><ele>517.4</ele><time>2026-03-29T07:49:25.459Z</time></trkpt><trkpt lat="43.598066" lon="12.6943549"><ele>517.0</ele><time>2026-03-29T07:49:27.46Z</time></trkpt><trkpt lat="43.5980036" lon="12.6944623"><ele>518.0</ele><time>2026-03-29T07:49:29.459Z</time></trkpt><trkpt lat="43.5979392" lon="12.694593"><ele>519.0</ele><time>2026-03-29T07:49:31.46Z</time></trkpt><trkpt lat="43.5978784" lon="12.6946902"><ele>520.0</ele><time>2026-03-29T07:49:33.46Z</time></trkpt><trkpt lat="43.5978123" lon="12.6947983"><ele>521.0</ele><time>2026-03-29T07:49:35.46Z</time></trkpt><trkpt lat="43.597763" lon="12.6948914"><ele>522.0</ele><time>2026-03-29T07:49:37.459Z</time></trkpt><trkpt lat="43.5977173" lon="12.6949874"><ele>522.0</ele><time>2026-03-29T07:49:39.459Z</time></trkpt><trkpt lat="43.5976569" lon="12.6950764"><ele>522.0</ele><time>2026-03-29T07:49:41.459Z</time></trkpt><trkpt lat="43.5975951" lon="12.6951522"><ele>522.0</ele><time>2026-03-29T07:49:43.46Z</time></trkpt><trkpt lat="43.5975292" lon="12.6952323"><ele>522.0</ele><time>2026-03-29T07:49:46.46Z</time></trkpt><trkpt lat="43.5975004" lon="12.6953344"><ele>522.0</ele><time>2026-03-29T07:49:49.46Z</time></trkpt><trkpt lat="43.597452" lon="12.6954143"><ele>522.0</ele><time>2026-03-29T07:49:52.46Z</time></trkpt><trkpt lat="43.5973881" lon="12.695475"><ele>522.3333333333334</ele><time>2026-03-29T07:49:54.46Z</time></trkpt><trkpt lat="43.5973139" lon="12.6955523"><ele>522.6666666666666</ele><time>2026-03-29T07:49:56.46Z</time></trkpt><trkpt lat="43.5972364" lon="12.6956303"><ele>523.0</ele><time>2026-03-29T07:49:58.459Z</time></trkpt><trkpt lat="43.5971409" lon="12.6957298"><ele>523.3333333333333</ele><time>2026-03-29T07:50:00.461Z</time></trkpt><trkpt lat="43.5970879" lon="12.6957776"><ele>523.6666666666666</ele><time>2026-03-29T07:50:01.459Z</time></trkpt><trkpt lat="43.5970332" lon="12.6958281"><ele>524.0</ele><time>2026-03-29T07:50:02.459Z</time></trkpt><trkpt lat="43.5969765" lon="12.6958819"><ele>524.0</ele><time>2026-03-29T07:50:03.459Z</time></trkpt><trkpt lat="43.5969205" lon="12.6959316"><ele>524.0</ele><time>2026-03-29T07:50:04.459Z</time></trkpt><trkpt lat="43.596865" lon="12.6959829"><ele>524.0</ele><time>2026-03-29T07:50:05.459Z</time></trkpt><trkpt lat="43.596811" lon="12.6960342"><ele>524.0</ele><time>2026-03-29T07:50:06.46Z</time></trkpt><trkpt lat="43.5967543" lon="12.6960874"><ele>524.0</ele><time>2026-03-29T07:50:07.459Z</time></trkpt><trkpt lat="43.5967036" lon="12.6961411"><ele>524.0</ele><time>2026-03-29T07:50:08.459Z</time></trkpt><trkpt lat="43.5966496" lon="12.6961943"><ele>524.0</ele><time>2026-03-29T07:50:09.46Z</time></trkpt><trkpt lat="43.5965995" lon="12.6962471"><ele>523.5</ele><time>2026-03-29T07:50:10.459Z</time></trkpt><trkpt lat="43.5965101" lon="12.6963644"><ele>523.0</ele><time>2026-03-29T07:50:12.459Z</time></trkpt><trkpt lat="43.5964488" lon="12.6964928"><ele>522.5</ele><time>2026-03-29T07:50:14.459Z</time></trkpt><trkpt lat="43.5964146" lon="12.6966307"><ele>522.0</ele><time>2026-03-29T07:50:16.459Z</time></trkpt><trkpt lat="43.5964056" lon="12.6967896"><ele>522.6666666666666</ele><time>2026-03-29T07:50:18.46Z</time></trkpt><trkpt lat="43.5964153" lon="12.6969558"><ele>523.3333333333334</ele><time>2026-03-29T07:50:20.459Z</time></trkpt><trkpt lat="43.5964444" lon="12.6971232"><ele>524.0</ele><time>2026-03-29T07:50:22.459Z</time></trkpt><trkpt lat="43.5964608" lon="12.6972137"><ele>524.6666666666667</ele><time>2026-03-29T07:50:23.46Z</time></trkpt><trkpt lat="43.596471" lon="12.6973058"><ele>525.3333333333334</ele><time>2026-03-29T07:50:24.459Z</time></trkpt><trkpt lat="43.596483" lon="12.6973936"><ele>526.0</ele><time>2026-03-29T07:50:25.46Z</time></trkpt><trkpt lat="43.5964959" lon="12.6974821"><ele>526.0</ele><time>2026-03-29T07:50:26.459Z</time></trkpt><trkpt lat="43.5965053" lon="12.6975743"><ele>526.0</ele><time>2026-03-29T07:50:27.46Z</time></trkpt><trkpt lat="43.5965043" lon="12.6976659"><ele>526.0</ele><time>2026-03-29T07:50:28.459Z</time></trkpt><trkpt lat="43.596498" lon="12.6977581"><ele>526.0</ele><time>2026-03-29T07:50:29.459Z</time></trkpt><trkpt lat="43.5964757" lon="12.6978538"><ele>526.0</ele><time>2026-03-29T07:50:30.459Z</time></trkpt><trkpt lat="43.5964283" lon="12.6980256"><ele>526.0</ele><time>2026-03-29T07:50:32.459Z</time></trkpt><trkpt lat="43.5963781" lon="12.6980959"><ele>526.0</ele><time>2026-03-29T07:50:33.46Z</time></trkpt><trkpt lat="43.5963367" lon="12.6981831"><ele>526.0</ele><time>2026-03-29T07:50:34.46Z</time></trkpt><trkpt lat="43.5962935" lon="12.6982643"><ele>526.0</ele><time>2026-03-29T07:50:35.46Z</time></trkpt><trkpt lat="43.5962483" lon="12.6983468"><ele>526.0</ele><time>2026-03-29T07:50:36.459Z</time></trkpt><trkpt lat="43.5962099" lon="12.698431"><ele>526.0</ele><time>2026-03-29T07:50:37.46Z</time></trkpt><trkpt lat="43.5961712" lon="12.6985175"><ele>526.0</ele><time>2026-03-29T07:50:38.459Z</time></trkpt><trkpt lat="43.5961375" lon="12.6986081"><ele>526.0</ele><time>2026-03-29T07:50:39.459Z</time></trkpt><trkpt lat="43.5961071" lon="12.6986968"><ele>528.3333333333334</ele><time>2026-03-29T07:50:40.46Z</time></trkpt><trkpt lat="43.596051" lon="12.6988363"><ele>530.6666666666667</ele><time>2026-03-29T07:50:42.46Z</time></trkpt><trkpt lat="43.5960008" lon="12.6989012"><ele>533.0</ele><time>2026-03-29T07:50:43.46Z</time></trkpt><trkpt lat="43.5959218" lon="12.6989495"><ele>535.3333333333334</ele><time>2026-03-29T07:50:44.459Z</time></trkpt><trkpt lat="43.5958667" lon="12.6990016"><ele>537.6666666666666</ele><time>2026-03-29T07:50:45.46Z</time></trkpt><trkpt lat="43.5958095" lon="12.6990561"><ele>540.0</ele><time>2026-03-29T07:50:46.46Z</time></trkpt><trkpt lat="43.5957509" lon="12.6991096"><ele>540.0</ele><time>2026-03-29T07:50:47.459Z</time></trkpt><trkpt lat="43.595688" lon="12.6991607"><ele>540.0</ele><time>2026-03-29T07:50:48.459Z</time></trkpt><trkpt lat="43.5956328" lon="12.6992077"><ele>540.0</ele><time>2026-03-29T07:50:49.459Z</time></trkpt><trkpt lat="43.5955794" lon="12.6992549"><ele>540.0</ele><time>2026-03-29T07:50:50.46Z</time></trkpt><trkpt lat="43.5955244" lon="12.6992997"><ele>540.0</ele><time>2026-03-29T07:50:51.459Z</time></trkpt><trkpt lat="43.595467" lon="12.6993514"><ele>540.0</ele><time>2026-03-29T07:50:52.46Z</time></trkpt><trkpt lat="43.5953981" lon="12.6993857"><ele>540.0</ele><time>2026-03-29T07:50:53.459Z</time></trkpt><trkpt lat="43.5953306" lon="12.6994237"><ele>539.0</ele><time>2026-03-29T07:50:54.46Z</time></trkpt><trkpt lat="43.5952666" lon="12.6994438"><ele>538.0</ele><time>2026-03-29T07:50:55.46Z</time></trkpt><trkpt lat="43.595195" lon="12.6994691"><ele>537.0</ele><time>2026-03-29T07:50:56.459Z</time></trkpt><trkpt lat="43.5951203" lon="12.6994856"><ele>536.0</ele><time>2026-03-29T07:50:57.46Z</time></trkpt><trkpt lat="43.5950446" lon="12.6994947"><ele>535.0</ele><time>2026-03-29T07:50:58.459Z</time></trkpt><trkpt lat="43.594968" lon="12.6994997"><ele>534.0</ele><time>2026-03-29T07:50:59.459Z</time></trkpt><trkpt lat="43.5948947" lon="12.6995121"><ele>533.0</ele><time>2026-03-29T07:51:00.459Z</time></trkpt><trkpt lat="43.5948261" lon="12.6995351"><ele>533.0</ele><time>2026-03-29T07:51:01.459Z</time></trkpt><trkpt lat="43.5947544" lon="12.6995451"><ele>533.0</ele><time>2026-03-29T07:51:02.46Z</time></trkpt><trkpt lat="43.5946861" lon="12.6995562"><ele>533.0</ele><time>2026-03-29T07:51:03.46Z</time></trkpt><trkpt lat="43.5946154" lon="12.699569"><ele>533.0</ele><time>2026-03-29T07:51:04.459Z</time></trkpt><trkpt lat="43.5945413" lon="12.6995845"><ele>533.0</ele><time>2026-03-29T07:51:05.461Z</time></trkpt><trkpt lat="43.5944686" lon="12.6996088"><ele>533.0</ele><time>2026-03-29T07:51:06.459Z</time></trkpt><trkpt lat="43.5943901" lon="12.6996363"><ele>533.0</ele><time>2026-03-29T07:51:07.46Z</time></trkpt><trkpt lat="43.5943153" lon="12.699657"><ele>534.3333333333333</ele><time>2026-03-29T07:51:08.46Z</time></trkpt><trkpt lat="43.5942379" lon="12.6996824"><ele>535.6666666666666</ele><time>2026-03-29T07:51:09.46Z</time></trkpt><trkpt lat="43.5941566" lon="12.6997033"><ele>537.0</ele><time>2026-03-29T07:51:10.461Z</time></trkpt><trkpt lat="43.5940821" lon="12.6997236"><ele>538.3333333333334</ele><time>2026-03-29T07:51:11.459Z</time></trkpt><trkpt lat="43.5940116" lon="12.699749"><ele>539.6666666666667</ele><time>2026-03-29T07:51:12.46Z</time></trkpt><trkpt lat="43.593943" lon="12.6997684"><ele>541.0</ele><time>2026-03-29T07:51:13.459Z</time></trkpt><trkpt lat="43.5938747" lon="12.6997832"><ele>541.0</ele><time>2026-03-29T07:51:14.46Z</time></trkpt><trkpt lat="43.5938083" lon="12.6997966"><ele>541.0</ele><time>2026-03-29T07:51:15.459Z</time></trkpt><trkpt lat="43.5936932" lon="12.6998422"><ele>541.0</ele><time>2026-03-29T07:51:17.459Z</time></trkpt><trkpt lat="43.5936058" lon="12.6999071"><ele>541.0</ele><time>2026-03-29T07:51:19.459Z</time></trkpt><trkpt lat="43.59354" lon="12.6999496"><ele>541.0</ele><time>2026-03-29T07:51:22.46Z</time></trkpt><trkpt lat="43.5935051" lon="12.6998668"><ele>541.0</ele><time>2026-03-29T07:51:25.46Z</time></trkpt><trkpt lat="43.5935055" lon="12.6997661"><ele>543.0</ele><time>2026-03-29T07:51:27.459Z</time></trkpt><trkpt lat="43.5935089" lon="12.6996779"><ele>545.0</ele><time>2026-03-29T07:51:29.459Z</time></trkpt><trkpt lat="43.5934261" lon="12.6996115"><ele>547.0</ele><time>2026-03-29T07:51:32.459Z</time></trkpt><trkpt lat="43.5933601" lon="12.6996941"><ele>549.0</ele><time>2026-03-29T07:51:34.461Z</time></trkpt><trkpt lat="43.5933034" lon="12.699784"><ele>551.0</ele><time>2026-03-29T07:51:36.46Z</time></trkpt><trkpt lat="43.5932391" lon="12.6998914"><ele>553.0</ele><time>2026-03-29T07:51:38.459Z</time></trkpt><trkpt lat="43.5931831" lon="12.6999646"><ele>553.0</ele><time>2026-03-29T07:51:40.459Z</time></trkpt><trkpt lat="43.5931227" lon="12.7000326"><ele>553.0</ele><time>2026-03-29T07:51:42.46Z</time></trkpt><trkpt lat="43.5930381" lon="12.7000799"><ele>553.0</ele><time>2026-03-29T07:51:44.459Z</time></trkpt><trkpt lat="43.5929507" lon="12.7001099"><ele>553.0</ele><time>2026-03-29T07:51:46.459Z</time></trkpt><trkpt lat="43.5928591" lon="12.7001293"><ele>553.0</ele><time>2026-03-29T07:51:48.459Z</time></trkpt><trkpt lat="43.5927718" lon="12.7001365"><ele>553.0</ele><time>2026-03-29T07:51:50.46Z</time></trkpt><trkpt lat="43.5926807" lon="12.7001463"><ele>553.1666666666667</ele><time>2026-03-29T07:51:52.459Z</time></trkpt><trkpt lat="43.5925936" lon="12.7001639"><ele>553.3333333333334</ele><time>2026-03-29T07:51:54.459Z</time></trkpt><trkpt lat="43.5925187" lon="12.7001947"><ele>553.5</ele><time>2026-03-29T07:51:56.46Z</time></trkpt><trkpt lat="43.5924551" lon="12.7002777"><ele>553.6666666666666</ele><time>2026-03-29T07:51:58.459Z</time></trkpt><trkpt lat="43.5924013" lon="12.700371"><ele>553.8333333333333</ele><time>2026-03-29T07:52:00.46Z</time></trkpt><trkpt lat="43.5923582" lon="12.7004786"><ele>554.0</ele><time>2026-03-29T07:52:02.459Z</time></trkpt><trkpt lat="43.5923201" lon="12.7005875"><ele>555.8333333333333</ele><time>2026-03-29T07:52:04.459Z</time></trkpt><trkpt lat="43.5922776" lon="12.7006971"><ele>557.6666666666666</ele><time>2026-03-29T07:52:06.459Z</time></trkpt><trkpt lat="43.5922457" lon="12.7007945"><ele>559.5</ele><time>2026-03-29T07:52:08.459Z</time></trkpt><trkpt lat="43.592215" lon="12.7008998"><ele>561.3333333333334</ele><time>2026-03-29T07:52:10.46Z</time></trkpt><trkpt lat="43.5921723" lon="12.7009958"><ele>563.1666666666667</ele><time>2026-03-29T07:52:12.461Z</time></trkpt><trkpt lat="43.5921347" lon="12.7010987"><ele>565.0</ele><time>2026-03-29T07:52:14.459Z</time></trkpt><trkpt lat="43.5920836" lon="12.7011774"><ele>565.8333333333334</ele><time>2026-03-29T07:52:16.459Z</time></trkpt><trkpt lat="43.5920493" lon="12.7012765"><ele>566.6666666666667</ele><time>2026-03-29T07:52:18.46Z</time></trkpt><trkpt lat="43.5920051" lon="12.7014018"><ele>567.5</ele><time>2026-03-29T07:52:20.459Z</time></trkpt><trkpt lat="43.591968" lon="12.7015126"><ele>568.3333333333334</ele><time>2026-03-29T07:52:22.461Z</time></trkpt><trkpt lat="43.5919507" lon="12.7016071"><ele>569.1666666666666</ele><time>2026-03-29T07:52:24.46Z</time></trkpt><trkpt lat="43.5919353" lon="12.7017157"><ele>570.0</ele><time>2026-03-29T07:52:28.46Z</time></trkpt><trkpt lat="43.5919344" lon="12.7018345"><ele>569.8333333333334</ele><time>2026-03-29T07:52:31.459Z</time></trkpt><trkpt lat="43.5919493" lon="12.7019372"><ele>569.6666666666666</ele><time>2026-03-29T07:52:34.459Z</time></trkpt><trkpt lat="43.5919743" lon="12.702049"><ele>569.5</ele><time>2026-03-29T07:52:37.46Z</time></trkpt><trkpt lat="43.5920097" lon="12.702174"><ele>569.3333333333333</ele><time>2026-03-29T07:52:40.459Z</time></trkpt><trkpt lat="43.5920303" lon="12.7022862"><ele>569.1666666666666</ele><time>2026-03-29T07:52:42.46Z</time></trkpt><trkpt lat="43.5920262" lon="12.7023927"><ele>569.0</ele><time>2026-03-29T07:52:44.459Z</time></trkpt><trkpt lat="43.5919844" lon="12.702487"><ele>572.2</ele><time>2026-03-29T07:52:46.459Z</time></trkpt><trkpt lat="43.591911" lon="12.7025574"><ele>575.4</ele><time>2026-03-29T07:52:48.46Z</time></trkpt><trkpt lat="43.5918337" lon="12.7026279"><ele>578.6</ele><time>2026-03-29T07:52:50.459Z</time></trkpt><trkpt lat="43.5917492" lon="12.7026933"><ele>581.8</ele><time>2026-03-29T07:52:52.459Z</time></trkpt><trkpt lat="43.5916714" lon="12.7027516"><ele>585.0</ele><time>2026-03-29T07:52:54.46Z</time></trkpt><trkpt lat="43.5915955" lon="12.7028208"><ele>585.3333333333334</ele><time>2026-03-29T07:52:56.459Z</time></trkpt><trkpt lat="43.5915427" lon="12.7028965"><ele>585.6666666666666</ele><time>2026-03-29T07:52:58.46Z</time></trkpt><trkpt lat="43.5914538" lon="12.7029594"><ele>586.0</ele><time>2026-03-29T07:53:00.46Z</time></trkpt><trkpt lat="43.5913771" lon="12.7030065"><ele>586.3333333333333</ele><time>2026-03-29T07:53:02.459Z</time></trkpt><trkpt lat="43.5912923" lon="12.7030718"><ele>586.6666666666666</ele><time>2026-03-29T07:53:04.459Z</time></trkpt><trkpt lat="43.591224" lon="12.7031382"><ele>587.0</ele><time>2026-03-29T07:53:06.459Z</time></trkpt><trkpt lat="43.5911428" lon="12.7031892"><ele>588.4</ele><time>2026-03-29T07:53:08.46Z</time></trkpt><trkpt lat="43.5910525" lon="12.7032086"><ele>589.8000000000001</ele><time>2026-03-29T07:53:10.46Z</time></trkpt><trkpt lat="43.5909635" lon="12.7032005"><ele>591.2</ele><time>2026-03-29T07:53:12.459Z</time></trkpt><trkpt lat="43.59086" lon="12.7031816"><ele>592.6</ele><time>2026-03-29T07:53:14.459Z</time></trkpt><trkpt lat="43.5907678" lon="12.7031267"><ele>594.0</ele><time>2026-03-29T07:53:16.46Z</time></trkpt><trkpt lat="43.5906988" lon="12.7030695"><ele>594.0</ele><time>2026-03-29T07:53:18.46Z</time></trkpt><trkpt lat="43.5906144" lon="12.7030032"><ele>594.0</ele><time>2026-03-29T07:53:20.459Z</time></trkpt><trkpt lat="43.5905448" lon="12.7029326"><ele>594.0</ele><time>2026-03-29T07:53:22.459Z</time></trkpt><trkpt lat="43.5904694" lon="12.7028526"><ele>594.0</ele><time>2026-03-29T07:53:24.46Z</time></trkpt><trkpt lat="43.5904025" lon="12.7027831"><ele>594.0</ele><time>2026-03-29T07:53:26.46Z</time></trkpt><trkpt lat="43.5903339" lon="12.7027123"><ele>594.0</ele><time>2026-03-29T07:53:28.46Z</time></trkpt><trkpt lat="43.5902725" lon="12.7026625"><ele>595.4</ele><time>2026-03-29T07:53:32.459Z</time></trkpt><trkpt lat="43.5901922" lon="12.7026566"><ele>596.8</ele><time>2026-03-29T07:53:46.461Z</time></trkpt><trkpt lat="43.5900975" lon="12.7026832"><ele>598.2</ele><time>2026-03-29T07:53:48.459Z</time></trkpt><trkpt lat="43.5899977" lon="12.7026803"><ele>599.6</ele><time>2026-03-29T07:53:50.459Z</time></trkpt><trkpt lat="43.5899083" lon="12.702683"><ele>601.0</ele><time>2026-03-29T07:53:52.461Z</time></trkpt><trkpt lat="43.5898154" lon="12.7026909"><ele>601.0</ele><time>2026-03-29T07:53:54.459Z</time></trkpt><trkpt lat="43.5897222" lon="12.7026794"><ele>601.0</ele><time>2026-03-29T07:53:56.459Z</time></trkpt><trkpt lat="43.5896402" lon="12.7026801"><ele>601.0</ele><time>2026-03-29T07:53:58.461Z</time></trkpt><trkpt lat="43.5895592" lon="12.7026708"><ele>601.0</ele><time>2026-03-29T07:54:00.46Z</time></trkpt><trkpt lat="43.5894701" lon="12.7026633"><ele>601.0</ele><time>2026-03-29T07:54:02.459Z</time></trkpt><trkpt lat="43.5893851" lon="12.7026521"><ele>601.0</ele><time>2026-03-29T07:54:04.459Z</time></trkpt><trkpt lat="43.5892978" lon="12.7026606"><ele>600.1666666666667</ele><time>2026-03-29T07:54:06.459Z</time></trkpt><trkpt lat="43.5892142" lon="12.7026667"><ele>599.3333333333334</ele><time>2026-03-29T07:54:08.459Z</time></trkpt><trkpt lat="43.5891309" lon="12.7026544"><ele>598.5</ele><time>2026-03-29T07:54:10.459Z</time></trkpt><trkpt lat="43.5890639" lon="12.7026093"><ele>597.6666666666666</ele><time>2026-03-29T07:54:12.46Z</time></trkpt><trkpt lat="43.5890174" lon="12.7025489"><ele>596.8333333333333</ele><time>2026-03-29T07:54:14.459Z</time></trkpt><trkpt lat="43.5889614" lon="12.7024689"><ele>596.0</ele><time>2026-03-29T07:54:17.459Z</time></trkpt><trkpt lat="43.5889036" lon="12.7024199"><ele>596.0</ele><time>2026-03-29T07:54:21.459Z</time></trkpt><trkpt lat="43.5888314" lon="12.7024565"><ele>596.0</ele><time>2026-03-29T07:54:34.46Z</time></trkpt><trkpt lat="43.5887359" lon="12.7024355"><ele>596.0</ele><time>2026-03-29T07:54:37.46Z</time></trkpt><trkpt lat="43.5886574" lon="12.70244"><ele>596.0</ele><time>2026-03-29T07:54:39.459Z</time></trkpt><trkpt lat="43.5885876" lon="12.7024557"><ele>596.0</ele><time>2026-03-29T07:54:41.459Z</time></trkpt><trkpt lat="43.5885124" lon="12.7024878"><ele>596.0</ele><time>2026-03-29T07:54:43.461Z</time></trkpt><trkpt lat="43.5884366" lon="12.7025262"><ele>595.6</ele><time>2026-03-29T07:54:45.46Z</time></trkpt><trkpt lat="43.5883591" lon="12.7026167"><ele>595.2</ele><time>2026-03-29T07:54:47.46Z</time></trkpt><trkpt lat="43.5882897" lon="12.7027024"><ele>594.8</ele><time>2026-03-29T07:54:49.46Z</time></trkpt><trkpt lat="43.5881857" lon="12.7027957"><ele>594.4</ele><time>2026-03-29T07:54:51.46Z</time></trkpt><trkpt lat="43.5881054" lon="12.7028534"><ele>594.0</ele><time>2026-03-29T07:54:54.459Z</time></trkpt><trkpt lat="43.5880324" lon="12.702901"><ele>588.4</ele><time>2026-03-29T07:54:56.46Z</time></trkpt><trkpt lat="43.5879457" lon="12.7029388"><ele>582.8</ele><time>2026-03-29T07:54:58.46Z</time></trkpt><trkpt lat="43.5878469" lon="12.7029191"><ele>577.2</ele><time>2026-03-29T07:55:00.459Z</time></trkpt><trkpt lat="43.5877553" lon="12.7028952"><ele>571.6</ele><time>2026-03-29T07:55:02.459Z</time></trkpt><trkpt lat="43.5876293" lon="12.7029296"><ele>566.0</ele><time>2026-03-29T07:55:04.46Z</time></trkpt><trkpt lat="43.5875583" lon="12.7029912"><ele>565.8333333333333</ele><time>2026-03-29T07:55:06.46Z</time></trkpt><trkpt lat="43.5874884" lon="12.7030135"><ele>565.6666666666666</ele><time>2026-03-29T07:55:08.46Z</time></trkpt><trkpt lat="43.5874042" lon="12.7029831"><ele>565.5</ele><time>2026-03-29T07:55:10.461Z</time></trkpt><trkpt lat="43.5873389" lon="12.7029288"><ele>565.3333333333334</ele><time>2026-03-29T07:55:12.459Z</time></trkpt><trkpt lat="43.5872862" lon="12.7028766"><ele>565.1666666666667</ele><time>2026-03-29T07:55:14.459Z</time></trkpt><trkpt lat="43.5872193" lon="12.702821"><ele>565.0</ele><time>2026-03-29T07:55:16.46Z</time></trkpt><trkpt lat="43.5871344" lon="12.7027741"><ele>565.0</ele><time>2026-03-29T07:55:18.459Z</time></trkpt><trkpt lat="43.5870728" lon="12.7027517"><ele>565.0</ele><time>2026-03-29T07:55:19.461Z</time></trkpt><trkpt lat="43.5869864" lon="12.7027558"><ele>565.0</ele><time>2026-03-29T07:55:21.459Z</time></trkpt><trkpt lat="43.5868857" lon="12.7027988"><ele>565.0</ele><time>2026-03-29T07:55:23.46Z</time></trkpt><trkpt lat="43.5867956" lon="12.7028585"><ele>565.0</ele><time>2026-03-29T07:55:25.46Z</time></trkpt><trkpt lat="43.5867029" lon="12.7029338"><ele>563.8333333333334</ele><time>2026-03-29T07:55:27.459Z</time></trkpt><trkpt lat="43.5866136" lon="12.7030153"><ele>562.6666666666667</ele><time>2026-03-29T07:55:29.459Z</time></trkpt><trkpt lat="43.5865276" lon="12.703077"><ele>561.5</ele><time>2026-03-29T07:55:31.46Z</time></trkpt><trkpt lat="43.5864671" lon="12.7031068"><ele>560.3333333333334</ele><time>2026-03-29T07:55:32.459Z</time></trkpt><trkpt lat="43.5864647" lon="12.7030153"><ele>559.1666666666666</ele><time>2026-03-29T07:55:35.46Z</time></trkpt><trkpt lat="43.5863895" lon="12.7030032"><ele>558.0</ele><time>2026-03-29T07:55:37.46Z</time></trkpt><trkpt lat="43.5863466" lon="12.7029357"><ele>557.9999999999999</ele><time>2026-03-29T07:55:39.46Z</time></trkpt><trkpt lat="43.5862878" lon="12.7028689"><ele>558.0</ele><time>2026-03-29T07:55:44.46Z</time></trkpt><trkpt lat="43.5862214" lon="12.7028272"><ele>558.0</ele><time>2026-03-29T07:55:48.459Z</time></trkpt><trkpt lat="43.5861565" lon="12.7028082"><ele>558.0</ele><time>2026-03-29T07:55:50.459Z</time></trkpt><trkpt lat="43.5860939" lon="12.7028205"><ele>558.0</ele><time>2026-03-29T07:55:53.46Z</time></trkpt><trkpt lat="43.5860195" lon="12.7028438"><ele>557.9999999999999</ele><time>2026-03-29T07:55:55.46Z</time></trkpt><trkpt lat="43.5859387" lon="12.7028797"><ele>558.0</ele><time>2026-03-29T07:55:58.46Z</time></trkpt><trkpt lat="43.5858615" lon="12.702887"><ele>559.1666666666666</ele><time>2026-03-29T07:56:15.459Z</time></trkpt><trkpt lat="43.5857738" lon="12.7028359"><ele>560.3333333333334</ele><time>2026-03-29T07:56:19.459Z</time></trkpt><trkpt lat="43.5857136" lon="12.7027952"><ele>561.5</ele><time>2026-03-29T07:56:21.459Z</time></trkpt><trkpt lat="43.58564" lon="12.7027334"><ele>562.6666666666667</ele><time>2026-03-29T07:56:24.46Z</time></trkpt><trkpt lat="43.5855629" lon="12.7026725"><ele>563.8333333333334</ele><time>2026-03-29T07:56:27.459Z</time></trkpt><trkpt lat="43.585495" lon="12.7026102"><ele>565.0</ele><time>2026-03-29T07:56:30.459Z</time></trkpt><trkpt lat="43.5854224" lon="12.7025263"><ele>565.0</ele><time>2026-03-29T07:56:33.46Z</time></trkpt><trkpt lat="43.5853683" lon="12.7024648"><ele>565.0</ele><time>2026-03-29T07:56:35.46Z</time></trkpt><trkpt lat="43.5853108" lon="12.7024096"><ele>565.0</ele><time>2026-03-29T07:56:37.459Z</time></trkpt><trkpt lat="43.5852537" lon="12.7023446"><ele>565.0</ele><time>2026-03-29T07:56:39.459Z</time></trkpt><trkpt lat="43.5851926" lon="12.7022718"><ele>565.0</ele><time>2026-03-29T07:56:41.461Z</time></trkpt><trkpt lat="43.5851301" lon="12.7022017"><ele>565.0</ele><time>2026-03-29T07:56:43.46Z</time></trkpt><trkpt lat="43.5850646" lon="12.7021411"><ele>561.5</ele><time>2026-03-29T07:56:45.459Z</time></trkpt><trkpt lat="43.5849999" lon="12.7020846"><ele>558.0</ele><time>2026-03-29T07:56:47.46Z</time></trkpt><trkpt lat="43.584929" lon="12.7020324"><ele>554.5</ele><time>2026-03-29T07:56:49.46Z</time></trkpt><trkpt lat="43.5848542" lon="12.7019918"><ele>551.0</ele><time>2026-03-29T07:56:51.46Z</time></trkpt><trkpt lat="43.5847815" lon="12.7019657"><ele>547.5</ele><time>2026-03-29T07:56:53.461Z</time></trkpt><trkpt lat="43.5847102" lon="12.7019405"><ele>544.0</ele><time>2026-03-29T07:56:55.459Z</time></trkpt><trkpt lat="43.5846305" lon="12.7019088"><ele>544.0</ele><time>2026-03-29T07:56:57.46Z</time></trkpt><trkpt lat="43.5845491" lon="12.7018714"><ele>544.0</ele><time>2026-03-29T07:56:59.459Z</time></trkpt><trkpt lat="43.5844664" lon="12.7018441"><ele>544.0</ele><time>2026-03-29T07:57:01.46Z</time></trkpt><trkpt lat="43.5843886" lon="12.7018137"><ele>544.0</ele><time>2026-03-29T07:57:03.46Z</time></trkpt><trkpt lat="43.5843124" lon="12.701783"><ele>544.0</ele><time>2026-03-29T07:57:05.459Z</time></trkpt><trkpt lat="43.5842317" lon="12.7017691"><ele>544.0</ele><time>2026-03-29T07:57:07.459Z</time></trkpt><trkpt lat="43.5841519" lon="12.7017809"><ele>539.9999999999999</ele><time>2026-03-29T07:57:09.46Z</time></trkpt><trkpt lat="43.58408" lon="12.7018258"><ele>536.0</ele><time>2026-03-29T07:57:11.459Z</time></trkpt><trkpt lat="43.5840236" lon="12.7018871"><ele>532.0</ele><time>2026-03-29T07:57:13.46Z</time></trkpt><trkpt lat="43.5839749" lon="12.7019582"><ele>528.0</ele><time>2026-03-29T07:57:15.459Z</time></trkpt><trkpt lat="43.5839324" lon="12.702035"><ele>524.0</ele><time>2026-03-29T07:57:17.46Z</time></trkpt><trkpt lat="43.5838902" lon="12.7021078"><ele>519.9999999999999</ele><time>2026-03-29T07:57:19.459Z</time></trkpt><trkpt lat="43.5838498" lon="12.7021828"><ele>516.0</ele><time>2026-03-29T07:57:21.459Z</time></trkpt><trkpt lat="43.5838087" lon="12.7022637"><ele>513.9999999999999</ele><time>2026-03-29T07:57:23.461Z</time></trkpt><trkpt lat="43.5837719" lon="12.7023444"><ele>512.0</ele><time>2026-03-29T07:57:25.459Z</time></trkpt><trkpt lat="43.5837336" lon="12.7024231"><ele>509.99999999999994</ele><time>2026-03-29T07:57:27.461Z</time></trkpt><trkpt lat="43.5836945" lon="12.7025055"><ele>507.99999999999994</ele><time>2026-03-29T07:57:29.459Z</time></trkpt><trkpt lat="43.5836572" lon="12.7025877"><ele>506.0</ele><time>2026-03-29T07:57:31.46Z</time></trkpt><trkpt lat="43.5836185" lon="12.7026612"><ele>503.99999999999994</ele><time>2026-03-29T07:57:33.459Z</time></trkpt><trkpt lat="43.5835609" lon="12.7027525"><ele>501.99999999999994</ele><time>2026-03-29T07:57:36.461Z</time></trkpt><trkpt lat="43.5835088" lon="12.7028097"><ele>498.1666666666667</ele><time>2026-03-29T07:57:38.459Z</time></trkpt><trkpt lat="43.583441" lon="12.7028497"><ele>494.33333333333337</ele><time>2026-03-29T07:57:40.459Z</time></trkpt><trkpt lat="43.5833627" lon="12.7028646"><ele>490.5</ele><time>2026-03-29T07:57:42.459Z</time></trkpt><trkpt lat="43.5832773" lon="12.7028662"><ele>486.66666666666663</ele><time>2026-03-29T07:57:44.46Z</time></trkpt><trkpt lat="43.5831947" lon="12.7028692"><ele>482.8333333333333</ele><time>2026-03-29T07:57:46.459Z</time></trkpt><trkpt lat="43.5831016" lon="12.7028676"><ele>479.0</ele><time>2026-03-29T07:57:48.459Z</time></trkpt><trkpt lat="43.5830086" lon="12.7028687"><ele>479.0</ele><time>2026-03-29T07:57:50.459Z</time></trkpt><trkpt lat="43.5829405" lon="12.7028664"><ele>479.0</ele><time>2026-03-29T07:57:52.461Z</time></trkpt><trkpt lat="43.5828727" lon="12.7028351"><ele>479.0</ele><time>2026-03-29T07:58:02.46Z</time></trkpt><trkpt lat="43.5828657" lon="12.702745"><ele>479.0</ele><time>2026-03-29T07:58:24.459Z</time></trkpt><trkpt lat="43.5827756" lon="12.7028015"><ele>479.0</ele><time>2026-03-29T07:58:41.459Z</time></trkpt><trkpt lat="43.5828291" lon="12.7027463"><ele>479.0</ele><time>2026-03-29T08:00:47.46Z</time></trkpt><trkpt lat="43.5828442" lon="12.7028337"><ele>479.0</ele><time>2026-03-29T08:01:11.459Z</time></trkpt><trkpt lat="43.5827707" lon="12.7028871"><ele>478.3333333333333</ele><time>2026-03-29T08:01:29.461Z</time></trkpt><trkpt lat="43.5826941" lon="12.7028802"><ele>477.66666666666663</ele><time>2026-03-29T08:01:32.459Z</time></trkpt><trkpt lat="43.5826219" lon="12.7028696"><ele>477.0</ele><time>2026-03-29T08:01:35.461Z</time></trkpt><trkpt lat="43.5825581" lon="12.7029179"><ele>476.33333333333337</ele><time>2026-03-29T08:01:38.459Z</time></trkpt><trkpt lat="43.5825142" lon="12.7030313"><ele>475.6666666666667</ele><time>2026-03-29T08:01:41.459Z</time></trkpt><trkpt lat="43.5824872" lon="12.7031352"><ele>475.0</ele><time>2026-03-29T08:01:43.46Z</time></trkpt><trkpt lat="43.5824523" lon="12.7032675"><ele>475.00000000000006</ele><time>2026-03-29T08:01:45.461Z</time></trkpt><trkpt lat="43.5824688" lon="12.7034105"><ele>475.0</ele><time>2026-03-29T08:01:48.459Z</time></trkpt><trkpt lat="43.5825031" lon="12.7035314"><ele>475.0</ele><time>2026-03-29T08:01:51.459Z</time></trkpt><trkpt lat="43.582526" lon="12.7036197"><ele>475.0</ele><time>2026-03-29T08:01:53.46Z</time></trkpt><trkpt lat="43.5825373" lon="12.7037279"><ele>475.00000000000006</ele><time>2026-03-29T08:01:56.459Z</time></trkpt><trkpt lat="43.5825185" lon="12.7036097"><ele>475.0</ele><time>2026-03-29T08:02:10.458Z</time></trkpt><trkpt lat="43.582465" lon="12.7034974"><ele>475.0</ele><time>2026-03-29T08:02:12.459Z</time></trkpt><trkpt lat="43.5824565" lon="12.7033461"><ele>475.0</ele><time>2026-03-29T08:02:14.459Z</time></trkpt><trkpt lat="43.5824815" lon="12.7032564"><ele>475.0</ele><time>2026-03-29T08:02:15.459Z</time></trkpt><trkpt lat="43.5825221" lon="12.7030946"><ele>475.0</ele><time>2026-03-29T08:02:17.459Z</time></trkpt><trkpt lat="43.5825632" lon="12.7029568"><ele>475.0</ele><time>2026-03-29T08:02:19.46Z</time></trkpt><trkpt lat="43.5826294" lon="12.7028837"><ele>475.0</ele><time>2026-03-29T08:02:21.46Z</time></trkpt><trkpt lat="43.5827233" lon="12.7028823"><ele>475.0</ele><time>2026-03-29T08:02:23.459Z</time></trkpt><trkpt lat="43.5828385" lon="12.7028933"><ele>475.0</ele><time>2026-03-29T08:02:25.46Z</time></trkpt><trkpt lat="43.5829544" lon="12.7028919"><ele>475.0</ele><time>2026-03-29T08:02:27.461Z</time></trkpt><trkpt lat="43.5830554" lon="12.7029005"><ele>475.0</ele><time>2026-03-29T08:02:29.46Z</time></trkpt><trkpt lat="43.5831474" lon="12.7029005"><ele>475.8</ele><time>2026-03-29T08:02:31.46Z</time></trkpt><trkpt lat="43.5832587" lon="12.7029036"><ele>476.6</ele><time>2026-03-29T08:02:33.46Z</time></trkpt><trkpt lat="43.5833758" lon="12.7028929"><ele>477.4</ele><time>2026-03-29T08:02:35.46Z</time></trkpt><trkpt lat="43.5834719" lon="12.7028504"><ele>478.2</ele><time>2026-03-29T08:02:37.459Z</time></trkpt><trkpt lat="43.5835568" lon="12.7027714"><ele>479.0</ele><time>2026-03-29T08:02:39.46Z</time></trkpt><trkpt lat="43.5836243" lon="12.7026666"><ele>483.6</ele><time>2026-03-29T08:02:41.46Z</time></trkpt><trkpt lat="43.583689" lon="12.7025378"><ele>488.2</ele><time>2026-03-29T08:02:43.46Z</time></trkpt><trkpt lat="43.5837573" lon="12.7024093"><ele>492.80000000000007</ele><time>2026-03-29T08:02:45.459Z</time></trkpt><trkpt lat="43.5838272" lon="12.7022733"><ele>497.40000000000003</ele><time>2026-03-29T08:02:47.459Z</time></trkpt><trkpt lat="43.5838621" lon="12.7021987"><ele>502.0</ele><time>2026-03-29T08:02:48.458Z</time></trkpt><trkpt lat="43.5839011" lon="12.702129"><ele>502.0</ele><time>2026-03-29T08:02:49.46Z</time></trkpt><trkpt lat="43.5839421" lon="12.7020557"><ele>502.00000000000006</ele><time>2026-03-29T08:02:50.459Z</time></trkpt><trkpt lat="43.5840161" lon="12.7019281"><ele>502.00000000000006</ele><time>2026-03-29T08:02:52.46Z</time></trkpt><trkpt lat="43.5840941" lon="12.701835"><ele>502.0</ele><time>2026-03-29T08:02:54.459Z</time></trkpt><trkpt lat="43.5841991" lon="12.70179"><ele>502.0</ele><time>2026-03-29T08:02:56.461Z</time></trkpt><trkpt lat="43.584319" lon="12.7018085"><ele>504.8</ele><time>2026-03-29T08:02:58.459Z</time></trkpt><trkpt lat="43.5844381" lon="12.7018466"><ele>507.6</ele><time>2026-03-29T08:03:00.46Z</time></trkpt><trkpt lat="43.5845558" lon="12.7019001"><ele>510.40000000000003</ele><time>2026-03-29T08:03:02.458Z</time></trkpt><trkpt lat="43.5846177" lon="12.7019248"><ele>513.2</ele><time>2026-03-29T08:03:03.459Z</time></trkpt><trkpt lat="43.5846929" lon="12.7019613"><ele>516.0</ele><time>2026-03-29T08:03:05.46Z</time></trkpt><trkpt lat="43.5847835" lon="12.7019918"><ele>517.8333333333334</ele><time>2026-03-29T08:03:08.459Z</time></trkpt><trkpt lat="43.5848502" lon="12.7020207"><ele>519.6666666666666</ele><time>2026-03-29T08:03:10.459Z</time></trkpt><trkpt lat="43.5849132" lon="12.7020556"><ele>521.5</ele><time>2026-03-29T08:03:12.459Z</time></trkpt><trkpt lat="43.5849853" lon="12.7021025"><ele>523.3333333333333</ele><time>2026-03-29T08:03:14.459Z</time></trkpt><trkpt lat="43.5850633" lon="12.702176"><ele>525.1666666666666</ele><time>2026-03-29T08:03:16.459Z</time></trkpt><trkpt lat="43.5851565" lon="12.7022429"><ele>527.0</ele><time>2026-03-29T08:03:18.46Z</time></trkpt><trkpt lat="43.5852454" lon="12.7023386"><ele>527.0</ele><time>2026-03-29T08:03:20.461Z</time></trkpt><trkpt lat="43.5853312" lon="12.7024308"><ele>527.0</ele><time>2026-03-29T08:03:22.46Z</time></trkpt><trkpt lat="43.5854151" lon="12.7025093"><ele>527.0</ele><time>2026-03-29T08:03:24.459Z</time></trkpt><trkpt lat="43.5855056" lon="12.7026136"><ele>527.0</ele><time>2026-03-29T08:03:26.46Z</time></trkpt><trkpt lat="43.5856097" lon="12.7027099"><ele>529.6666666666666</ele><time>2026-03-29T08:03:28.46Z</time></trkpt><trkpt lat="43.5856661" lon="12.7027583"><ele>532.3333333333333</ele><time>2026-03-29T08:03:29.459Z</time></trkpt><trkpt lat="43.5857208" lon="12.7028081"><ele>535.0</ele><time>2026-03-29T08:03:30.461Z</time></trkpt><trkpt lat="43.5858083" lon="12.7028825"><ele>537.6666666666666</ele><time>2026-03-29T08:03:32.46Z</time></trkpt><trkpt lat="43.5858837" lon="12.7029039"><ele>540.3333333333334</ele><time>2026-03-29T08:03:35.459Z</time></trkpt><trkpt lat="43.5858884" lon="12.7027864"><ele>543.0</ele><time>2026-03-29T08:03:38.459Z</time></trkpt><trkpt lat="43.5858254" lon="12.7027076"><ele>547.4</ele><time>2026-03-29T08:03:40.458Z</time></trkpt><trkpt lat="43.5857721" lon="12.702601"><ele>551.8</ele><time>2026-03-29T08:03:42.458Z</time></trkpt><trkpt lat="43.5857228" lon="12.7024628"><ele>556.2</ele><time>2026-03-29T08:03:44.459Z</time></trkpt><trkpt lat="43.5856837" lon="12.7023379"><ele>560.6</ele><time>2026-03-29T08:03:46.458Z</time></trkpt><trkpt lat="43.5856484" lon="12.7022234"><ele>565.0</ele><time>2026-03-29T08:03:48.46Z</time></trkpt><trkpt lat="43.5856168" lon="12.7021101"><ele>565.0</ele><time>2026-03-29T08:03:50.459Z</time></trkpt><trkpt lat="43.5856005" lon="12.7019671"><ele>565.0</ele><time>2026-03-29T08:03:52.459Z</time></trkpt><trkpt lat="43.5856217" lon="12.7018199"><ele>565.0</ele><time>2026-03-29T08:03:54.459Z</time></trkpt><trkpt lat="43.5856313" lon="12.7017006"><ele>565.0</ele><time>2026-03-29T08:03:56.458Z</time></trkpt><trkpt lat="43.5856493" lon="12.7015768"><ele>565.0</ele><time>2026-03-29T08:03:58.461Z</time></trkpt><trkpt lat="43.5856536" lon="12.7014571"><ele>567.0</ele><time>2026-03-29T08:04:00.458Z</time></trkpt><trkpt lat="43.585661" lon="12.7013254"><ele>569.0</ele><time>2026-03-29T08:04:02.46Z</time></trkpt><trkpt lat="43.5856663" lon="12.7011643"><ele>571.0</ele><time>2026-03-29T08:04:04.458Z</time></trkpt><trkpt lat="43.5856454" lon="12.701015"><ele>573.0</ele><time>2026-03-29T08:04:06.459Z</time></trkpt><trkpt lat="43.5856313" lon="12.7008617"><ele>575.0</ele><time>2026-03-29T08:04:08.46Z</time></trkpt><trkpt lat="43.5855979" lon="12.7007406"><ele>575.0</ele><time>2026-03-29T08:04:10.46Z</time></trkpt><trkpt lat="43.5855902" lon="12.7006068"><ele>575.0</ele><time>2026-03-29T08:04:12.458Z</time></trkpt><trkpt lat="43.5855944" lon="12.7004722"><ele>575.0</ele><time>2026-03-29T08:04:14.459Z</time></trkpt><trkpt lat="43.5855895" lon="12.7003813"><ele>575.0</ele><time>2026-03-29T08:04:16.46Z</time></trkpt><trkpt lat="43.5856517" lon="12.7003179"><ele>575.0</ele><time>2026-03-29T08:04:19.46Z</time></trkpt><trkpt lat="43.5857275" lon="12.7002917"><ele>575.0</ele><time>2026-03-29T08:04:21.46Z</time></trkpt><trkpt lat="43.5858229" lon="12.7002906"><ele>575.0</ele><time>2026-03-29T08:04:23.459Z</time></trkpt><trkpt lat="43.5859272" lon="12.7002801"><ele>575.0</ele><time>2026-03-29T08:04:25.459Z</time></trkpt><trkpt lat="43.5860384" lon="12.7002506"><ele>575.0</ele><time>2026-03-29T08:04:27.46Z</time></trkpt><trkpt lat="43.5861343" lon="12.7002211"><ele>575.0</ele><time>2026-03-29T08:04:29.459Z</time></trkpt><trkpt lat="43.5862505" lon="12.700198"><ele>575.0</ele><time>2026-03-29T08:04:31.458Z</time></trkpt><trkpt lat="43.5863147" lon="12.7001897"><ele>572.1666666666666</ele><time>2026-03-29T08:04:32.46Z</time></trkpt><trkpt lat="43.5863788" lon="12.7001744"><ele>569.3333333333333</ele><time>2026-03-29T08:04:33.459Z</time></trkpt><trkpt lat="43.586452" lon="12.7001503"><ele>566.5</ele><time>2026-03-29T08:04:34.46Z</time></trkpt><trkpt lat="43.5865179" lon="12.7001281"><ele>563.6666666666666</ele><time>2026-03-29T08:04:35.46Z</time></trkpt><trkpt lat="43.586639" lon="12.7001189"><ele>560.8333333333334</ele><time>2026-03-29T08:04:37.459Z</time></trkpt><trkpt lat="43.5867051" lon="12.7001231"><ele>558.0</ele><time>2026-03-29T08:04:38.459Z</time></trkpt><trkpt lat="43.5867707" lon="12.7001343"><ele>558.0</ele><time>2026-03-29T08:04:39.461Z</time></trkpt><trkpt lat="43.5868712" lon="12.7001355"><ele>558.0</ele><time>2026-03-29T08:04:41.459Z</time></trkpt><trkpt lat="43.5869627" lon="12.7001617"><ele>558.0</ele><time>2026-03-29T08:04:43.46Z</time></trkpt><trkpt lat="43.5870423" lon="12.7002197"><ele>558.0</ele><time>2026-03-29T08:04:45.46Z</time></trkpt><trkpt lat="43.5871245" lon="12.7002811"><ele>558.0</ele><time>2026-03-29T08:04:47.459Z</time></trkpt><trkpt lat="43.5872047" lon="12.700311"><ele>560.5</ele><time>2026-03-29T08:04:49.458Z</time></trkpt><trkpt lat="43.5872999" lon="12.7002529"><ele>563.0</ele><time>2026-03-29T08:04:51.458Z</time></trkpt><trkpt lat="43.5873886" lon="12.700163"><ele>565.5</ele><time>2026-03-29T08:04:53.459Z</time></trkpt><trkpt lat="43.5874931" lon="12.7000575"><ele>568.0</ele><time>2026-03-29T08:04:55.46Z</time></trkpt><trkpt lat="43.5875772" lon="12.6999559"><ele>568.0</ele><time>2026-03-29T08:04:57.459Z</time></trkpt><trkpt lat="43.587677" lon="12.6998674"><ele>568.0</ele><time>2026-03-29T08:04:59.459Z</time></trkpt><trkpt lat="43.5877809" lon="12.6998484"><ele>568.0</ele><time>2026-03-29T08:05:01.459Z</time></trkpt><trkpt lat="43.5878861" lon="12.6998669"><ele>568.0</ele><time>2026-03-29T08:05:03.459Z</time></trkpt><trkpt lat="43.587984" lon="12.6998786"><ele>568.0</ele><time>2026-03-29T08:05:05.461Z</time></trkpt><trkpt lat="43.5880762" lon="12.6998698"><ele>570.8333333333334</ele><time>2026-03-29T08:05:07.458Z</time></trkpt><trkpt lat="43.5881535" lon="12.6998331"><ele>573.6666666666667</ele><time>2026-03-29T08:05:09.461Z</time></trkpt><trkpt lat="43.5882224" lon="12.6997668"><ele>576.5</ele><time>2026-03-29T08:05:11.458Z</time></trkpt><trkpt lat="43.5882976" lon="12.6997069"><ele>579.3333333333334</ele><time>2026-03-29T08:05:13.458Z</time></trkpt><trkpt lat="43.5883622" lon="12.6996667"><ele>582.1666666666666</ele><time>2026-03-29T08:05:15.458Z</time></trkpt><trkpt lat="43.5884331" lon="12.6996875"><ele>585.0</ele><time>2026-03-29T08:05:17.459Z</time></trkpt><trkpt lat="43.5885065" lon="12.699709"><ele>585.0</ele><time>2026-03-29T08:05:19.459Z</time></trkpt><trkpt lat="43.588581" lon="12.6997299"><ele>585.0</ele><time>2026-03-29T08:05:21.459Z</time></trkpt><trkpt lat="43.5886809" lon="12.6997538"><ele>585.0</ele><time>2026-03-29T08:05:23.459Z</time></trkpt><trkpt lat="43.5887494" lon="12.6997546"><ele>585.0</ele><time>2026-03-29T08:05:25.459Z</time></trkpt><trkpt lat="43.5888252" lon="12.6997555"><ele>585.0</ele><time>2026-03-29T08:05:27.458Z</time></trkpt><trkpt lat="43.5889256" lon="12.6997354"><ele>585.0</ele><time>2026-03-29T08:05:29.458Z</time></trkpt><trkpt lat="43.5889928" lon="12.6997023"><ele>583.8</ele><time>2026-03-29T08:05:31.46Z</time></trkpt><trkpt lat="43.5890641" lon="12.6996427"><ele>582.6</ele><time>2026-03-29T08:05:34.46Z</time></trkpt><trkpt lat="43.5891158" lon="12.6995745"><ele>581.4</ele><time>2026-03-29T08:05:36.46Z</time></trkpt><trkpt lat="43.5892073" lon="12.6995128"><ele>580.2</ele><time>2026-03-29T08:05:38.46Z</time></trkpt><trkpt lat="43.5892804" lon="12.6994304"><ele>579.0</ele><time>2026-03-29T08:05:40.46Z</time></trkpt><trkpt lat="43.5893392" lon="12.6993093"><ele>579.0</ele><time>2026-03-29T08:05:43.459Z</time></trkpt><trkpt lat="43.5894006" lon="12.6992401"><ele>579.0</ele><time>2026-03-29T08:05:45.459Z</time></trkpt><trkpt lat="43.5894684" lon="12.6992041"><ele>579.0</ele><time>2026-03-29T08:05:47.46Z</time></trkpt><trkpt lat="43.589559" lon="12.6992362"><ele>579.0</ele><time>2026-03-29T08:05:50.46Z</time></trkpt><trkpt lat="43.58963" lon="12.6993109"><ele>579.0</ele><time>2026-03-29T08:05:52.459Z</time></trkpt><trkpt lat="43.5896954" lon="12.6993809"><ele>579.0</ele><time>2026-03-29T08:05:54.46Z</time></trkpt><trkpt lat="43.5897696" lon="12.6994446"><ele>580.0</ele><time>2026-03-29T08:05:56.459Z</time></trkpt><trkpt lat="43.5898252" lon="12.6995197"><ele>581.0</ele><time>2026-03-29T08:05:58.461Z</time></trkpt><trkpt lat="43.589857" lon="12.6996079"><ele>582.0</ele><time>2026-03-29T08:06:00.459Z</time></trkpt><trkpt lat="43.5898718" lon="12.6997345"><ele>583.0</ele><time>2026-03-29T08:06:03.459Z</time></trkpt><trkpt lat="43.5898848" lon="12.6998631"><ele>584.0</ele><time>2026-03-29T08:06:05.459Z</time></trkpt><trkpt lat="43.5899089" lon="12.6999804"><ele>585.0</ele><time>2026-03-29T08:06:07.459Z</time></trkpt><trkpt lat="43.5899386" lon="12.7000981"><ele>585.0</ele><time>2026-03-29T08:06:09.459Z</time></trkpt><trkpt lat="43.5899875" lon="12.7001584"><ele>585.0</ele><time>2026-03-29T08:06:11.46Z</time></trkpt><trkpt lat="43.5900246" lon="12.7002407"><ele>585.0</ele><time>2026-03-29T08:06:13.458Z</time></trkpt><trkpt lat="43.5900606" lon="12.700366"><ele>585.0</ele><time>2026-03-29T08:06:15.459Z</time></trkpt><trkpt lat="43.5900822" lon="12.7004579"><ele>585.0</ele><time>2026-03-29T08:06:17.459Z</time></trkpt><trkpt lat="43.5901069" lon="12.7005865"><ele>585.0</ele><time>2026-03-29T08:06:19.46Z</time></trkpt><trkpt lat="43.5901686" lon="12.7006595"><ele>587.0</ele><time>2026-03-29T08:06:21.46Z</time></trkpt><trkpt lat="43.5902" lon="12.7007668"><ele>589.0</ele><time>2026-03-29T08:06:23.459Z</time></trkpt><trkpt lat="43.5902285" lon="12.7008947"><ele>591.0</ele><time>2026-03-29T08:06:25.459Z</time></trkpt><trkpt lat="43.5902223" lon="12.700999"><ele>593.0</ele><time>2026-03-29T08:06:36.459Z</time></trkpt><trkpt lat="43.5902703" lon="12.7011342"><ele>595.0</ele><time>2026-03-29T08:06:39.46Z</time></trkpt><trkpt lat="43.5902998" lon="12.7012374"><ele>597.0</ele><time>2026-03-29T08:06:41.46Z</time></trkpt><trkpt lat="43.5903255" lon="12.7013323"><ele>597.6666666666666</ele><time>2026-03-29T08:06:43.458Z</time></trkpt><trkpt lat="43.5903394" lon="12.7014378"><ele>598.3333333333334</ele><time>2026-03-29T08:06:45.46Z</time></trkpt><trkpt lat="43.5903516" lon="12.701551"><ele>599.0</ele><time>2026-03-29T08:06:47.458Z</time></trkpt><trkpt lat="43.5903582" lon="12.7016528"><ele>599.6666666666667</ele><time>2026-03-29T08:06:49.459Z</time></trkpt><trkpt lat="43.5903373" lon="12.7017407"><ele>600.3333333333334</ele><time>2026-03-29T08:06:50.46Z</time></trkpt><trkpt lat="43.5903288" lon="12.7018749"><ele>601.0</ele><time>2026-03-29T08:06:52.46Z</time></trkpt><trkpt lat="43.5903247" lon="12.7020013"><ele>601.0</ele><time>2026-03-29T08:06:54.459Z</time></trkpt><trkpt lat="43.590311" lon="12.7021245"><ele>601.0</ele><time>2026-03-29T08:06:56.46Z</time></trkpt><trkpt lat="43.5902799" lon="12.7022507"><ele>601.0</ele><time>2026-03-29T08:06:58.459Z</time></trkpt><trkpt lat="43.5902752" lon="12.702353"><ele>601.0</ele><time>2026-03-29T08:07:00.46Z</time></trkpt><trkpt lat="43.5902702" lon="12.7024799"><ele>601.0</ele><time>2026-03-29T08:07:02.46Z</time></trkpt><trkpt lat="43.5902525" lon="12.7025801"><ele>601.0</ele><time>2026-03-29T08:07:04.461Z</time></trkpt><trkpt lat="43.5902657" lon="12.7026719"><ele>601.0</ele><time>2026-03-29T08:07:13.459Z</time></trkpt><trkpt lat="43.5903379" lon="12.7027089"><ele>601.0</ele><time>2026-03-29T08:07:23.46Z</time></trkpt><trkpt lat="43.5903939" lon="12.7027584"><ele>601.0</ele><time>2026-03-29T08:07:25.459Z</time></trkpt><trkpt lat="43.5904542" lon="12.7028214"><ele>601.0</ele><time>2026-03-29T08:07:27.459Z</time></trkpt><trkpt lat="43.5905088" lon="12.7028913"><ele>601.0</ele><time>2026-03-29T08:07:29.459Z</time></trkpt><trkpt lat="43.590582" lon="12.7029637"><ele>601.0</ele><time>2026-03-29T08:07:31.46Z</time></trkpt><trkpt lat="43.5906421" lon="12.7030155"><ele>599.8333333333334</ele><time>2026-03-29T08:07:33.46Z</time></trkpt><trkpt lat="43.5907212" lon="12.7030769"><ele>598.6666666666667</ele><time>2026-03-29T08:07:35.459Z</time></trkpt><trkpt lat="43.590807" lon="12.7031407"><ele>597.5</ele><time>2026-03-29T08:07:37.46Z</time></trkpt><trkpt lat="43.5908839" lon="12.7031856"><ele>596.3333333333334</ele><time>2026-03-29T08:07:39.459Z</time></trkpt><trkpt lat="43.5909678" lon="12.7032062"><ele>595.1666666666666</ele><time>2026-03-29T08:07:41.459Z</time></trkpt><trkpt lat="43.5910581" lon="12.703213"><ele>594.0</ele><time>2026-03-29T08:07:43.46Z</time></trkpt><trkpt lat="43.5911438" lon="12.7031893"><ele>592.8333333333334</ele><time>2026-03-29T08:07:45.461Z</time></trkpt><trkpt lat="43.5912184" lon="12.7031392"><ele>591.6666666666666</ele><time>2026-03-29T08:07:47.459Z</time></trkpt><trkpt lat="43.5912822" lon="12.7030894"><ele>590.5</ele><time>2026-03-29T08:07:49.461Z</time></trkpt><trkpt lat="43.5913556" lon="12.7030407"><ele>589.3333333333333</ele><time>2026-03-29T08:07:52.46Z</time></trkpt><trkpt lat="43.5914184" lon="12.7030034"><ele>588.1666666666666</ele><time>2026-03-29T08:07:55.459Z</time></trkpt><trkpt lat="43.5914907" lon="12.7029636"><ele>587.0</ele><time>2026-03-29T08:07:59.46Z</time></trkpt><trkpt lat="43.5915567" lon="12.70292"><ele>587.0</ele><time>2026-03-29T08:08:03.46Z</time></trkpt><trkpt lat="43.591607" lon="12.7028235"><ele>587.0</ele><time>2026-03-29T08:08:07.459Z</time></trkpt><trkpt lat="43.591672" lon="12.7027659"><ele>587.0</ele><time>2026-03-29T08:08:10.46Z</time></trkpt><trkpt lat="43.5917302" lon="12.7027216"><ele>587.0</ele><time>2026-03-29T08:08:12.461Z</time></trkpt><trkpt lat="43.5918018" lon="12.7026691"><ele>587.0</ele><time>2026-03-29T08:08:14.46Z</time></trkpt><trkpt lat="43.5918762" lon="12.702613"><ele>587.0</ele><time>2026-03-29T08:08:16.46Z</time></trkpt><trkpt lat="43.5919508" lon="12.7025456"><ele>586.6666666666666</ele><time>2026-03-29T08:08:18.459Z</time></trkpt><trkpt lat="43.5920076" lon="12.7024681"><ele>586.3333333333333</ele><time>2026-03-29T08:08:20.459Z</time></trkpt><trkpt lat="43.5920315" lon="12.702363"><ele>586.0</ele><time>2026-03-29T08:08:22.459Z</time></trkpt><trkpt lat="43.592026" lon="12.7022446"><ele>585.6666666666666</ele><time>2026-03-29T08:08:24.46Z</time></trkpt><trkpt lat="43.5920086" lon="12.7021329"><ele>585.3333333333334</ele><time>2026-03-29T08:08:26.46Z</time></trkpt><trkpt lat="43.591984" lon="12.702028"><ele>585.0</ele><time>2026-03-29T08:08:28.46Z</time></trkpt><trkpt lat="43.5919676" lon="12.7019175"><ele>582.8333333333334</ele><time>2026-03-29T08:08:30.46Z</time></trkpt><trkpt lat="43.5919517" lon="12.7017897"><ele>580.6666666666666</ele><time>2026-03-29T08:08:32.459Z</time></trkpt><trkpt lat="43.5919478" lon="12.7016648"><ele>578.5</ele><time>2026-03-29T08:08:34.46Z</time></trkpt><trkpt lat="43.5919601" lon="12.7015682"><ele>576.3333333333333</ele><time>2026-03-29T08:08:37.46Z</time></trkpt><trkpt lat="43.5919831" lon="12.7014847"><ele>574.1666666666666</ele><time>2026-03-29T08:08:59.459Z</time></trkpt><trkpt lat="43.5920064" lon="12.7013999"><ele>572.0</ele><time>2026-03-29T08:09:02.459Z</time></trkpt><trkpt lat="43.592038" lon="12.7013041"><ele>571.6666666666666</ele><time>2026-03-29T08:09:05.46Z</time></trkpt><trkpt lat="43.5920695" lon="12.7012109"><ele>571.3333333333333</ele><time>2026-03-29T08:09:08.46Z</time></trkpt><trkpt lat="43.592122" lon="12.7011214"><ele>571.0</ele><time>2026-03-29T08:09:12.46Z</time></trkpt><trkpt lat="43.5921745" lon="12.7010128"><ele>570.6666666666666</ele><time>2026-03-29T08:09:15.459Z</time></trkpt><trkpt lat="43.592211" lon="12.7009328"><ele>570.3333333333334</ele><time>2026-03-29T08:09:17.46Z</time></trkpt><trkpt lat="43.5922413" lon="12.7008519"><ele>570.0</ele><time>2026-03-29T08:09:19.46Z</time></trkpt><trkpt lat="43.5922653" lon="12.7007541"><ele>569.2857142857142</ele><time>2026-03-29T08:09:22.459Z</time></trkpt><trkpt lat="43.5922932" lon="12.7006748"><ele>568.5714285714286</ele><time>2026-03-29T08:09:24.46Z</time></trkpt><trkpt lat="43.5923281" lon="12.7005948"><ele>567.8571428571429</ele><time>2026-03-29T08:09:26.46Z</time></trkpt><trkpt lat="43.5923622" lon="12.7005182"><ele>567.1428571428571</ele><time>2026-03-29T08:09:28.46Z</time></trkpt><trkpt lat="43.5924001" lon="12.7004383"><ele>566.4285714285714</ele><time>2026-03-29T08:09:30.46Z</time></trkpt><trkpt lat="43.5924446" lon="12.7003545"><ele>565.7142857142857</ele><time>2026-03-29T08:09:33.459Z</time></trkpt><trkpt lat="43.5924811" lon="12.7002723"><ele>565.0</ele><time>2026-03-29T08:09:36.459Z</time></trkpt><trkpt lat="43.592549" lon="12.7001884"><ele>562.8</ele><time>2026-03-29T08:09:39.46Z</time></trkpt><trkpt lat="43.592629" lon="12.7001655"><ele>560.6</ele><time>2026-03-29T08:09:41.46Z</time></trkpt><trkpt lat="43.5927267" lon="12.7001549"><ele>558.4</ele><time>2026-03-29T08:09:43.459Z</time></trkpt><trkpt lat="43.592821" lon="12.7001462"><ele>556.2</ele><time>2026-03-29T08:09:45.461Z</time></trkpt><trkpt lat="43.5929139" lon="12.700128"><ele>554.0</ele><time>2026-03-29T08:09:47.46Z</time></trkpt><trkpt lat="43.5930129" lon="12.7000994"><ele>553.8571428571429</ele><time>2026-03-29T08:09:49.461Z</time></trkpt><trkpt lat="43.5930968" lon="12.7000763"><ele>553.7142857142857</ele><time>2026-03-29T08:09:51.459Z</time></trkpt><trkpt lat="43.5931596" lon="12.700039"><ele>553.5714285714286</ele><time>2026-03-29T08:09:53.459Z</time></trkpt><trkpt lat="43.5932074" lon="12.6999723"><ele>553.4285714285714</ele><time>2026-03-29T08:09:56.459Z</time></trkpt><trkpt lat="43.5932707" lon="12.6998877"><ele>553.2857142857142</ele><time>2026-03-29T08:09:59.459Z</time></trkpt><trkpt lat="43.5933036" lon="12.699809"><ele>553.1428571428571</ele><time>2026-03-29T08:10:01.46Z</time></trkpt><trkpt lat="43.5933389" lon="12.6997342"><ele>553.0</ele><time>2026-03-29T08:10:03.459Z</time></trkpt><trkpt lat="43.5933833" lon="12.6996713"><ele>553.0</ele><time>2026-03-29T08:10:05.459Z</time></trkpt><trkpt lat="43.593457" lon="12.6996262"><ele>553.0</ele><time>2026-03-29T08:10:08.459Z</time></trkpt><trkpt lat="43.5935202" lon="12.6996514"><ele>553.0</ele><time>2026-03-29T08:10:13.46Z</time></trkpt><trkpt lat="43.5935251" lon="12.6997422"><ele>553.0</ele><time>2026-03-29T08:10:16.459Z</time></trkpt><trkpt lat="43.5935233" lon="12.6998399"><ele>553.0</ele><time>2026-03-29T08:10:18.46Z</time></trkpt><trkpt lat="43.593522" lon="12.6999337"><ele>553.0</ele><time>2026-03-29T08:10:20.461Z</time></trkpt><trkpt lat="43.5935138" lon="12.7000469"><ele>553.0</ele><time>2026-03-29T08:10:27.46Z</time></trkpt><trkpt lat="43.5934628" lon="12.7001381"><ele>551.8333333333334</ele><time>2026-03-29T08:10:29.46Z</time></trkpt><trkpt lat="43.5934006" lon="12.70026"><ele>550.6666666666667</ele><time>2026-03-29T08:10:31.459Z</time></trkpt><trkpt lat="43.593328" lon="12.7003955"><ele>549.5</ele><time>2026-03-29T08:10:33.46Z</time></trkpt><trkpt lat="43.5932931" lon="12.70047"><ele>548.3333333333334</ele><time>2026-03-29T08:10:34.459Z</time></trkpt><trkpt lat="43.5932597" lon="12.7005464"><ele>547.1666666666666</ele><time>2026-03-29T08:10:35.459Z</time></trkpt><trkpt lat="43.5932283" lon="12.7006245"><ele>546.0</ele><time>2026-03-29T08:10:36.459Z</time></trkpt><trkpt lat="43.5931957" lon="12.7007081"><ele>546.0</ele><time>2026-03-29T08:10:37.46Z</time></trkpt><trkpt lat="43.5931601" lon="12.7007999"><ele>546.0</ele><time>2026-03-29T08:10:38.46Z</time></trkpt><trkpt lat="43.593125" lon="12.7008941"><ele>546.0</ele><time>2026-03-29T08:10:39.459Z</time></trkpt><trkpt lat="43.5930868" lon="12.7009942"><ele>546.0</ele><time>2026-03-29T08:10:40.459Z</time></trkpt><trkpt lat="43.5930535" lon="12.7010928"><ele>546.0</ele><time>2026-03-29T08:10:41.46Z</time></trkpt><trkpt lat="43.5930185" lon="12.7011902"><ele>546.0</ele><time>2026-03-29T08:10:42.46Z</time></trkpt><trkpt lat="43.5929805" lon="12.7012719"><ele>544.8</ele><time>2026-03-29T08:10:43.459Z</time></trkpt><trkpt lat="43.592947" lon="12.7013648"><ele>543.6</ele><time>2026-03-29T08:10:44.459Z</time></trkpt><trkpt lat="43.5929245" lon="12.7014718"><ele>542.4</ele><time>2026-03-29T08:10:45.459Z</time></trkpt><trkpt lat="43.5929095" lon="12.7016065"><ele>541.2</ele><time>2026-03-29T08:10:46.459Z</time></trkpt><trkpt lat="43.5928965" lon="12.7017453"><ele>540.0</ele><time>2026-03-29T08:10:47.46Z</time></trkpt><trkpt lat="43.592888" lon="12.7018843"><ele>539.0</ele><time>2026-03-29T08:10:48.46Z</time></trkpt><trkpt lat="43.592867" lon="12.7020203"><ele>538.0</ele><time>2026-03-29T08:10:49.46Z</time></trkpt><trkpt lat="43.5928484" lon="12.7021411"><ele>537.0</ele><time>2026-03-29T08:10:50.459Z</time></trkpt><trkpt lat="43.5928173" lon="12.7022657"><ele>536.0</ele><time>2026-03-29T08:10:51.461Z</time></trkpt><trkpt lat="43.5927836" lon="12.7023849"><ele>535.0</ele><time>2026-03-29T08:10:52.46Z</time></trkpt><trkpt lat="43.5927506" lon="12.702499"><ele>540.4</ele><time>2026-03-29T08:10:53.459Z</time></trkpt><trkpt lat="43.5927087" lon="12.7026181"><ele>545.8</ele><time>2026-03-29T08:10:54.459Z</time></trkpt><trkpt lat="43.5926676" lon="12.7027353"><ele>551.2</ele><time>2026-03-29T08:10:55.46Z</time></trkpt><trkpt lat="43.5926316" lon="12.7028478"><ele>556.6</ele><time>2026-03-29T08:10:56.459Z</time></trkpt><trkpt lat="43.5925877" lon="12.7029562"><ele>562.0</ele><time>2026-03-29T08:10:57.459Z</time></trkpt><trkpt lat="43.592552" lon="12.7030676"><ele>562.0</ele><time>2026-03-29T08:10:58.46Z</time></trkpt><trkpt lat="43.5925162" lon="12.703192"><ele>562.0</ele><time>2026-03-29T08:10:59.46Z</time></trkpt><trkpt lat="43.5924978" lon="12.7033127"><ele>562.0</ele><time>2026-03-29T08:11:00.459Z</time></trkpt><trkpt lat="43.5924816" lon="12.7034415"><ele>562.0</ele><time>2026-03-29T08:11:01.46Z</time></trkpt><trkpt lat="43.5924639" lon="12.7035829"><ele>562.0</ele><time>2026-03-29T08:11:02.461Z</time></trkpt><trkpt lat="43.5924557" lon="12.7037079"><ele>560.4</ele><time>2026-03-29T08:11:03.46Z</time></trkpt><trkpt lat="43.5924322" lon="12.7038528"><ele>558.8000000000001</ele><time>2026-03-29T08:11:04.459Z</time></trkpt><trkpt lat="43.5924149" lon="12.703982"><ele>557.2</ele><time>2026-03-29T08:11:05.459Z</time></trkpt><trkpt lat="43.5923929" lon="12.7041054"><ele>555.6</ele><time>2026-03-29T08:11:06.46Z</time></trkpt><trkpt lat="43.5923674" lon="12.7042226"><ele>554.0</ele><time>2026-03-29T08:11:07.459Z</time></trkpt><trkpt lat="43.5923369" lon="12.7043329"><ele>551.3333333333333</ele><time>2026-03-29T08:11:08.459Z</time></trkpt><trkpt lat="43.5923043" lon="12.7044278"><ele>548.6666666666666</ele><time>2026-03-29T08:11:09.461Z</time></trkpt><trkpt lat="43.5922493" lon="12.7044947"><ele>546.0</ele><time>2026-03-29T08:11:10.46Z</time></trkpt><trkpt lat="43.5921909" lon="12.7045656"><ele>543.3333333333334</ele><time>2026-03-29T08:11:11.46Z</time></trkpt><trkpt lat="43.5921244" lon="12.7046382"><ele>540.6666666666667</ele><time>2026-03-29T08:11:12.461Z</time></trkpt><trkpt lat="43.5920632" lon="12.7047223"><ele>538.0</ele><time>2026-03-29T08:11:13.459Z</time></trkpt><trkpt lat="43.5920116" lon="12.7048215"><ele>540.4</ele><time>2026-03-29T08:11:14.46Z</time></trkpt><trkpt lat="43.5919619" lon="12.7049308"><ele>542.8</ele><time>2026-03-29T08:11:15.46Z</time></trkpt><trkpt lat="43.5919102" lon="12.7050494"><ele>545.2</ele><time>2026-03-29T08:11:16.459Z</time></trkpt><trkpt lat="43.5918556" lon="12.7051604"><ele>547.6</ele><time>2026-03-29T08:11:17.46Z</time></trkpt><trkpt lat="43.591804" lon="12.705253"><ele>550.0</ele><time>2026-03-29T08:11:18.459Z</time></trkpt><trkpt lat="43.5917422" lon="12.7053389"><ele>550.0</ele><time>2026-03-29T08:11:19.46Z</time></trkpt><trkpt lat="43.5916735" lon="12.7054193"><ele>550.0</ele><time>2026-03-29T08:11:20.46Z</time></trkpt><trkpt lat="43.5916044" lon="12.7054937"><ele>550.0</ele><time>2026-03-29T08:11:21.461Z</time></trkpt><trkpt lat="43.5915384" lon="12.7055745"><ele>550.0</ele><time>2026-03-29T08:11:22.46Z</time></trkpt><trkpt lat="43.5914843" lon="12.7056665"><ele>550.0</ele><time>2026-03-29T08:11:23.46Z</time></trkpt><trkpt lat="43.5914297" lon="12.7057596"><ele>550.0</ele><time>2026-03-29T08:11:24.459Z</time></trkpt><trkpt lat="43.5913782" lon="12.7058443"><ele>550.0</ele><time>2026-03-29T08:11:25.46Z</time></trkpt><trkpt lat="43.5913284" lon="12.7059406"><ele>550.0</ele><time>2026-03-29T08:11:26.46Z</time></trkpt><trkpt lat="43.5912913" lon="12.7060415"><ele>550.0</ele><time>2026-03-29T08:11:27.459Z</time></trkpt><trkpt lat="43.5912667" lon="12.7061481"><ele>550.0</ele><time>2026-03-29T08:11:28.459Z</time></trkpt><trkpt lat="43.5912545" lon="12.7062579"><ele>550.0</ele><time>2026-03-29T08:11:29.461Z</time></trkpt><trkpt lat="43.5912415" lon="12.7063697"><ele>550.0</ele><time>2026-03-29T08:11:30.461Z</time></trkpt><trkpt lat="43.5912295" lon="12.7064773"><ele>550.4285714285714</ele><time>2026-03-29T08:11:31.46Z</time></trkpt><trkpt lat="43.5912101" lon="12.7065803"><ele>550.8571428571429</ele><time>2026-03-29T08:11:32.461Z</time></trkpt><trkpt lat="43.5911886" lon="12.7066814"><ele>551.2857142857142</ele><time>2026-03-29T08:11:33.46Z</time></trkpt><trkpt lat="43.5911751" lon="12.7067772"><ele>551.7142857142858</ele><time>2026-03-29T08:11:34.46Z</time></trkpt><trkpt lat="43.5911619" lon="12.7068735"><ele>552.1428571428571</ele><time>2026-03-29T08:11:35.459Z</time></trkpt><trkpt lat="43.5911541" lon="12.7069644"><ele>552.5714285714286</ele><time>2026-03-29T08:11:36.46Z</time></trkpt><trkpt lat="43.591141" lon="12.7070597"><ele>553.0</ele><time>2026-03-29T08:11:37.459Z</time></trkpt><trkpt lat="43.5911325" lon="12.707154"><ele>553.0</ele><time>2026-03-29T08:11:38.459Z</time></trkpt><trkpt lat="43.5911231" lon="12.7072405"><ele>553.0</ele><time>2026-03-29T08:11:39.459Z</time></trkpt><trkpt lat="43.5911206" lon="12.7073337"><ele>553.0</ele><time>2026-03-29T08:11:40.46Z</time></trkpt><trkpt lat="43.5911367" lon="12.7074965"><ele>553.0</ele><time>2026-03-29T08:11:42.459Z</time></trkpt><trkpt lat="43.5911349" lon="12.7075853"><ele>553.0</ele><time>2026-03-29T08:11:43.46Z</time></trkpt><trkpt lat="43.5911322" lon="12.7076723"><ele>553.0</ele><time>2026-03-29T08:11:44.459Z</time></trkpt><trkpt lat="43.5911444" lon="12.7077599"><ele>553.0</ele><time>2026-03-29T08:11:45.46Z</time></trkpt><trkpt lat="43.5911702" lon="12.7079029"><ele>549.0</ele><time>2026-03-29T08:11:47.459Z</time></trkpt><trkpt lat="43.5911587" lon="12.7080569"><ele>545.0</ele><time>2026-03-29T08:11:49.46Z</time></trkpt><trkpt lat="43.5910882" lon="12.7081814"><ele>541.0</ele><time>2026-03-29T08:11:51.459Z</time></trkpt><trkpt lat="43.590988" lon="12.708271"><ele>537.0</ele><time>2026-03-29T08:11:53.46Z</time></trkpt><trkpt lat="43.5908642" lon="12.7083124"><ele>537.0</ele><time>2026-03-29T08:11:55.459Z</time></trkpt><trkpt lat="43.5907937" lon="12.7083177"><ele>537.0</ele><time>2026-03-29T08:11:56.459Z</time></trkpt><trkpt lat="43.590725" lon="12.7083187"><ele>537.0</ele><time>2026-03-29T08:11:57.459Z</time></trkpt><trkpt lat="43.5905974" lon="12.7083151"><ele>537.0</ele><time>2026-03-29T08:11:59.459Z</time></trkpt><trkpt lat="43.5905313" lon="12.7083279"><ele>537.0</ele><time>2026-03-29T08:12:00.46Z</time></trkpt><trkpt lat="43.5904257" lon="12.7084134"><ele>536.9999999999999</ele><time>2026-03-29T08:12:02.459Z</time></trkpt><trkpt lat="43.5903831" lon="12.7084787"><ele>537.0</ele><time>2026-03-29T08:12:03.461Z</time></trkpt><trkpt lat="43.5903468" lon="12.7085499"><ele>537.0</ele><time>2026-03-29T08:12:04.459Z</time></trkpt><trkpt lat="43.5903157" lon="12.7086346"><ele>537.0</ele><time>2026-03-29T08:12:05.459Z</time></trkpt><trkpt lat="43.5902891" lon="12.7087175"><ele>537.0</ele><time>2026-03-29T08:12:06.459Z</time></trkpt><trkpt lat="43.5902607" lon="12.7088198"><ele>536.9999999999999</ele><time>2026-03-29T08:12:07.459Z</time></trkpt><trkpt lat="43.590241" lon="12.7089197"><ele>537.0</ele><time>2026-03-29T08:12:08.459Z</time></trkpt><trkpt lat="43.5902265" lon="12.7090173"><ele>536.0</ele><time>2026-03-29T08:12:09.459Z</time></trkpt><trkpt lat="43.5902087" lon="12.7091234"><ele>535.0</ele><time>2026-03-29T08:12:10.46Z</time></trkpt><trkpt lat="43.5901911" lon="12.7092263"><ele>534.0</ele><time>2026-03-29T08:12:11.462Z</time></trkpt><trkpt lat="43.5901756" lon="12.7093317"><ele>533.0</ele><time>2026-03-29T08:12:12.46Z</time></trkpt><trkpt lat="43.5901598" lon="12.7094302"><ele>532.0</ele><time>2026-03-29T08:12:13.46Z</time></trkpt><trkpt lat="43.5901494" lon="12.70952"><ele>531.0</ele><time>2026-03-29T08:12:14.459Z</time></trkpt><trkpt lat="43.5900957" lon="12.7096723"><ele>529.8571428571429</ele><time>2026-03-29T08:12:16.46Z</time></trkpt><trkpt lat="43.5900199" lon="12.7097987"><ele>528.7142857142858</ele><time>2026-03-29T08:12:18.46Z</time></trkpt><trkpt lat="43.5899713" lon="12.7098552"><ele>527.5714285714286</ele><time>2026-03-29T08:12:19.46Z</time></trkpt><trkpt lat="43.5899185" lon="12.7099037"><ele>526.4285714285714</ele><time>2026-03-29T08:12:20.461Z</time></trkpt><trkpt lat="43.5898631" lon="12.7099507"><ele>525.2857142857142</ele><time>2026-03-29T08:12:21.46Z</time></trkpt><trkpt lat="43.5898047" lon="12.7099991"><ele>524.1428571428571</ele><time>2026-03-29T08:12:22.459Z</time></trkpt><trkpt lat="43.5897472" lon="12.710044"><ele>523.0</ele><time>2026-03-29T08:12:23.459Z</time></trkpt><trkpt lat="43.5896939" lon="12.7100942"><ele>523.0</ele><time>2026-03-29T08:12:24.459Z</time></trkpt><trkpt lat="43.5896425" lon="12.7101459"><ele>523.0</ele><time>2026-03-29T08:12:25.459Z</time></trkpt><trkpt lat="43.5895487" lon="12.7102606"><ele>523.0</ele><time>2026-03-29T08:12:27.461Z</time></trkpt><trkpt lat="43.5894799" lon="12.7103976"><ele>523.0</ele><time>2026-03-29T08:12:29.46Z</time></trkpt><trkpt lat="43.5894252" lon="12.7105534"><ele>523.0</ele><time>2026-03-29T08:12:31.461Z</time></trkpt><trkpt lat="43.5893969" lon="12.7106343"><ele>522.1666666666667</ele><time>2026-03-29T08:12:32.461Z</time></trkpt><trkpt lat="43.5893732" lon="12.710721"><ele>521.3333333333334</ele><time>2026-03-29T08:12:33.461Z</time></trkpt><trkpt lat="43.5893172" lon="12.7108741"><ele>520.5</ele><time>2026-03-29T08:12:35.46Z</time></trkpt><trkpt lat="43.5892764" lon="12.7109481"><ele>519.6666666666666</ele><time>2026-03-29T08:12:36.46Z</time></trkpt><trkpt lat="43.5892302" lon="12.7110149"><ele>518.8333333333333</ele><time>2026-03-29T08:12:37.459Z</time></trkpt><trkpt lat="43.589165" lon="12.7110665"><ele>518.0</ele><time>2026-03-29T08:12:38.459Z</time></trkpt><trkpt lat="43.5891043" lon="12.7110965"><ele>515.8333333333333</ele><time>2026-03-29T08:12:39.46Z</time></trkpt><trkpt lat="43.5890387" lon="12.7111188"><ele>513.6666666666666</ele><time>2026-03-29T08:12:40.459Z</time></trkpt><trkpt lat="43.5889735" lon="12.7111327"><ele>511.5</ele><time>2026-03-29T08:12:41.459Z</time></trkpt><trkpt lat="43.5889034" lon="12.711147"><ele>509.33333333333337</ele><time>2026-03-29T08:12:42.459Z</time></trkpt><trkpt lat="43.5888337" lon="12.7111567"><ele>507.1666666666667</ele><time>2026-03-29T08:12:43.46Z</time></trkpt><trkpt lat="43.5887" lon="12.7111733"><ele>505.0</ele><time>2026-03-29T08:12:45.459Z</time></trkpt><trkpt lat="43.5886331" lon="12.711178"><ele>505.00000000000006</ele><time>2026-03-29T08:12:46.461Z</time></trkpt><trkpt lat="43.5885682" lon="12.711188"><ele>505.0</ele><time>2026-03-29T08:12:47.46Z</time></trkpt><trkpt lat="43.5884429" lon="12.7112432"><ele>505.0</ele><time>2026-03-29T08:12:49.46Z</time></trkpt><trkpt lat="43.5883776" lon="12.7112833"><ele>505.0</ele><time>2026-03-29T08:12:50.459Z</time></trkpt><trkpt lat="43.5883193" lon="12.7113323"><ele>505.00000000000006</ele><time>2026-03-29T08:12:51.459Z</time></trkpt><trkpt lat="43.5882697" lon="12.7113876"><ele>505.0</ele><time>2026-03-29T08:12:52.46Z</time></trkpt><trkpt lat="43.5881926" lon="12.7115182"><ele>505.00000000000006</ele><time>2026-03-29T08:12:54.46Z</time></trkpt><trkpt lat="43.5881611" lon="12.7116015"><ele>505.0</ele><time>2026-03-29T08:12:55.46Z</time></trkpt><trkpt lat="43.5881338" lon="12.7116951"><ele>505.0</ele><time>2026-03-29T08:12:56.459Z</time></trkpt><trkpt lat="43.5881094" lon="12.7118024"><ele>505.0</ele><time>2026-03-29T08:12:57.459Z</time></trkpt><trkpt lat="43.5880879" lon="12.7119076"><ele>505.00000000000006</ele><time>2026-03-29T08:12:58.459Z</time></trkpt><trkpt lat="43.588075" lon="12.7120309"><ele>505.0</ele><time>2026-03-29T08:12:59.459Z</time></trkpt><trkpt lat="43.5880665" lon="12.7121497"><ele>503.6666666666667</ele><time>2026-03-29T08:13:00.46Z</time></trkpt><trkpt lat="43.5880594" lon="12.7122668"><ele>502.33333333333337</ele><time>2026-03-29T08:13:01.459Z</time></trkpt><trkpt lat="43.5880423" lon="12.7123878"><ele>501.0</ele><time>2026-03-29T08:13:02.459Z</time></trkpt><trkpt lat="43.5880158" lon="12.7125132"><ele>499.66666666666663</ele><time>2026-03-29T08:13:03.459Z</time></trkpt><trkpt lat="43.5879909" lon="12.712629"><ele>498.3333333333333</ele><time>2026-03-29T08:13:04.459Z</time></trkpt><trkpt lat="43.5879666" lon="12.7127373"><ele>497.0</ele><time>2026-03-29T08:13:05.459Z</time></trkpt><trkpt lat="43.587949" lon="12.712844"><ele>496.3333333333333</ele><time>2026-03-29T08:13:06.459Z</time></trkpt><trkpt lat="43.5879407" lon="12.7129561"><ele>495.66666666666663</ele><time>2026-03-29T08:13:07.459Z</time></trkpt><trkpt lat="43.587941" lon="12.7130629"><ele>495.0</ele><time>2026-03-29T08:13:08.46Z</time></trkpt><trkpt lat="43.5879366" lon="12.7131753"><ele>494.33333333333337</ele><time>2026-03-29T08:13:09.46Z</time></trkpt><trkpt lat="43.5879275" lon="12.7132707"><ele>493.6666666666667</ele><time>2026-03-29T08:13:10.46Z</time></trkpt><trkpt lat="43.5879272" lon="12.7134353"><ele>493.0</ele><time>2026-03-29T08:13:12.461Z</time></trkpt><trkpt lat="43.5879349" lon="12.7135848"><ele>493.0</ele><time>2026-03-29T08:13:14.459Z</time></trkpt><trkpt lat="43.5879588" lon="12.7137434"><ele>492.99999999999994</ele><time>2026-03-29T08:13:16.46Z</time></trkpt><trkpt lat="43.5879748" lon="12.7138904"><ele>492.99999999999994</ele><time>2026-03-29T08:13:18.459Z</time></trkpt><trkpt lat="43.5879515" lon="12.7139924"><ele>493.0</ele><time>2026-03-29T08:13:20.459Z</time></trkpt><trkpt lat="43.5878779" lon="12.7140255"><ele>493.0</ele><time>2026-03-29T08:13:22.459Z</time></trkpt><trkpt lat="43.5877768" lon="12.7139966"><ele>493.59999999999997</ele><time>2026-03-29T08:13:24.46Z</time></trkpt><trkpt lat="43.5876674" lon="12.7139817"><ele>494.19999999999993</ele><time>2026-03-29T08:13:26.46Z</time></trkpt><trkpt lat="43.5875448" lon="12.7139565"><ele>494.8</ele><time>2026-03-29T08:13:28.461Z</time></trkpt><trkpt lat="43.5874273" lon="12.7139058"><ele>495.4</ele><time>2026-03-29T08:13:30.459Z</time></trkpt><trkpt lat="43.587365" lon="12.7138811"><ele>496.0</ele><time>2026-03-29T08:13:31.46Z</time></trkpt><trkpt lat="43.587255" lon="12.7138508"><ele>496.0</ele><time>2026-03-29T08:13:33.459Z</time></trkpt><trkpt lat="43.587145" lon="12.7139007"><ele>496.0</ele><time>2026-03-29T08:13:35.459Z</time></trkpt><trkpt lat="43.5870733" lon="12.7140012"><ele>496.0</ele><time>2026-03-29T08:13:37.46Z</time></trkpt><trkpt lat="43.5870327" lon="12.7141546"><ele>496.0</ele><time>2026-03-29T08:13:39.46Z</time></trkpt><trkpt lat="43.5870177" lon="12.7142487"><ele>496.0</ele><time>2026-03-29T08:13:40.459Z</time></trkpt><trkpt lat="43.5869981" lon="12.7143319"><ele>490.4</ele><time>2026-03-29T08:13:41.459Z</time></trkpt><trkpt lat="43.5869712" lon="12.7144786"><ele>484.8</ele><time>2026-03-29T08:13:43.459Z</time></trkpt><trkpt lat="43.58693" lon="12.7145927"><ele>479.19999999999993</ele><time>2026-03-29T08:13:45.46Z</time></trkpt><trkpt lat="43.5868341" lon="12.7146557"><ele>473.59999999999997</ele><time>2026-03-29T08:13:47.461Z</time></trkpt><trkpt lat="43.5867396" lon="12.7146115"><ele>468.0</ele><time>2026-03-29T08:13:49.461Z</time></trkpt><trkpt lat="43.5866485" lon="12.7144962"><ele>468.0</ele><time>2026-03-29T08:13:51.461Z</time></trkpt><trkpt lat="43.586601" lon="12.7144344"><ele>468.0</ele><time>2026-03-29T08:13:52.459Z</time></trkpt><trkpt lat="43.5865513" lon="12.7143743"><ele>468.0</ele><time>2026-03-29T08:13:53.461Z</time></trkpt><trkpt lat="43.5864468" lon="12.7142788"><ele>468.0</ele><time>2026-03-29T08:13:55.46Z</time></trkpt><trkpt lat="43.5863724" lon="12.7141993"><ele>468.0</ele><time>2026-03-29T08:13:57.46Z</time></trkpt><trkpt lat="43.5863421" lon="12.7140966"><ele>468.0</ele><time>2026-03-29T08:13:59.46Z</time></trkpt><trkpt lat="43.5863928" lon="12.7140082"><ele>469.0</ele><time>2026-03-29T08:14:01.46Z</time></trkpt><trkpt lat="43.5864855" lon="12.713946"><ele>469.99999999999994</ele><time>2026-03-29T08:14:03.459Z</time></trkpt><trkpt lat="43.5865305" lon="12.7138343"><ele>470.99999999999994</ele><time>2026-03-29T08:14:05.459Z</time></trkpt><trkpt lat="43.5864835" lon="12.7137143"><ele>472.0</ele><time>2026-03-29T08:14:07.461Z</time></trkpt><trkpt lat="43.5863799" lon="12.7136345"><ele>473.0</ele><time>2026-03-29T08:14:09.46Z</time></trkpt><trkpt lat="43.5863286" lon="12.7135823"><ele>470.75</ele><time>2026-03-29T08:14:10.461Z</time></trkpt><trkpt lat="43.5862399" lon="12.7134732"><ele>468.5</ele><time>2026-03-29T08:14:12.46Z</time></trkpt><trkpt lat="43.5861407" lon="12.7133906"><ele>466.25</ele><time>2026-03-29T08:14:14.459Z</time></trkpt><trkpt lat="43.5860205" lon="12.7133643"><ele>464.0</ele><time>2026-03-29T08:14:16.461Z</time></trkpt><trkpt lat="43.5858932" lon="12.7133736"><ele>464.00000000000006</ele><time>2026-03-29T08:14:18.46Z</time></trkpt><trkpt lat="43.5858302" lon="12.7133813"><ele>464.0</ele><time>2026-03-29T08:14:19.459Z</time></trkpt><trkpt lat="43.5857662" lon="12.713367"><ele>464.00000000000006</ele><time>2026-03-29T08:14:20.459Z</time></trkpt><trkpt lat="43.5857033" lon="12.713339"><ele>464.00000000000006</ele><time>2026-03-29T08:14:21.459Z</time></trkpt><trkpt lat="43.5856417" lon="12.7132974"><ele>464.0</ele><time>2026-03-29T08:14:22.46Z</time></trkpt><trkpt lat="43.5855804" lon="12.713263"><ele>464.00000000000006</ele><time>2026-03-29T08:14:23.46Z</time></trkpt><trkpt lat="43.5855226" lon="12.7132255"><ele>464.00000000000006</ele><time>2026-03-29T08:14:24.459Z</time></trkpt><trkpt lat="43.58541" lon="12.713157"><ele>464.00000000000006</ele><time>2026-03-29T08:14:26.461Z</time></trkpt><trkpt lat="43.5853483" lon="12.7131313"><ele>464.0</ele><time>2026-03-29T08:14:27.46Z</time></trkpt><trkpt lat="43.5852847" lon="12.7130925"><ele>464.00000000000006</ele><time>2026-03-29T08:14:28.459Z</time></trkpt><trkpt lat="43.5852337" lon="12.7130304"><ele>464.00000000000006</ele><time>2026-03-29T08:14:29.46Z</time></trkpt><trkpt lat="43.5851966" lon="12.7129585"><ele>464.0</ele><time>2026-03-29T08:14:30.461Z</time></trkpt><trkpt lat="43.5851681" lon="12.71287"><ele>464.00000000000006</ele><time>2026-03-29T08:14:31.461Z</time></trkpt><trkpt lat="43.5851583" lon="12.7127731"><ele>464.00000000000006</ele><time>2026-03-29T08:14:32.459Z</time></trkpt><trkpt lat="43.5851534" lon="12.7126804"><ele>461.1428571428572</ele><time>2026-03-29T08:14:33.459Z</time></trkpt><trkpt lat="43.5851517" lon="12.7125904"><ele>458.28571428571433</ele><time>2026-03-29T08:14:34.461Z</time></trkpt><trkpt lat="43.5851369" lon="12.7125038"><ele>455.42857142857144</ele><time>2026-03-29T08:14:35.462Z</time></trkpt><trkpt lat="43.5850954" lon="12.7124223"><ele>452.5714285714286</ele><time>2026-03-29T08:14:36.461Z</time></trkpt><trkpt lat="43.5850373" lon="12.7123303"><ele>449.7142857142858</ele><time>2026-03-29T08:14:37.459Z</time></trkpt><trkpt lat="43.5849933" lon="12.7122334"><ele>446.85714285714283</ele><time>2026-03-29T08:14:38.459Z</time></trkpt><trkpt lat="43.5849481" lon="12.7121504"><ele>444.0</ele><time>2026-03-29T08:14:39.459Z</time></trkpt><trkpt lat="43.584917" lon="12.7120525"><ele>444.0</ele><time>2026-03-29T08:14:40.46Z</time></trkpt><trkpt lat="43.5848861" lon="12.7119527"><ele>444.0</ele><time>2026-03-29T08:14:41.46Z</time></trkpt><trkpt lat="43.5849249" lon="12.7118113"><ele>444.0</ele><time>2026-03-29T08:14:42.461Z</time></trkpt><trkpt lat="43.5849253" lon="12.7116975"><ele>444.0</ele><time>2026-03-29T08:14:43.459Z</time></trkpt><trkpt lat="43.5849298" lon="12.7115802"><ele>444.0</ele><time>2026-03-29T08:14:44.459Z</time></trkpt><trkpt lat="43.5849281" lon="12.7114691"><ele>444.0</ele><time>2026-03-29T08:14:45.459Z</time></trkpt><trkpt lat="43.5849219" lon="12.711365"><ele>444.5</ele><time>2026-03-29T08:14:46.459Z</time></trkpt><trkpt lat="43.5849263" lon="12.7112773"><ele>445.0</ele><time>2026-03-29T08:14:47.46Z</time></trkpt><trkpt lat="43.5849295" lon="12.711189"><ele>445.5</ele><time>2026-03-29T08:14:48.461Z</time></trkpt><trkpt lat="43.584959" lon="12.711019"><ele>446.0</ele><time>2026-03-29T08:14:50.46Z</time></trkpt><trkpt lat="43.5850061" lon="12.71094"><ele>446.5</ele><time>2026-03-29T08:14:51.46Z</time></trkpt><trkpt lat="43.5850548" lon="12.7108628"><ele>447.0</ele><time>2026-03-29T08:14:52.459Z</time></trkpt><trkpt lat="43.5851043" lon="12.7107848"><ele>444.8333333333333</ele><time>2026-03-29T08:14:53.46Z</time></trkpt><trkpt lat="43.5851578" lon="12.7107025"><ele>442.66666666666663</ele><time>2026-03-29T08:14:54.46Z</time></trkpt><trkpt lat="43.5852187" lon="12.710631"><ele>440.5</ele><time>2026-03-29T08:14:55.46Z</time></trkpt><trkpt lat="43.5852684" lon="12.7105576"><ele>438.3333333333333</ele><time>2026-03-29T08:14:56.46Z</time></trkpt><trkpt lat="43.5853198" lon="12.7104887"><ele>436.16666666666663</ele><time>2026-03-29T08:14:57.46Z</time></trkpt><trkpt lat="43.585379" lon="12.7104016"><ele>434.0</ele><time>2026-03-29T08:14:59.459Z</time></trkpt><trkpt lat="43.5853981" lon="12.7103109"><ele>433.99999999999994</ele><time>2026-03-29T08:15:01.46Z</time></trkpt><trkpt lat="43.5853227" lon="12.710248"><ele>434.0</ele><time>2026-03-29T08:15:04.459Z</time></trkpt><trkpt lat="43.5852576" lon="12.7103177"><ele>434.0</ele><time>2026-03-29T08:15:06.459Z</time></trkpt><trkpt lat="43.5851818" lon="12.7104405"><ele>434.0</ele><time>2026-03-29T08:15:08.461Z</time></trkpt><trkpt lat="43.5851348" lon="12.7104993"><ele>433.99999999999994</ele><time>2026-03-29T08:15:09.46Z</time></trkpt><trkpt lat="43.5850806" lon="12.7105656"><ele>434.0</ele><time>2026-03-29T08:15:10.462Z</time></trkpt><trkpt lat="43.5850238" lon="12.7106205"><ele>433.99999999999994</ele><time>2026-03-29T08:15:11.461Z</time></trkpt><trkpt lat="43.5849635" lon="12.71068"><ele>434.0</ele><time>2026-03-29T08:15:12.459Z</time></trkpt><trkpt lat="43.5849057" lon="12.7107393"><ele>434.0</ele><time>2026-03-29T08:15:13.46Z</time></trkpt><trkpt lat="43.5848512" lon="12.7107911"><ele>434.0</ele><time>2026-03-29T08:15:14.46Z</time></trkpt><trkpt lat="43.5847952" lon="12.7108325"><ele>433.99999999999994</ele><time>2026-03-29T08:15:15.461Z</time></trkpt><trkpt lat="43.5847372" lon="12.7108739"><ele>434.0</ele><time>2026-03-29T08:15:16.459Z</time></trkpt><trkpt lat="43.5846513" lon="12.7109821"><ele>434.0</ele><time>2026-03-29T08:15:18.462Z</time></trkpt><trkpt lat="43.5845973" lon="12.7110563"><ele>434.0</ele><time>2026-03-29T08:15:19.461Z</time></trkpt><trkpt lat="43.5845761" lon="12.7111392"><ele>434.0</ele><time>2026-03-29T08:15:20.461Z</time></trkpt><trkpt lat="43.5845493" lon="12.7112285"><ele>434.0</ele><time>2026-03-29T08:15:21.459Z</time></trkpt><trkpt lat="43.5845339" lon="12.7113267"><ele>434.0</ele><time>2026-03-29T08:15:22.461Z</time></trkpt><trkpt lat="43.5845009" lon="12.7114214"><ele>434.0</ele><time>2026-03-29T08:15:23.459Z</time></trkpt><trkpt lat="43.5844485" lon="12.7115076"><ele>434.0</ele><time>2026-03-29T08:15:24.461Z</time></trkpt><trkpt lat="43.5844056" lon="12.7115805"><ele>430.49999999999994</ele><time>2026-03-29T08:15:25.459Z</time></trkpt><trkpt lat="43.5843616" lon="12.7116561"><ele>427.0</ele><time>2026-03-29T08:15:26.46Z</time></trkpt><trkpt lat="43.5843355" lon="12.7117386"><ele>423.5</ele><time>2026-03-29T08:15:27.459Z</time></trkpt><trkpt lat="43.5843221" lon="12.7118263"><ele>420.0</ele><time>2026-03-29T08:15:28.461Z</time></trkpt><trkpt lat="43.5843217" lon="12.7119361"><ele>416.49999999999994</ele><time>2026-03-29T08:15:29.461Z</time></trkpt><trkpt lat="43.5843209" lon="12.712054"><ele>413.0</ele><time>2026-03-29T08:15:30.459Z</time></trkpt><trkpt lat="43.5843231" lon="12.7121731"><ele>412.59999999999997</ele><time>2026-03-29T08:15:31.46Z</time></trkpt><trkpt lat="43.5843287" lon="12.7122813"><ele>412.2</ele><time>2026-03-29T08:15:32.46Z</time></trkpt><trkpt lat="43.5843317" lon="12.7123869"><ele>411.8</ele><time>2026-03-29T08:15:33.462Z</time></trkpt><trkpt lat="43.5843336" lon="12.7124837"><ele>411.4</ele><time>2026-03-29T08:15:34.46Z</time></trkpt><trkpt lat="43.584339" lon="12.7126419"><ele>411.0</ele><time>2026-03-29T08:15:36.461Z</time></trkpt><trkpt lat="43.5843254" lon="12.7128021"><ele>411.0</ele><time>2026-03-29T08:15:38.46Z</time></trkpt><trkpt lat="43.5842609" lon="12.7128953"><ele>411.0</ele><time>2026-03-29T08:15:40.46Z</time></trkpt><trkpt lat="43.584166" lon="12.7129143"><ele>411.0</ele><time>2026-03-29T08:15:42.461Z</time></trkpt><trkpt lat="43.5840683" lon="12.7128364"><ele>411.0</ele><time>2026-03-29T08:15:44.459Z</time></trkpt><trkpt lat="43.5839679" lon="12.712703"><ele>411.0</ele><time>2026-03-29T08:15:46.461Z</time></trkpt><trkpt lat="43.5839158" lon="12.7126266"><ele>411.0</ele><time>2026-03-29T08:15:47.46Z</time></trkpt><trkpt lat="43.5838624" lon="12.7125484"><ele>411.0</ele><time>2026-03-29T08:15:48.461Z</time></trkpt><trkpt lat="43.5838158" lon="12.7124578"><ele>411.0</ele><time>2026-03-29T08:15:49.461Z</time></trkpt><trkpt lat="43.5837622" lon="12.7123546"><ele>411.0</ele><time>2026-03-29T08:15:50.461Z</time></trkpt><trkpt lat="43.5837136" lon="12.7122521"><ele>411.0</ele><time>2026-03-29T08:15:51.459Z</time></trkpt><trkpt lat="43.5836584" lon="12.712141"><ele>411.0</ele><time>2026-03-29T08:15:52.461Z</time></trkpt><trkpt lat="43.583603" lon="12.7120249"><ele>409.0</ele><time>2026-03-29T08:15:53.46Z</time></trkpt><trkpt lat="43.583543" lon="12.7119132"><ele>407.0</ele><time>2026-03-29T08:15:54.461Z</time></trkpt><trkpt lat="43.583486" lon="12.7118005"><ele>405.0</ele><time>2026-03-29T08:15:55.46Z</time></trkpt><trkpt lat="43.5834342" lon="12.7116932"><ele>403.0</ele><time>2026-03-29T08:15:56.461Z</time></trkpt><trkpt lat="43.5833837" lon="12.7115872"><ele>401.0</ele><time>2026-03-29T08:15:57.461Z</time></trkpt><trkpt lat="43.5833332" lon="12.7114895"><ele>400.49999999999994</ele><time>2026-03-29T08:15:58.46Z</time></trkpt><trkpt lat="43.5832873" lon="12.7113848"><ele>400.0</ele><time>2026-03-29T08:15:59.46Z</time></trkpt><trkpt lat="43.5832489" lon="12.7112862"><ele>399.5</ele><time>2026-03-29T08:16:00.461Z</time></trkpt><trkpt lat="43.5832168" lon="12.7111909"><ele>399.0</ele><time>2026-03-29T08:16:01.46Z</time></trkpt><trkpt lat="43.5831862" lon="12.7110998"><ele>398.49999999999994</ele><time>2026-03-29T08:16:02.461Z</time></trkpt><trkpt lat="43.5831518" lon="12.7110154"><ele>398.0</ele><time>2026-03-29T08:16:03.461Z</time></trkpt><trkpt lat="43.583054" lon="12.7108917"><ele>397.59999999999997</ele><time>2026-03-29T08:16:05.46Z</time></trkpt><trkpt lat="43.5829987" lon="12.7108179"><ele>397.2</ele><time>2026-03-29T08:16:06.46Z</time></trkpt><trkpt lat="43.5829253" lon="12.7107253"><ele>396.8</ele><time>2026-03-29T08:16:07.46Z</time></trkpt><trkpt lat="43.5828497" lon="12.7106152"><ele>396.4</ele><time>2026-03-29T08:16:08.461Z</time></trkpt><trkpt lat="43.582774" lon="12.710518"><ele>396.0</ele><time>2026-03-29T08:16:09.461Z</time></trkpt><trkpt lat="43.5827059" lon="12.7104312"><ele>396.20000000000005</ele><time>2026-03-29T08:16:10.461Z</time></trkpt><trkpt lat="43.5826279" lon="12.7103589"><ele>396.40000000000003</ele><time>2026-03-29T08:16:11.46Z</time></trkpt><trkpt lat="43.5825419" lon="12.7102978"><ele>396.6</ele><time>2026-03-29T08:16:12.461Z</time></trkpt><trkpt lat="43.582463" lon="12.710225"><ele>396.8</ele><time>2026-03-29T08:16:13.46Z</time></trkpt><trkpt lat="43.5824048" lon="12.7101377"><ele>397.0</ele><time>2026-03-29T08:16:14.46Z</time></trkpt><trkpt lat="43.5823511" lon="12.7100372"><ele>397.0</ele><time>2026-03-29T08:16:15.461Z</time></trkpt><trkpt lat="43.5822896" lon="12.7099327"><ele>397.0</ele><time>2026-03-29T08:16:16.46Z</time></trkpt><trkpt lat="43.5822123" lon="12.7098237"><ele>397.0</ele><time>2026-03-29T08:16:17.461Z</time></trkpt><trkpt lat="43.5821264" lon="12.7097281"><ele>397.0</ele><time>2026-03-29T08:16:18.46Z</time></trkpt><trkpt lat="43.5820433" lon="12.7096531"><ele>397.0</ele><time>2026-03-29T08:16:19.461Z</time></trkpt><trkpt lat="43.5819742" lon="12.7095911"><ele>398.57142857142856</ele><time>2026-03-29T08:16:20.461Z</time></trkpt><trkpt lat="43.581903" lon="12.7095542"><ele>400.1428571428571</ele><time>2026-03-29T08:16:21.46Z</time></trkpt><trkpt lat="43.5818301" lon="12.7095392"><ele>401.7142857142857</ele><time>2026-03-29T08:16:22.46Z</time></trkpt><trkpt lat="43.581756" lon="12.7095426"><ele>403.2857142857143</ele><time>2026-03-29T08:16:23.461Z</time></trkpt><trkpt lat="43.5816917" lon="12.7095747"><ele>404.8571428571429</ele><time>2026-03-29T08:16:24.46Z</time></trkpt><trkpt lat="43.5816335" lon="12.7096269"><ele>406.42857142857144</ele><time>2026-03-29T08:16:25.46Z</time></trkpt><trkpt lat="43.5815837" lon="12.7096896"><ele>408.0</ele><time>2026-03-29T08:16:26.459Z</time></trkpt><trkpt lat="43.5815297" lon="12.7097524"><ele>408.0</ele><time>2026-03-29T08:16:27.462Z</time></trkpt><trkpt lat="43.5814755" lon="12.7098092"><ele>408.0</ele><time>2026-03-29T08:16:28.46Z</time></trkpt><trkpt lat="43.581422" lon="12.7098687"><ele>408.0</ele><time>2026-03-29T08:16:29.46Z</time></trkpt><trkpt lat="43.5813623" lon="12.7099244"><ele>408.0</ele><time>2026-03-29T08:16:30.46Z</time></trkpt><trkpt lat="43.5812969" lon="12.7099763"><ele>408.0</ele><time>2026-03-29T08:16:31.461Z</time></trkpt><trkpt lat="43.581238" lon="12.7100254"><ele>408.0</ele><time>2026-03-29T08:16:32.46Z</time></trkpt><trkpt lat="43.5811854" lon="12.7100846"><ele>408.0</ele><time>2026-03-29T08:16:33.46Z</time></trkpt><trkpt lat="43.5811428" lon="12.7101568"><ele>406.8571428571429</ele><time>2026-03-29T08:16:34.46Z</time></trkpt><trkpt lat="43.5811077" lon="12.7102334"><ele>405.7142857142857</ele><time>2026-03-29T08:16:35.461Z</time></trkpt><trkpt lat="43.5810727" lon="12.7103127"><ele>404.57142857142856</ele><time>2026-03-29T08:16:36.46Z</time></trkpt><trkpt lat="43.5810372" lon="12.7103993"><ele>403.42857142857144</ele><time>2026-03-29T08:16:37.46Z</time></trkpt><trkpt lat="43.5810035" lon="12.710487"><ele>402.2857142857143</ele><time>2026-03-29T08:16:38.46Z</time></trkpt><trkpt lat="43.5809749" lon="12.7105769"><ele>401.14285714285717</ele><time>2026-03-29T08:16:39.461Z</time></trkpt><trkpt lat="43.5809521" lon="12.7106643"><ele>400.0</ele><time>2026-03-29T08:16:40.459Z</time></trkpt><trkpt lat="43.580926" lon="12.7107549"><ele>402.42857142857144</ele><time>2026-03-29T08:16:41.46Z</time></trkpt><trkpt lat="43.5808971" lon="12.7108401"><ele>404.8571428571429</ele><time>2026-03-29T08:16:42.46Z</time></trkpt><trkpt lat="43.5808664" lon="12.7109268"><ele>407.28571428571433</ele><time>2026-03-29T08:16:43.46Z</time></trkpt><trkpt lat="43.5808359" lon="12.7110206"><ele>409.7142857142857</ele><time>2026-03-29T08:16:44.461Z</time></trkpt><trkpt lat="43.5807979" lon="12.7111194"><ele>412.1428571428571</ele><time>2026-03-29T08:16:45.459Z</time></trkpt><trkpt lat="43.5807596" lon="12.7112072"><ele>414.5714285714286</ele><time>2026-03-29T08:16:46.459Z</time></trkpt><trkpt lat="43.5807209" lon="12.7113061"><ele>417.0</ele><time>2026-03-29T08:16:47.46Z</time></trkpt><trkpt lat="43.5806828" lon="12.7113912"><ele>418.6666666666667</ele><time>2026-03-29T08:16:48.46Z</time></trkpt><trkpt lat="43.5806463" lon="12.7114826"><ele>420.33333333333337</ele><time>2026-03-29T08:16:49.461Z</time></trkpt><trkpt lat="43.5806149" lon="12.7115862"><ele>422.0</ele><time>2026-03-29T08:16:50.461Z</time></trkpt><trkpt lat="43.5805852" lon="12.7116862"><ele>423.6666666666667</ele><time>2026-03-29T08:16:51.462Z</time></trkpt><trkpt lat="43.5805604" lon="12.7117936"><ele>425.33333333333337</ele><time>2026-03-29T08:16:52.461Z</time></trkpt><trkpt lat="43.5805248" lon="12.7119135"><ele>427.0</ele><time>2026-03-29T08:16:53.459Z</time></trkpt><trkpt lat="43.5804773" lon="12.7120429"><ele>427.0</ele><time>2026-03-29T08:16:54.46Z</time></trkpt><trkpt lat="43.5804177" lon="12.7121532"><ele>427.00000000000006</ele><time>2026-03-29T08:16:55.46Z</time></trkpt><trkpt lat="43.5803518" lon="12.7122694"><ele>427.00000000000006</ele><time>2026-03-29T08:16:56.459Z</time></trkpt><trkpt lat="43.5802819" lon="12.712382"><ele>427.0</ele><time>2026-03-29T08:16:57.46Z</time></trkpt><trkpt lat="43.5802025" lon="12.7124817"><ele>427.0</ele><time>2026-03-29T08:16:58.459Z</time></trkpt><trkpt lat="43.5801212" lon="12.7125811"><ele>428.8</ele><time>2026-03-29T08:16:59.459Z</time></trkpt><trkpt lat="43.5800244" lon="12.7126852"><ele>430.6</ele><time>2026-03-29T08:17:00.459Z</time></trkpt><trkpt lat="43.5799462" lon="12.712774"><ele>432.40000000000003</ele><time>2026-03-29T08:17:01.461Z</time></trkpt><trkpt lat="43.5798632" lon="12.7128545"><ele>434.20000000000005</ele><time>2026-03-29T08:17:02.461Z</time></trkpt><trkpt lat="43.5797879" lon="12.7129286"><ele>436.0</ele><time>2026-03-29T08:17:03.46Z</time></trkpt><trkpt lat="43.5796999" lon="12.7130061"><ele>438.8</ele><time>2026-03-29T08:17:04.46Z</time></trkpt><trkpt lat="43.5795993" lon="12.7130702"><ele>441.6</ele><time>2026-03-29T08:17:05.462Z</time></trkpt><trkpt lat="43.5794969" lon="12.7131339"><ele>444.4</ele><time>2026-03-29T08:17:06.46Z</time></trkpt><trkpt lat="43.5794025" lon="12.7131942"><ele>447.2</ele><time>2026-03-29T08:17:07.46Z</time></trkpt><trkpt lat="43.5793272" lon="12.7132352"><ele>450.0</ele><time>2026-03-29T08:17:08.46Z</time></trkpt><trkpt lat="43.5792256" lon="12.7132915"><ele>450.8333333333333</ele><time>2026-03-29T08:17:10.459Z</time></trkpt><trkpt lat="43.5791469" lon="12.7132456"><ele>451.66666666666663</ele><time>2026-03-29T08:17:12.46Z</time></trkpt><trkpt lat="43.5791375" lon="12.7131332"><ele>452.5</ele><time>2026-03-29T08:17:14.46Z</time></trkpt><trkpt lat="43.5791661" lon="12.7129745"><ele>453.3333333333333</ele><time>2026-03-29T08:17:16.46Z</time></trkpt><trkpt lat="43.5791884" lon="12.7128821"><ele>454.16666666666663</ele><time>2026-03-29T08:17:17.46Z</time></trkpt><trkpt lat="43.5791925" lon="12.7127725"><ele>455.0</ele><time>2026-03-29T08:17:18.459Z</time></trkpt><trkpt lat="43.5791956" lon="12.7126683"><ele>454.99999999999994</ele><time>2026-03-29T08:17:19.46Z</time></trkpt><trkpt lat="43.5791997" lon="12.712564"><ele>455.0</ele><time>2026-03-29T08:17:20.461Z</time></trkpt><trkpt lat="43.5791552" lon="12.7124634"><ele>455.0</ele><time>2026-03-29T08:17:21.46Z</time></trkpt><trkpt lat="43.5791182" lon="12.712351"><ele>455.0</ele><time>2026-03-29T08:17:22.46Z</time></trkpt><trkpt lat="43.5790846" lon="12.7122505"><ele>454.99999999999994</ele><time>2026-03-29T08:17:23.46Z</time></trkpt><trkpt lat="43.5790558" lon="12.7121646"><ele>455.0</ele><time>2026-03-29T08:17:24.46Z</time></trkpt><trkpt lat="43.5790249" lon="12.7120352"><ele>454.99999999999994</ele><time>2026-03-29T08:17:26.459Z</time></trkpt><trkpt lat="43.5789786" lon="12.7119748"><ele>455.0</ele><time>2026-03-29T08:17:28.459Z</time></trkpt><trkpt lat="43.5788993" lon="12.7120433"><ele>455.0</ele><time>2026-03-29T08:17:30.461Z</time></trkpt><trkpt lat="43.5788731" lon="12.7121367"><ele>455.0</ele><time>2026-03-29T08:17:31.46Z</time></trkpt><trkpt lat="43.5788344" lon="12.7122142"><ele>454.99999999999994</ele><time>2026-03-29T08:17:32.459Z</time></trkpt><trkpt lat="43.5787846" lon="12.7122693"><ele>455.0</ele><time>2026-03-29T08:17:33.46Z</time></trkpt><trkpt lat="43.5785709" lon="12.7122877"><ele>458.4</ele><time>2026-03-29T08:17:35.461Z</time></trkpt><trkpt lat="43.5784796" lon="12.712307"><ele>461.8</ele><time>2026-03-29T08:17:36.461Z</time></trkpt><trkpt lat="43.5784059" lon="12.7123687"><ele>465.20000000000005</ele><time>2026-03-29T08:17:37.46Z</time></trkpt><trkpt lat="43.578316" lon="12.7124623"><ele>468.6</ele><time>2026-03-29T08:17:38.46Z</time></trkpt><trkpt lat="43.578258" lon="12.7125922"><ele>472.0</ele><time>2026-03-29T08:17:39.46Z</time></trkpt><trkpt lat="43.5782281" lon="12.7127504"><ele>472.0</ele><time>2026-03-29T08:17:40.459Z</time></trkpt><trkpt lat="43.5781882" lon="12.7128949"><ele>472.00000000000006</ele><time>2026-03-29T08:17:41.459Z</time></trkpt><trkpt lat="43.5781667" lon="12.7130151"><ele>472.00000000000006</ele><time>2026-03-29T08:17:42.461Z</time></trkpt><trkpt lat="43.5781291" lon="12.7131153"><ele>472.0</ele><time>2026-03-29T08:17:43.459Z</time></trkpt><trkpt lat="43.5780644" lon="12.7132025"><ele>472.0</ele><time>2026-03-29T08:17:44.46Z</time></trkpt><trkpt lat="43.5779249" lon="12.7132298"><ele>474.50000000000006</ele><time>2026-03-29T08:17:45.461Z</time></trkpt><trkpt lat="43.5778397" lon="12.7132831"><ele>477.0</ele><time>2026-03-29T08:17:46.461Z</time></trkpt><trkpt lat="43.5777594" lon="12.7133114"><ele>479.5</ele><time>2026-03-29T08:17:47.46Z</time></trkpt><trkpt lat="43.5776807" lon="12.7133001"><ele>482.0</ele><time>2026-03-29T08:17:48.46Z</time></trkpt><trkpt lat="43.5776234" lon="12.7132578"><ele>484.50000000000006</ele><time>2026-03-29T08:17:49.46Z</time></trkpt><trkpt lat="43.5775574" lon="12.7132173"><ele>487.0</ele><time>2026-03-29T08:17:50.459Z</time></trkpt><trkpt lat="43.5774916" lon="12.7131969"><ele>487.0</ele><time>2026-03-29T08:17:51.46Z</time></trkpt><trkpt lat="43.5773768" lon="12.7132108"><ele>487.0</ele><time>2026-03-29T08:17:53.459Z</time></trkpt><trkpt lat="43.577263" lon="12.7132693"><ele>487.0</ele><time>2026-03-29T08:17:55.46Z</time></trkpt><trkpt lat="43.5771526" lon="12.7133207"><ele>487.0</ele><time>2026-03-29T08:17:57.461Z</time></trkpt><trkpt lat="43.5770552" lon="12.7133708"><ele>488.1666666666667</ele><time>2026-03-29T08:17:59.461Z</time></trkpt><trkpt lat="43.5769522" lon="12.7134501"><ele>489.33333333333337</ele><time>2026-03-29T08:18:01.46Z</time></trkpt><trkpt lat="43.5768999" lon="12.7135046"><ele>490.5</ele><time>2026-03-29T08:18:02.46Z</time></trkpt><trkpt lat="43.576855" lon="12.7135703"><ele>491.66666666666663</ele><time>2026-03-29T08:18:03.46Z</time></trkpt><trkpt lat="43.5768108" lon="12.7136452"><ele>492.8333333333333</ele><time>2026-03-29T08:18:04.459Z</time></trkpt><trkpt lat="43.5767772" lon="12.7137193"><ele>494.0</ele><time>2026-03-29T08:18:05.462Z</time></trkpt><trkpt lat="43.5767531" lon="12.7138079"><ele>494.66666666666663</ele><time>2026-03-29T08:18:06.459Z</time></trkpt><trkpt lat="43.5767366" lon="12.7138979"><ele>495.3333333333333</ele><time>2026-03-29T08:18:07.46Z</time></trkpt><trkpt lat="43.5767201" lon="12.7139848"><ele>496.0</ele><time>2026-03-29T08:18:08.459Z</time></trkpt><trkpt lat="43.5766937" lon="12.7141488"><ele>496.66666666666663</ele><time>2026-03-29T08:18:10.46Z</time></trkpt><trkpt lat="43.5766565" lon="12.7142674"><ele>497.3333333333333</ele><time>2026-03-29T08:18:12.459Z</time></trkpt><trkpt lat="43.5765728" lon="12.714295"><ele>498.0</ele><time>2026-03-29T08:18:14.46Z</time></trkpt><trkpt lat="43.576512" lon="12.7142676"><ele>498.0</ele><time>2026-03-29T08:18:16.46Z</time></trkpt><trkpt lat="43.5764949" lon="12.7141331"><ele>497.99999999999994</ele><time>2026-03-29T08:18:57.46Z</time></trkpt><trkpt lat="43.5764798" lon="12.7140119"><ele>497.99999999999994</ele><time>2026-03-29T08:18:59.459Z</time></trkpt><trkpt lat="43.5764631" lon="12.7138651"><ele>498.0</ele><time>2026-03-29T08:19:01.461Z</time></trkpt><trkpt lat="43.576466" lon="12.7136983"><ele>498.0</ele><time>2026-03-29T08:19:03.461Z</time></trkpt><trkpt lat="43.5764525" lon="12.7135251"><ele>497.2</ele><time>2026-03-29T08:19:05.46Z</time></trkpt><trkpt lat="43.5764192" lon="12.7133915"><ele>496.4</ele><time>2026-03-29T08:19:07.46Z</time></trkpt><trkpt lat="43.576368" lon="12.7133"><ele>495.59999999999997</ele><time>2026-03-29T08:19:09.46Z</time></trkpt><trkpt lat="43.5763053" lon="12.7132219"><ele>494.79999999999995</ele><time>2026-03-29T08:19:11.461Z</time></trkpt><trkpt lat="43.5762519" lon="12.7131266"><ele>494.0</ele><time>2026-03-29T08:19:13.46Z</time></trkpt><trkpt lat="43.5762008" lon="12.7129988"><ele>492.99999999999994</ele><time>2026-03-29T08:19:15.461Z</time></trkpt><trkpt lat="43.576171" lon="12.7128557"><ele>492.0</ele><time>2026-03-29T08:19:17.46Z</time></trkpt><trkpt lat="43.5761544" lon="12.7127293"><ele>491.0</ele><time>2026-03-29T08:19:19.46Z</time></trkpt><trkpt lat="43.5761475" lon="12.7126203"><ele>490.0</ele><time>2026-03-29T08:19:21.46Z</time></trkpt><trkpt lat="43.5761397" lon="12.7125102"><ele>488.99999999999994</ele><time>2026-03-29T08:19:23.46Z</time></trkpt><trkpt lat="43.5761423" lon="12.7124073"><ele>488.0</ele><time>2026-03-29T08:19:25.46Z</time></trkpt><trkpt lat="43.5761618" lon="12.7122935"><ele>488.3333333333333</ele><time>2026-03-29T08:19:27.46Z</time></trkpt><trkpt lat="43.5762028" lon="12.7121985"><ele>488.66666666666663</ele><time>2026-03-29T08:19:29.459Z</time></trkpt><trkpt lat="43.5762361" lon="12.7120954"><ele>489.0</ele><time>2026-03-29T08:19:31.461Z</time></trkpt><trkpt lat="43.576224" lon="12.7119731"><ele>489.33333333333337</ele><time>2026-03-29T08:19:34.46Z</time></trkpt><trkpt lat="43.5761748" lon="12.7118972"><ele>489.6666666666667</ele><time>2026-03-29T08:19:36.459Z</time></trkpt><trkpt lat="43.5761165" lon="12.7118273"><ele>490.0</ele><time>2026-03-29T08:19:38.46Z</time></trkpt><trkpt lat="43.5760524" lon="12.7117664"><ele>490.00000000000006</ele><time>2026-03-29T08:19:40.46Z</time></trkpt><trkpt lat="43.5760312" lon="12.7116543"><ele>490.0</ele><time>2026-03-29T08:19:42.46Z</time></trkpt><trkpt lat="43.5760207" lon="12.7115287"><ele>490.0</ele><time>2026-03-29T08:19:44.46Z</time></trkpt><trkpt lat="43.5759999" lon="12.7113949"><ele>490.0</ele><time>2026-03-29T08:19:46.461Z</time></trkpt><trkpt lat="43.5759804" lon="12.7112853"><ele>490.00000000000006</ele><time>2026-03-29T08:19:48.461Z</time></trkpt><trkpt lat="43.575944" lon="12.7112024"><ele>490.0</ele><time>2026-03-29T08:19:50.461Z</time></trkpt><trkpt lat="43.5758949" lon="12.7111196"><ele>493.00000000000006</ele><time>2026-03-29T08:19:52.461Z</time></trkpt><trkpt lat="43.5758396" lon="12.7110268"><ele>496.0</ele><time>2026-03-29T08:19:54.46Z</time></trkpt><trkpt lat="43.5757771" lon="12.7109755"><ele>499.0</ele><time>2026-03-29T08:19:56.461Z</time></trkpt><trkpt lat="43.5756985" lon="12.7109662"><ele>502.0</ele><time>2026-03-29T08:19:58.459Z</time></trkpt><trkpt lat="43.5756146" lon="12.7109135"><ele>505.00000000000006</ele><time>2026-03-29T08:20:00.46Z</time></trkpt><trkpt lat="43.575538" lon="12.7108452"><ele>508.0</ele><time>2026-03-29T08:20:02.46Z</time></trkpt><trkpt lat="43.5754679" lon="12.7107665"><ele>508.00000000000006</ele><time>2026-03-29T08:20:04.46Z</time></trkpt><trkpt lat="43.5754157" lon="12.7106781"><ele>508.0</ele><time>2026-03-29T08:20:06.46Z</time></trkpt><trkpt lat="43.5753695" lon="12.7105771"><ele>508.0</ele><time>2026-03-29T08:20:08.46Z</time></trkpt><trkpt lat="43.5753381" lon="12.7104631"><ele>508.0</ele><time>2026-03-29T08:20:10.46Z</time></trkpt><trkpt lat="43.5753096" lon="12.7103785"><ele>508.00000000000006</ele><time>2026-03-29T08:20:12.461Z</time></trkpt><trkpt lat="43.575268" lon="12.7102946"><ele>508.0</ele><time>2026-03-29T08:20:14.461Z</time></trkpt><trkpt lat="43.5752123" lon="12.7102109"><ele>506.1666666666667</ele><time>2026-03-29T08:20:16.461Z</time></trkpt><trkpt lat="43.5751513" lon="12.7100964"><ele>504.33333333333337</ele><time>2026-03-29T08:20:18.459Z</time></trkpt><trkpt lat="43.5751138" lon="12.7099817"><ele>502.5</ele><time>2026-03-29T08:20:20.461Z</time></trkpt><trkpt lat="43.5750884" lon="12.7098953"><ele>500.66666666666663</ele><time>2026-03-29T08:20:22.462Z</time></trkpt><trkpt lat="43.5750546" lon="12.7098028"><ele>498.8333333333333</ele><time>2026-03-29T08:20:25.461Z</time></trkpt><trkpt lat="43.5750138" lon="12.7096962"><ele>497.0</ele><time>2026-03-29T08:20:28.461Z</time></trkpt><trkpt lat="43.5749898" lon="12.7096137"><ele>496.99999999999994</ele><time>2026-03-29T08:20:30.461Z</time></trkpt><trkpt lat="43.5749898" lon="12.7095265"><ele>497.0</ele><time>2026-03-29T08:20:32.46Z</time></trkpt><trkpt lat="43.5750046" lon="12.7094368"><ele>497.0</ele><time>2026-03-29T08:20:35.459Z</time></trkpt><trkpt lat="43.5749623" lon="12.7093441"><ele>497.0</ele><time>2026-03-29T08:20:41.461Z</time></trkpt><trkpt lat="43.5749059" lon="12.7092738"><ele>496.99999999999994</ele><time>2026-03-29T08:20:44.461Z</time></trkpt><trkpt lat="43.5748612" lon="12.7091692"><ele>497.0</ele><time>2026-03-29T08:20:48.46Z</time></trkpt><trkpt lat="43.5748432" lon="12.7090609"><ele>498.16666666666663</ele><time>2026-03-29T08:20:50.461Z</time></trkpt><trkpt lat="43.5748252" lon="12.7089611"><ele>499.3333333333333</ele><time>2026-03-29T08:20:52.46Z</time></trkpt><trkpt lat="43.5748013" lon="12.7088634"><ele>500.5</ele><time>2026-03-29T08:20:54.462Z</time></trkpt><trkpt lat="43.5747614" lon="12.708768"><ele>501.66666666666663</ele><time>2026-03-29T08:20:56.46Z</time></trkpt><trkpt lat="43.574684" lon="12.7086926"><ele>502.8333333333333</ele><time>2026-03-29T08:20:58.459Z</time></trkpt><trkpt lat="43.5746106" lon="12.7086263"><ele>504.0</ele><time>2026-03-29T08:21:00.459Z</time></trkpt><trkpt lat="43.5745496" lon="12.7085584"><ele>503.0</ele><time>2026-03-29T08:21:02.461Z</time></trkpt><trkpt lat="43.5744959" lon="12.7084566"><ele>502.0</ele><time>2026-03-29T08:21:04.46Z</time></trkpt><trkpt lat="43.5744934" lon="12.7083419"><ele>501.0</ele><time>2026-03-29T08:22:27.459Z</time></trkpt><trkpt lat="43.574472" lon="12.7082577"><ele>500.0</ele><time>2026-03-29T08:22:42.462Z</time></trkpt><trkpt lat="43.5744739" lon="12.7081341"><ele>499.0</ele><time>2026-03-29T08:23:46.46Z</time></trkpt><trkpt lat="43.5744662" lon="12.7080398"><ele>498.0</ele><time>2026-03-29T08:23:48.461Z</time></trkpt><trkpt lat="43.5744551" lon="12.7078821"><ele>498.8333333333333</ele><time>2026-03-29T08:23:51.461Z</time></trkpt><trkpt lat="43.5744502" lon="12.7077418"><ele>499.66666666666663</ele><time>2026-03-29T08:23:53.462Z</time></trkpt><trkpt lat="43.5744525" lon="12.7076093"><ele>500.5</ele><time>2026-03-29T08:23:55.46Z</time></trkpt><trkpt lat="43.5744894" lon="12.7074994"><ele>501.3333333333333</ele><time>2026-03-29T08:23:57.461Z</time></trkpt><trkpt lat="43.5745332" lon="12.7074287"><ele>502.16666666666663</ele><time>2026-03-29T08:23:59.461Z</time></trkpt><trkpt lat="43.5745715" lon="12.7073194"><ele>503.0</ele><time>2026-03-29T08:24:02.461Z</time></trkpt><trkpt lat="43.574568" lon="12.707207"><ele>502.99999999999994</ele><time>2026-03-29T08:24:05.46Z</time></trkpt><trkpt lat="43.5745113" lon="12.7071326"><ele>503.0</ele><time>2026-03-29T08:24:08.461Z</time></trkpt><trkpt lat="43.5744641" lon="12.7070609"><ele>503.0</ele><time>2026-03-29T08:24:11.46Z</time></trkpt><trkpt lat="43.5744076" lon="12.7069848"><ele>503.0</ele><time>2026-03-29T08:24:14.46Z</time></trkpt><trkpt lat="43.5743445" lon="12.7068869"><ele>502.99999999999994</ele><time>2026-03-29T08:24:17.461Z</time></trkpt><trkpt lat="43.5743094" lon="12.7067898"><ele>503.0</ele><time>2026-03-29T08:24:19.46Z</time></trkpt><trkpt lat="43.57428" lon="12.7066919"><ele>502.8333333333333</ele><time>2026-03-29T08:24:21.461Z</time></trkpt><trkpt lat="43.5742552" lon="12.7066071"><ele>502.66666666666663</ele><time>2026-03-29T08:24:23.46Z</time></trkpt><trkpt lat="43.574253" lon="12.7064948"><ele>502.5</ele><time>2026-03-29T08:24:27.46Z</time></trkpt><trkpt lat="43.5742881" lon="12.7063845"><ele>502.33333333333337</ele><time>2026-03-29T08:24:30.461Z</time></trkpt><trkpt lat="43.5743261" lon="12.7063048"><ele>502.1666666666667</ele><time>2026-03-29T08:24:32.461Z</time></trkpt><trkpt lat="43.5743551" lon="12.7061785"><ele>502.0</ele><time>2026-03-29T08:24:35.459Z</time></trkpt><trkpt lat="43.5743494" lon="12.7060827"><ele>501.42857142857133</ele><time>2026-03-29T08:24:37.46Z</time></trkpt><trkpt lat="43.5743329" lon="12.7059901"><ele>500.85714285714283</ele><time>2026-03-29T08:24:58.46Z</time></trkpt><trkpt lat="43.5742945" lon="12.7059145"><ele>500.2857142857142</ele><time>2026-03-29T08:25:23.46Z</time></trkpt><trkpt lat="43.5742428" lon="12.705859"><ele>499.71428571428567</ele><time>2026-03-29T08:25:28.461Z</time></trkpt><trkpt lat="43.5742989" lon="12.7059432"><ele>499.1428571428571</ele><time>2026-03-29T08:27:39.461Z</time></trkpt><trkpt lat="43.5743767" lon="12.7060032"><ele>498.57142857142856</ele><time>2026-03-29T08:29:08.461Z</time></trkpt><trkpt lat="43.5744365" lon="12.7060376"><ele>498.0</ele><time>2026-03-29T08:29:11.459Z</time></trkpt><trkpt lat="43.5744988" lon="12.7059952"><ele>498.0</ele><time>2026-03-29T08:29:42.461Z</time></trkpt><trkpt lat="43.5745561" lon="12.705945"><ele>497.99999999999994</ele><time>2026-03-29T08:29:54.461Z</time></trkpt><trkpt lat="43.5746261" lon="12.7059164"><ele>498.0</ele><time>2026-03-29T08:30:15.461Z</time></trkpt><trkpt lat="43.5745614" lon="12.705948"><ele>498.0</ele><time>2026-03-29T08:31:39.461Z</time></trkpt><trkpt lat="43.5744958" lon="12.7059993"><ele>497.99999999999994</ele><time>2026-03-29T08:31:43.46Z</time></trkpt><trkpt lat="43.5744315" lon="12.706014"><ele>498.0</ele><time>2026-03-29T08:31:49.46Z</time></trkpt><trkpt lat="43.5743657" lon="12.7059836"><ele>498.0</ele><time>2026-03-29T08:31:55.461Z</time></trkpt><trkpt lat="43.5743592" lon="12.7060929"><ele>498.57142857142856</ele><time>2026-03-29T08:32:25.46Z</time></trkpt><trkpt lat="43.5743706" lon="12.7061866"><ele>499.1428571428571</ele><time>2026-03-29T08:32:27.459Z</time></trkpt><trkpt lat="43.5743405" lon="12.7063043"><ele>499.71428571428567</ele><time>2026-03-29T08:32:30.461Z</time></trkpt><trkpt lat="43.5742958" lon="12.7063815"><ele>500.2857142857142</ele><time>2026-03-29T08:32:33.46Z</time></trkpt><trkpt lat="43.5742657" lon="12.7064592"><ele>500.85714285714283</ele><time>2026-03-29T08:32:36.46Z</time></trkpt><trkpt lat="43.5742514" lon="12.7065635"><ele>501.42857142857133</ele><time>2026-03-29T08:32:46.459Z</time></trkpt><trkpt lat="43.5742663" lon="12.7066599"><ele>501.99999999999994</ele><time>2026-03-29T08:32:48.462Z</time></trkpt><trkpt lat="43.5743007" lon="12.7067672"><ele>502.00000000000006</ele><time>2026-03-29T08:32:50.461Z</time></trkpt><trkpt lat="43.5743337" lon="12.7068684"><ele>502.0</ele><time>2026-03-29T08:32:52.461Z</time></trkpt><trkpt lat="43.5743823" lon="12.7069523"><ele>502.0</ele><time>2026-03-29T08:32:54.462Z</time></trkpt><trkpt lat="43.5744417" lon="12.7070233"><ele>502.0</ele><time>2026-03-29T08:32:56.46Z</time></trkpt><trkpt lat="43.5744994" lon="12.7071058"><ele>502.00000000000006</ele><time>2026-03-29T08:32:58.461Z</time></trkpt><trkpt lat="43.5745493" lon="12.7071858"><ele>502.0</ele><time>2026-03-29T08:33:00.461Z</time></trkpt><trkpt lat="43.5745459" lon="12.7072797"><ele>502.1666666666667</ele><time>2026-03-29T08:33:03.462Z</time></trkpt><trkpt lat="43.5745042" lon="12.7073859"><ele>502.33333333333337</ele><time>2026-03-29T08:33:06.459Z</time></trkpt><trkpt lat="43.5744522" lon="12.7074803"><ele>502.5</ele><time>2026-03-29T08:33:09.46Z</time></trkpt><trkpt lat="43.5744145" lon="12.707571"><ele>502.66666666666663</ele><time>2026-03-29T08:33:12.461Z</time></trkpt><trkpt lat="43.574413" lon="12.7076895"><ele>502.8333333333333</ele><time>2026-03-29T08:33:15.46Z</time></trkpt><trkpt lat="43.5744232" lon="12.7077812"><ele>503.0</ele><time>2026-03-29T08:33:17.461Z</time></trkpt><trkpt lat="43.5744322" lon="12.707903"><ele>502.16666666666663</ele><time>2026-03-29T08:33:20.46Z</time></trkpt><trkpt lat="43.5744387" lon="12.7080232"><ele>501.3333333333333</ele><time>2026-03-29T08:33:23.461Z</time></trkpt><trkpt lat="43.5744623" lon="12.7081378"><ele>500.5</ele><time>2026-03-29T08:33:26.461Z</time></trkpt><trkpt lat="43.5744678" lon="12.7082409"><ele>499.66666666666663</ele><time>2026-03-29T08:33:29.461Z</time></trkpt><trkpt lat="43.5744857" lon="12.7083485"><ele>498.8333333333333</ele><time>2026-03-29T08:35:06.461Z</time></trkpt><trkpt lat="43.574538" lon="12.7084633"><ele>498.0</ele><time>2026-03-29T08:35:11.459Z</time></trkpt><trkpt lat="43.5746092" lon="12.7085298"><ele>499.0</ele><time>2026-03-29T08:35:14.461Z</time></trkpt><trkpt lat="43.5746742" lon="12.7085912"><ele>500.0</ele><time>2026-03-29T08:35:17.459Z</time></trkpt><trkpt lat="43.5747252" lon="12.708666"><ele>501.0</ele><time>2026-03-29T08:35:19.461Z</time></trkpt><trkpt lat="43.5747573" lon="12.7087581"><ele>502.0</ele><time>2026-03-29T08:35:21.46Z</time></trkpt><trkpt lat="43.5747788" lon="12.7089131"><ele>503.0</ele><time>2026-03-29T08:35:23.46Z</time></trkpt><trkpt lat="43.5748174" lon="12.7090455"><ele>504.0</ele><time>2026-03-29T08:35:25.46Z</time></trkpt><trkpt lat="43.5748599" lon="12.7091741"><ele>504.0</ele><time>2026-03-29T08:35:27.462Z</time></trkpt><trkpt lat="43.5749003" lon="12.7092837"><ele>504.0</ele><time>2026-03-29T08:35:29.46Z</time></trkpt><trkpt lat="43.5749605" lon="12.70936"><ele>504.0</ele><time>2026-03-29T08:35:32.461Z</time></trkpt><trkpt lat="43.574977" lon="12.709481"><ele>504.0</ele><time>2026-03-29T08:35:36.46Z</time></trkpt><trkpt lat="43.5749812" lon="12.7095766"><ele>504.0</ele><time>2026-03-29T08:35:38.46Z</time></trkpt><trkpt lat="43.5749938" lon="12.7096799"><ele>504.0</ele><time>2026-03-29T08:35:40.462Z</time></trkpt><trkpt lat="43.5750171" lon="12.709773"><ele>502.8333333333333</ele><time>2026-03-29T08:35:43.46Z</time></trkpt><trkpt lat="43.5750505" lon="12.7098701"><ele>501.66666666666663</ele><time>2026-03-29T08:35:46.46Z</time></trkpt><trkpt lat="43.575086" lon="12.7099618"><ele>500.5</ele><time>2026-03-29T08:35:48.46Z</time></trkpt><trkpt lat="43.5751288" lon="12.7100537"><ele>499.3333333333333</ele><time>2026-03-29T08:35:50.461Z</time></trkpt><trkpt lat="43.5751748" lon="12.7101453"><ele>498.16666666666663</ele><time>2026-03-29T08:35:52.461Z</time></trkpt><trkpt lat="43.575218" lon="12.7102193"><ele>497.0</ele><time>2026-03-29T08:35:54.461Z</time></trkpt><trkpt lat="43.5752651" lon="12.7102979"><ele>498.8333333333333</ele><time>2026-03-29T08:36:00.459Z</time></trkpt><trkpt lat="43.5753027" lon="12.7103742"><ele>500.66666666666663</ele><time>2026-03-29T08:36:02.459Z</time></trkpt><trkpt lat="43.5753422" lon="12.710484"><ele>502.5</ele><time>2026-03-29T08:36:04.461Z</time></trkpt><trkpt lat="43.5753709" lon="12.7105969"><ele>504.33333333333337</ele><time>2026-03-29T08:36:06.459Z</time></trkpt><trkpt lat="43.5754057" lon="12.7106936"><ele>506.1666666666667</ele><time>2026-03-29T08:36:08.459Z</time></trkpt><trkpt lat="43.5754587" lon="12.710775"><ele>508.0</ele><time>2026-03-29T08:36:10.459Z</time></trkpt><trkpt lat="43.5755218" lon="12.7108444"><ele>508.00000000000006</ele><time>2026-03-29T08:36:12.461Z</time></trkpt><trkpt lat="43.5755895" lon="12.7109013"><ele>508.0</ele><time>2026-03-29T08:36:14.461Z</time></trkpt><trkpt lat="43.5756556" lon="12.7109512"><ele>508.0</ele><time>2026-03-29T08:36:16.461Z</time></trkpt><trkpt lat="43.5757269" lon="12.7109725"><ele>508.0</ele><time>2026-03-29T08:36:18.46Z</time></trkpt><trkpt lat="43.5758171" lon="12.710985"><ele>508.00000000000006</ele><time>2026-03-29T08:36:21.461Z</time></trkpt><trkpt lat="43.5758674" lon="12.7110416"><ele>508.0</ele><time>2026-03-29T08:36:23.461Z</time></trkpt><trkpt lat="43.5759201" lon="12.7111182"><ele>505.00000000000006</ele><time>2026-03-29T08:36:25.461Z</time></trkpt><trkpt lat="43.5759674" lon="12.7111983"><ele>502.0</ele><time>2026-03-29T08:36:27.462Z</time></trkpt><trkpt lat="43.5760053" lon="12.7112958"><ele>499.0</ele><time>2026-03-29T08:36:29.461Z</time></trkpt><trkpt lat="43.5760266" lon="12.711382"><ele>496.0</ele><time>2026-03-29T08:36:31.461Z</time></trkpt><trkpt lat="43.5760408" lon="12.7115042"><ele>493.00000000000006</ele><time>2026-03-29T08:36:34.459Z</time></trkpt><trkpt lat="43.5760403" lon="12.711598"><ele>490.0</ele><time>2026-03-29T08:36:36.46Z</time></trkpt><trkpt lat="43.5760485" lon="12.7117048"><ele>490.00000000000006</ele><time>2026-03-29T08:36:38.461Z</time></trkpt><trkpt lat="43.5760834" lon="12.7117798"><ele>490.0</ele><time>2026-03-29T08:36:40.46Z</time></trkpt><trkpt lat="43.576158" lon="12.7118399"><ele>490.0</ele><time>2026-03-29T08:36:43.461Z</time></trkpt><trkpt lat="43.5762235" lon="12.7119229"><ele>490.0</ele><time>2026-03-29T08:36:46.46Z</time></trkpt><trkpt lat="43.5762622" lon="12.7120208"><ele>490.00000000000006</ele><time>2026-03-29T08:36:49.46Z</time></trkpt><trkpt lat="43.57623" lon="12.7121083"><ele>490.0</ele><time>2026-03-29T08:36:54.459Z</time></trkpt><trkpt lat="43.5761772" lon="12.7122082"><ele>489.6666666666667</ele><time>2026-03-29T08:37:48.459Z</time></trkpt><trkpt lat="43.5761447" lon="12.7123052"><ele>489.33333333333337</ele><time>2026-03-29T08:37:50.46Z</time></trkpt><trkpt lat="43.5761404" lon="12.712433"><ele>489.0</ele><time>2026-03-29T08:37:53.461Z</time></trkpt><trkpt lat="43.5761438" lon="12.7125365"><ele>488.66666666666663</ele><time>2026-03-29T08:37:55.461Z</time></trkpt><trkpt lat="43.5761497" lon="12.7126543"><ele>488.3333333333333</ele><time>2026-03-29T08:37:57.461Z</time></trkpt><trkpt lat="43.5761604" lon="12.7127892"><ele>488.0</ele><time>2026-03-29T08:37:59.46Z</time></trkpt><trkpt lat="43.5761869" lon="12.7129372"><ele>489.5</ele><time>2026-03-29T08:38:01.46Z</time></trkpt><trkpt lat="43.5762335" lon="12.7130842"><ele>491.0</ele><time>2026-03-29T08:38:03.46Z</time></trkpt><trkpt lat="43.5763045" lon="12.7132132"><ele>492.5</ele><time>2026-03-29T08:38:05.46Z</time></trkpt><trkpt lat="43.5763779" lon="12.7133303"><ele>494.0</ele><time>2026-03-29T08:38:07.459Z</time></trkpt><trkpt lat="43.5764259" lon="12.71348"><ele>494.0</ele><time>2026-03-29T08:38:09.461Z</time></trkpt><trkpt lat="43.5764401" lon="12.7135695"><ele>494.0</ele><time>2026-03-29T08:38:10.46Z</time></trkpt><trkpt lat="43.5764476" lon="12.7136576"><ele>494.0</ele><time>2026-03-29T08:38:11.461Z</time></trkpt><trkpt lat="43.5764459" lon="12.7137536"><ele>494.0</ele><time>2026-03-29T08:38:12.462Z</time></trkpt><trkpt lat="43.5764483" lon="12.713848"><ele>494.0</ele><time>2026-03-29T08:38:13.461Z</time></trkpt><trkpt lat="43.5764582" lon="12.7139431"><ele>494.0</ele><time>2026-03-29T08:38:14.46Z</time></trkpt><trkpt lat="43.5764718" lon="12.7140287"><ele>494.0</ele><time>2026-03-29T08:38:15.459Z</time></trkpt><trkpt lat="43.5765004" lon="12.7141645"><ele>494.66666666666663</ele><time>2026-03-29T08:38:17.46Z</time></trkpt><trkpt lat="43.5765365" lon="12.7142501"><ele>495.3333333333333</ele><time>2026-03-29T08:38:29.46Z</time></trkpt><trkpt lat="43.5766296" lon="12.7142939"><ele>496.0</ele><time>2026-03-29T08:38:32.459Z</time></trkpt><trkpt lat="43.5766968" lon="12.7142283"><ele>496.66666666666663</ele><time>2026-03-29T08:38:34.462Z</time></trkpt><trkpt lat="43.5767267" lon="12.7140683"><ele>497.3333333333333</ele><time>2026-03-29T08:38:36.461Z</time></trkpt><trkpt lat="43.5767364" lon="12.7139673"><ele>498.0</ele><time>2026-03-29T08:38:37.46Z</time></trkpt><trkpt lat="43.5767539" lon="12.7138558"><ele>498.0</ele><time>2026-03-29T08:38:38.459Z</time></trkpt><trkpt lat="43.5767807" lon="12.7137479"><ele>498.0</ele><time>2026-03-29T08:38:39.459Z</time></trkpt><trkpt lat="43.5768187" lon="12.7136405"><ele>498.0</ele><time>2026-03-29T08:38:40.461Z</time></trkpt><trkpt lat="43.5768724" lon="12.713551"><ele>498.0</ele><time>2026-03-29T08:38:41.46Z</time></trkpt><trkpt lat="43.5769382" lon="12.7134736"><ele>498.0</ele><time>2026-03-29T08:38:42.46Z</time></trkpt><trkpt lat="43.5770131" lon="12.7134089"><ele>498.0</ele><time>2026-03-29T08:38:43.46Z</time></trkpt><trkpt lat="43.5770954" lon="12.7133536"><ele>496.1666666666667</ele><time>2026-03-29T08:38:44.46Z</time></trkpt><trkpt lat="43.5771793" lon="12.7133113"><ele>494.33333333333337</ele><time>2026-03-29T08:38:45.46Z</time></trkpt><trkpt lat="43.577264" lon="12.7132843"><ele>492.5</ele><time>2026-03-29T08:38:46.461Z</time></trkpt><trkpt lat="43.5773434" lon="12.7132592"><ele>490.6666666666667</ele><time>2026-03-29T08:38:47.461Z</time></trkpt><trkpt lat="43.5774081" lon="12.713241"><ele>488.83333333333337</ele><time>2026-03-29T08:38:48.461Z</time></trkpt><trkpt lat="43.5775104" lon="12.7132429"><ele>487.0</ele><time>2026-03-29T08:38:50.46Z</time></trkpt><trkpt lat="43.5776203" lon="12.7133086"><ele>487.0</ele><time>2026-03-29T08:38:52.46Z</time></trkpt><trkpt lat="43.5776822" lon="12.7133488"><ele>487.0</ele><time>2026-03-29T08:38:53.461Z</time></trkpt><trkpt lat="43.5777442" lon="12.7133719"><ele>487.0</ele><time>2026-03-29T08:38:54.461Z</time></trkpt><trkpt lat="43.5778094" lon="12.7133674"><ele>487.0</ele><time>2026-03-29T08:38:55.46Z</time></trkpt><trkpt lat="43.5778774" lon="12.7133403"><ele>487.0</ele><time>2026-03-29T08:38:56.46Z</time></trkpt><trkpt lat="43.577948" lon="12.713305"><ele>487.0</ele><time>2026-03-29T08:38:57.46Z</time></trkpt><trkpt lat="43.5780173" lon="12.7132706"><ele>487.0</ele><time>2026-03-29T08:38:58.46Z</time></trkpt><trkpt lat="43.5780807" lon="12.7132221"><ele>485.20000000000005</ele><time>2026-03-29T08:38:59.462Z</time></trkpt><trkpt lat="43.5781389" lon="12.7131541"><ele>483.40000000000003</ele><time>2026-03-29T08:39:00.46Z</time></trkpt><trkpt lat="43.5781865" lon="12.7130572"><ele>481.59999999999997</ele><time>2026-03-29T08:39:01.459Z</time></trkpt><trkpt lat="43.5782265" lon="12.7129504"><ele>479.79999999999995</ele><time>2026-03-29T08:39:02.459Z</time></trkpt><trkpt lat="43.5782548" lon="12.7128166"><ele>478.0</ele><time>2026-03-29T08:39:03.46Z</time></trkpt><trkpt lat="43.5782818" lon="12.712683"><ele>478.00000000000006</ele><time>2026-03-29T08:39:04.46Z</time></trkpt><trkpt lat="43.578314" lon="12.7125643"><ele>478.0</ele><time>2026-03-29T08:39:05.46Z</time></trkpt><trkpt lat="43.5783522" lon="12.7124667"><ele>478.0</ele><time>2026-03-29T08:39:06.46Z</time></trkpt><trkpt lat="43.5784113" lon="12.7123949"><ele>478.0</ele><time>2026-03-29T08:39:07.46Z</time></trkpt><trkpt lat="43.5784746" lon="12.7123371"><ele>478.00000000000006</ele><time>2026-03-29T08:39:08.46Z</time></trkpt><trkpt lat="43.578574" lon="12.7123271"><ele>478.0</ele><time>2026-03-29T08:39:09.46Z</time></trkpt><trkpt lat="43.5786538" lon="12.7123251"><ele>474.1666666666667</ele><time>2026-03-29T08:39:10.459Z</time></trkpt><trkpt lat="43.5787297" lon="12.7123156"><ele>470.33333333333337</ele><time>2026-03-29T08:39:11.46Z</time></trkpt><trkpt lat="43.578796" lon="12.7122896"><ele>466.5</ele><time>2026-03-29T08:39:12.462Z</time></trkpt><trkpt lat="43.5788579" lon="12.7122294"><ele>462.66666666666663</ele><time>2026-03-29T08:39:13.461Z</time></trkpt><trkpt lat="43.5789004" lon="12.7120929"><ele>458.8333333333333</ele><time>2026-03-29T08:39:15.46Z</time></trkpt><trkpt lat="43.5789378" lon="12.7120051"><ele>455.0</ele><time>2026-03-29T08:39:17.459Z</time></trkpt><trkpt lat="43.5790181" lon="12.7120431"><ele>454.99999999999994</ele><time>2026-03-29T08:39:20.46Z</time></trkpt><trkpt lat="43.5790435" lon="12.7121926"><ele>455.0</ele><time>2026-03-29T08:39:22.46Z</time></trkpt><trkpt lat="43.5790793" lon="12.71229"><ele>455.0</ele><time>2026-03-29T08:39:23.461Z</time></trkpt><trkpt lat="43.579109" lon="12.7123845"><ele>455.0</ele><time>2026-03-29T08:39:24.46Z</time></trkpt><trkpt lat="43.5791364" lon="12.7124843"><ele>454.99999999999994</ele><time>2026-03-29T08:39:25.461Z</time></trkpt><trkpt lat="43.5791659" lon="12.7125766"><ele>455.0</ele><time>2026-03-29T08:39:26.46Z</time></trkpt><trkpt lat="43.5791873" lon="12.712749"><ele>455.3333333333333</ele><time>2026-03-29T08:39:28.461Z</time></trkpt><trkpt lat="43.5791901" lon="12.7128497"><ele>455.66666666666663</ele><time>2026-03-29T08:39:29.46Z</time></trkpt><trkpt lat="43.5791799" lon="12.7129559"><ele>456.0</ele><time>2026-03-29T08:39:30.46Z</time></trkpt><trkpt lat="43.5791578" lon="12.7130551"><ele>456.33333333333337</ele><time>2026-03-29T08:39:31.46Z</time></trkpt><trkpt lat="43.5791254" lon="12.7132051"><ele>456.6666666666667</ele><time>2026-03-29T08:39:33.459Z</time></trkpt><trkpt lat="43.579169" lon="12.7132981"><ele>457.0</ele><time>2026-03-29T08:39:35.46Z</time></trkpt><trkpt lat="43.5792894" lon="12.7132706"><ele>457.00000000000006</ele><time>2026-03-29T08:39:37.46Z</time></trkpt><trkpt lat="43.5793591" lon="12.7132243"><ele>457.0</ele><time>2026-03-29T08:39:38.46Z</time></trkpt><trkpt lat="43.5794281" lon="12.7131851"><ele>457.0</ele><time>2026-03-29T08:39:39.46Z</time></trkpt><trkpt lat="43.5795076" lon="12.7131553"><ele>457.0</ele><time>2026-03-29T08:39:40.46Z</time></trkpt><trkpt lat="43.5795764" lon="12.7131023"><ele>457.00000000000006</ele><time>2026-03-29T08:39:41.46Z</time></trkpt><trkpt lat="43.5796519" lon="12.7130617"><ele>457.0</ele><time>2026-03-29T08:39:42.462Z</time></trkpt><trkpt lat="43.5797128" lon="12.713015"><ele>455.83333333333337</ele><time>2026-03-29T08:39:43.46Z</time></trkpt><trkpt lat="43.5797727" lon="12.7129612"><ele>454.6666666666667</ele><time>2026-03-29T08:39:44.459Z</time></trkpt><trkpt lat="43.5798321" lon="12.7129135"><ele>453.5</ele><time>2026-03-29T08:39:45.46Z</time></trkpt><trkpt lat="43.5798782" lon="12.7128457"><ele>452.33333333333337</ele><time>2026-03-29T08:39:46.46Z</time></trkpt><trkpt lat="43.5799844" lon="12.712739"><ele>451.1666666666667</ele><time>2026-03-29T08:39:48.461Z</time></trkpt><trkpt lat="43.5800414" lon="12.7126785"><ele>450.0</ele><time>2026-03-29T08:39:49.46Z</time></trkpt><trkpt lat="43.5800921" lon="12.7126208"><ele>447.2</ele><time>2026-03-29T08:39:50.459Z</time></trkpt><trkpt lat="43.5801504" lon="12.7125448"><ele>444.4</ele><time>2026-03-29T08:39:51.459Z</time></trkpt><trkpt lat="43.580213" lon="12.7124609"><ele>441.6</ele><time>2026-03-29T08:39:52.46Z</time></trkpt><trkpt lat="43.5802767" lon="12.7123644"><ele>438.8</ele><time>2026-03-29T08:39:53.462Z</time></trkpt><trkpt lat="43.5803489" lon="12.7122735"><ele>436.0</ele><time>2026-03-29T08:39:54.461Z</time></trkpt><trkpt lat="43.5804311" lon="12.7121789"><ele>434.20000000000005</ele><time>2026-03-29T08:39:55.46Z</time></trkpt><trkpt lat="43.5804698" lon="12.7120772"><ele>432.40000000000003</ele><time>2026-03-29T08:39:56.459Z</time></trkpt><trkpt lat="43.5805241" lon="12.7119587"><ele>430.6</ele><time>2026-03-29T08:39:57.46Z</time></trkpt><trkpt lat="43.5805699" lon="12.7118338"><ele>428.8</ele><time>2026-03-29T08:39:58.46Z</time></trkpt><trkpt lat="43.5806041" lon="12.7116958"><ele>427.0</ele><time>2026-03-29T08:39:59.459Z</time></trkpt><trkpt lat="43.5806471" lon="12.7115573"><ele>427.0</ele><time>2026-03-29T08:40:00.46Z</time></trkpt><trkpt lat="43.5806886" lon="12.711427"><ele>427.00000000000006</ele><time>2026-03-29T08:40:01.46Z</time></trkpt><trkpt lat="43.5807374" lon="12.7112907"><ele>427.00000000000006</ele><time>2026-03-29T08:40:02.459Z</time></trkpt><trkpt lat="43.5807945" lon="12.7111583"><ele>427.0</ele><time>2026-03-29T08:40:03.46Z</time></trkpt><trkpt lat="43.5808529" lon="12.7110253"><ele>427.0</ele><time>2026-03-29T08:40:04.461Z</time></trkpt><trkpt lat="43.5808952" lon="12.7108929"><ele>425.0</ele><time>2026-03-29T08:40:05.46Z</time></trkpt><trkpt lat="43.5809286" lon="12.7107631"><ele>423.00000000000006</ele><time>2026-03-29T08:40:06.461Z</time></trkpt><trkpt lat="43.5809712" lon="12.7106377"><ele>421.0</ele><time>2026-03-29T08:40:07.461Z</time></trkpt><trkpt lat="43.5810109" lon="12.7105071"><ele>419.0</ele><time>2026-03-29T08:40:08.46Z</time></trkpt><trkpt lat="43.5810477" lon="12.7103901"><ele>417.0</ele><time>2026-03-29T08:40:09.46Z</time></trkpt><trkpt lat="43.5810952" lon="12.7102753"><ele>415.5</ele><time>2026-03-29T08:40:10.461Z</time></trkpt><trkpt lat="43.5811396" lon="12.7101779"><ele>414.0</ele><time>2026-03-29T08:40:11.46Z</time></trkpt><trkpt lat="43.5811996" lon="12.7100885"><ele>412.5</ele><time>2026-03-29T08:40:12.46Z</time></trkpt><trkpt lat="43.5812743" lon="12.7100137"><ele>411.0</ele><time>2026-03-29T08:40:13.46Z</time></trkpt><trkpt lat="43.5813495" lon="12.709945"><ele>409.5</ele><time>2026-03-29T08:40:14.461Z</time></trkpt><trkpt lat="43.5814289" lon="12.7098814"><ele>408.0</ele><time>2026-03-29T08:40:15.46Z</time></trkpt><trkpt lat="43.5814883" lon="12.7098132"><ele>408.0</ele><time>2026-03-29T08:40:16.459Z</time></trkpt><trkpt lat="43.5815463" lon="12.7097322"><ele>408.0</ele><time>2026-03-29T08:40:17.459Z</time></trkpt><trkpt lat="43.5816041" lon="12.7096556"><ele>408.0</ele><time>2026-03-29T08:40:18.46Z</time></trkpt><trkpt lat="43.5816578" lon="12.7095951"><ele>408.0</ele><time>2026-03-29T08:40:19.461Z</time></trkpt><trkpt lat="43.5817206" lon="12.7095544"><ele>408.0</ele><time>2026-03-29T08:40:20.46Z</time></trkpt><trkpt lat="43.5817858" lon="12.7095342"><ele>408.0</ele><time>2026-03-29T08:40:21.459Z</time></trkpt><trkpt lat="43.581855" lon="12.7095313"><ele>408.0</ele><time>2026-03-29T08:40:22.46Z</time></trkpt><trkpt lat="43.5819287" lon="12.7095553"><ele>408.0</ele><time>2026-03-29T08:40:23.461Z</time></trkpt><trkpt lat="43.5820102" lon="12.709603"><ele>408.0</ele><time>2026-03-29T08:40:24.459Z</time></trkpt><trkpt lat="43.5820804" lon="12.7096655"><ele>408.0</ele><time>2026-03-29T08:40:25.459Z</time></trkpt><trkpt lat="43.5821552" lon="12.7097466"><ele>408.0</ele><time>2026-03-29T08:40:26.461Z</time></trkpt><trkpt lat="43.5822297" lon="12.7098301"><ele>408.0</ele><time>2026-03-29T08:40:27.46Z</time></trkpt><trkpt lat="43.5822974" lon="12.7099179"><ele>408.3333333333333</ele><time>2026-03-29T08:40:28.46Z</time></trkpt><trkpt lat="43.5823438" lon="12.7100131"><ele>408.66666666666663</ele><time>2026-03-29T08:40:29.461Z</time></trkpt><trkpt lat="43.5823847" lon="12.7101094"><ele>409.0</ele><time>2026-03-29T08:40:30.459Z</time></trkpt><trkpt lat="43.5824411" lon="12.7101853"><ele>409.3333333333333</ele><time>2026-03-29T08:40:31.46Z</time></trkpt><trkpt lat="43.5825152" lon="12.710247"><ele>409.66666666666663</ele><time>2026-03-29T08:40:32.46Z</time></trkpt><trkpt lat="43.5825977" lon="12.7103026"><ele>410.0</ele><time>2026-03-29T08:40:33.461Z</time></trkpt><trkpt lat="43.582666" lon="12.7103781"><ele>409.99999999999994</ele><time>2026-03-29T08:40:34.459Z</time></trkpt><trkpt lat="43.5827264" lon="12.7104679"><ele>410.0</ele><time>2026-03-29T08:40:35.46Z</time></trkpt><trkpt lat="43.5827848" lon="12.7105509"><ele>410.0</ele><time>2026-03-29T08:40:36.462Z</time></trkpt><trkpt lat="43.5828438" lon="12.7106219"><ele>410.0</ele><time>2026-03-29T08:40:37.461Z</time></trkpt><trkpt lat="43.5828843" lon="12.7106909"><ele>409.99999999999994</ele><time>2026-03-29T08:40:38.46Z</time></trkpt><trkpt lat="43.5829343" lon="12.7107562"><ele>410.0</ele><time>2026-03-29T08:40:39.461Z</time></trkpt><trkpt lat="43.5830219" lon="12.7108694"><ele>407.99999999999994</ele><time>2026-03-29T08:40:41.46Z</time></trkpt><trkpt lat="43.5830813" lon="12.7109413"><ele>406.0</ele><time>2026-03-29T08:40:43.459Z</time></trkpt><trkpt lat="43.5831358" lon="12.711028"><ele>404.0</ele><time>2026-03-29T08:40:45.46Z</time></trkpt><trkpt lat="43.5831794" lon="12.7111794"><ele>402.0</ele><time>2026-03-29T08:40:47.461Z</time></trkpt><trkpt lat="43.5832045" lon="12.7112655"><ele>399.99999999999994</ele><time>2026-03-29T08:40:48.46Z</time></trkpt><trkpt lat="43.5832444" lon="12.7113578"><ele>398.0</ele><time>2026-03-29T08:40:49.46Z</time></trkpt><trkpt lat="43.5832923" lon="12.7114606"><ele>398.0</ele><time>2026-03-29T08:40:50.461Z</time></trkpt><trkpt lat="43.5833351" lon="12.7115705"><ele>398.0</ele><time>2026-03-29T08:40:51.461Z</time></trkpt><trkpt lat="43.5833881" lon="12.7116797"><ele>398.0</ele><time>2026-03-29T08:40:52.46Z</time></trkpt><trkpt lat="43.583441" lon="12.7117735"><ele>398.0</ele><time>2026-03-29T08:40:53.459Z</time></trkpt><trkpt lat="43.5834935" lon="12.7118737"><ele>398.0</ele><time>2026-03-29T08:40:54.46Z</time></trkpt><trkpt lat="43.5835516" lon="12.7119727"><ele>398.59999999999997</ele><time>2026-03-29T08:40:55.461Z</time></trkpt><trkpt lat="43.5836079" lon="12.7120864"><ele>399.2</ele><time>2026-03-29T08:40:56.46Z</time></trkpt><trkpt lat="43.5836697" lon="12.7122079"><ele>399.8</ele><time>2026-03-29T08:40:57.46Z</time></trkpt><trkpt lat="43.5837165" lon="12.7123262"><ele>400.4</ele><time>2026-03-29T08:40:58.46Z</time></trkpt><trkpt lat="43.583765" lon="12.7124265"><ele>401.0</ele><time>2026-03-29T08:40:59.462Z</time></trkpt><trkpt lat="43.5838143" lon="12.7125124"><ele>402.66666666666663</ele><time>2026-03-29T08:41:00.459Z</time></trkpt><trkpt lat="43.5838654" lon="12.7125785"><ele>404.3333333333333</ele><time>2026-03-29T08:41:01.459Z</time></trkpt><trkpt lat="43.5839265" lon="12.7126673"><ele>406.0</ele><time>2026-03-29T08:41:03.461Z</time></trkpt><trkpt lat="43.5839798" lon="12.7127526"><ele>407.66666666666663</ele><time>2026-03-29T08:41:06.46Z</time></trkpt><trkpt lat="43.583942" lon="12.7128628"><ele>409.3333333333333</ele><time>2026-03-29T08:41:23.46Z</time></trkpt><trkpt lat="43.5838955" lon="12.7129273"><ele>411.0</ele><time>2026-03-29T08:41:25.46Z</time></trkpt><trkpt lat="43.5838331" lon="12.7130042"><ele>410.5</ele><time>2026-03-29T08:41:28.459Z</time></trkpt><trkpt lat="43.5837729" lon="12.7130688"><ele>410.0</ele><time>2026-03-29T08:41:31.46Z</time></trkpt><trkpt lat="43.5836866" lon="12.7131065"><ele>409.5</ele><time>2026-03-29T08:41:34.459Z</time></trkpt><trkpt lat="43.5836074" lon="12.7131347"><ele>409.0</ele><time>2026-03-29T08:41:36.459Z</time></trkpt><trkpt lat="43.5835304" lon="12.7131892"><ele>408.5</ele><time>2026-03-29T08:41:38.46Z</time></trkpt><trkpt lat="43.5834594" lon="12.7132594"><ele>408.0</ele><time>2026-03-29T08:41:40.46Z</time></trkpt><trkpt lat="43.5834088" lon="12.7133227"><ele>408.0</ele><time>2026-03-29T08:41:42.46Z</time></trkpt><trkpt lat="43.583364" lon="12.7133917"><ele>408.0</ele><time>2026-03-29T08:41:55.46Z</time></trkpt><trkpt lat="43.5832854" lon="12.713494"><ele>408.0</ele><time>2026-03-29T08:41:57.46Z</time></trkpt><trkpt lat="43.5831915" lon="12.7136105"><ele>408.0</ele><time>2026-03-29T08:41:59.459Z</time></trkpt><trkpt lat="43.5831006" lon="12.7137104"><ele>408.0</ele><time>2026-03-29T08:42:01.46Z</time></trkpt><trkpt lat="43.5830128" lon="12.7138024"><ele>409.59999999999997</ele><time>2026-03-29T08:42:03.459Z</time></trkpt><trkpt lat="43.582928" lon="12.7138908"><ele>411.2</ele><time>2026-03-29T08:42:05.461Z</time></trkpt><trkpt lat="43.582846" lon="12.713983"><ele>412.8</ele><time>2026-03-29T08:42:07.461Z</time></trkpt><trkpt lat="43.5827558" lon="12.7140654"><ele>414.4</ele><time>2026-03-29T08:42:09.459Z</time></trkpt><trkpt lat="43.5827052" lon="12.7141175"><ele>416.0</ele><time>2026-03-29T08:42:10.459Z</time></trkpt><trkpt lat="43.5826091" lon="12.7141966"><ele>415.99999999999994</ele><time>2026-03-29T08:42:12.461Z</time></trkpt><trkpt lat="43.5825338" lon="12.7142115"><ele>416.0</ele><time>2026-03-29T08:42:14.459Z</time></trkpt><trkpt lat="43.5824635" lon="12.7142304"><ele>416.0</ele><time>2026-03-29T08:42:18.46Z</time></trkpt><trkpt lat="43.5825409" lon="12.7142489"><ele>416.0</ele><time>2026-03-29T08:42:24.461Z</time></trkpt><trkpt lat="43.5826195" lon="12.714194"><ele>415.99999999999994</ele><time>2026-03-29T08:42:27.461Z</time></trkpt><trkpt lat="43.582679" lon="12.7141331"><ele>416.0</ele><time>2026-03-29T08:42:29.459Z</time></trkpt><trkpt lat="43.5827431" lon="12.714068"><ele>416.0</ele><time>2026-03-29T08:42:31.462Z</time></trkpt><trkpt lat="43.5828134" lon="12.713998"><ele>416.0</ele><time>2026-03-29T08:42:33.46Z</time></trkpt><trkpt lat="43.5828845" lon="12.7139155"><ele>416.0</ele><time>2026-03-29T08:42:35.461Z</time></trkpt><trkpt lat="43.5829637" lon="12.7138344"><ele>416.0</ele><time>2026-03-29T08:42:37.461Z</time></trkpt><trkpt lat="43.5830452" lon="12.7137487"><ele>416.0</ele><time>2026-03-29T08:42:39.46Z</time></trkpt><trkpt lat="43.5831349" lon="12.7136531"><ele>414.4</ele><time>2026-03-29T08:42:41.461Z</time></trkpt><trkpt lat="43.583217" lon="12.7135537"><ele>412.8</ele><time>2026-03-29T08:42:43.46Z</time></trkpt><trkpt lat="43.5832887" lon="12.7134661"><ele>411.2</ele><time>2026-03-29T08:42:45.459Z</time></trkpt><trkpt lat="43.5833656" lon="12.7133712"><ele>409.59999999999997</ele><time>2026-03-29T08:42:47.46Z</time></trkpt><trkpt lat="43.5834282" lon="12.7132942"><ele>408.0</ele><time>2026-03-29T08:42:49.459Z</time></trkpt><trkpt lat="43.5834821" lon="12.7132374"><ele>408.0</ele><time>2026-03-29T08:42:51.459Z</time></trkpt><trkpt lat="43.5835461" lon="12.713183"><ele>408.0</ele><time>2026-03-29T08:42:53.461Z</time></trkpt><trkpt lat="43.5836225" lon="12.7131343"><ele>408.0</ele><time>2026-03-29T08:42:56.46Z</time></trkpt><trkpt lat="43.5836996" lon="12.7131153"><ele>408.0</ele><time>2026-03-29T08:43:00.46Z</time></trkpt><trkpt lat="43.5837654" lon="12.7130727"><ele>408.0</ele><time>2026-03-29T08:43:03.46Z</time></trkpt><trkpt lat="43.5838284" lon="12.7130232"><ele>408.0</ele><time>2026-03-29T08:43:05.461Z</time></trkpt><trkpt lat="43.5838924" lon="12.7129527"><ele>409.14285714285717</ele><time>2026-03-29T08:43:07.461Z</time></trkpt><trkpt lat="43.5839452" lon="12.7128919"><ele>410.28571428571433</ele><time>2026-03-29T08:43:09.46Z</time></trkpt><trkpt lat="43.5839894" lon="12.7128198"><ele>411.42857142857144</ele><time>2026-03-29T08:43:18.461Z</time></trkpt><trkpt lat="43.5840763" lon="12.7128283"><ele>412.57142857142856</ele><time>2026-03-29T08:43:26.46Z</time></trkpt><trkpt lat="43.5841396" lon="12.7128879"><ele>413.7142857142857</ele><time>2026-03-29T08:43:28.461Z</time></trkpt><trkpt lat="43.5842071" lon="12.7129272"><ele>414.85714285714283</ele><time>2026-03-29T08:43:30.46Z</time></trkpt><trkpt lat="43.5842697" lon="12.7129144"><ele>416.0</ele><time>2026-03-29T08:43:32.461Z</time></trkpt><trkpt lat="43.584336" lon="12.7128542"><ele>415.16666666666663</ele><time>2026-03-29T08:43:34.46Z</time></trkpt><trkpt lat="43.5843512" lon="12.7127151"><ele>414.3333333333333</ele><time>2026-03-29T08:43:36.459Z</time></trkpt><trkpt lat="43.5843581" lon="12.7125463"><ele>413.5</ele><time>2026-03-29T08:43:38.46Z</time></trkpt><trkpt lat="43.5843761" lon="12.712462"><ele>412.66666666666663</ele><time>2026-03-29T08:43:39.461Z</time></trkpt><trkpt lat="43.5843704" lon="12.7123716"><ele>411.8333333333333</ele><time>2026-03-29T08:43:40.46Z</time></trkpt><trkpt lat="43.5843607" lon="12.7122704"><ele>411.0</ele><time>2026-03-29T08:43:41.46Z</time></trkpt><trkpt lat="43.5843585" lon="12.71218"><ele>411.0</ele><time>2026-03-29T08:43:42.461Z</time></trkpt><trkpt lat="43.5843532" lon="12.7120684"><ele>411.0</ele><time>2026-03-29T08:43:43.459Z</time></trkpt><trkpt lat="43.5843476" lon="12.7119576"><ele>411.0</ele><time>2026-03-29T08:43:44.46Z</time></trkpt><trkpt lat="43.584341" lon="12.7118426"><ele>411.0</ele><time>2026-03-29T08:43:45.46Z</time></trkpt><trkpt lat="43.5843743" lon="12.7117538"><ele>411.0</ele><time>2026-03-29T08:43:46.46Z</time></trkpt><trkpt lat="43.5844116" lon="12.7116717"><ele>411.0</ele><time>2026-03-29T08:43:47.461Z</time></trkpt><trkpt lat="43.584456" lon="12.711601"><ele>411.2857142857143</ele><time>2026-03-29T08:43:48.461Z</time></trkpt><trkpt lat="43.5845083" lon="12.7115225"><ele>411.57142857142856</ele><time>2026-03-29T08:43:49.459Z</time></trkpt><trkpt lat="43.5845327" lon="12.7114395"><ele>411.8571428571429</ele><time>2026-03-29T08:43:50.46Z</time></trkpt><trkpt lat="43.5845614" lon="12.7113484"><ele>412.1428571428571</ele><time>2026-03-29T08:43:51.461Z</time></trkpt><trkpt lat="43.5845729" lon="12.7112477"><ele>412.42857142857144</ele><time>2026-03-29T08:43:52.46Z</time></trkpt><trkpt lat="43.5845993" lon="12.7111507"><ele>412.7142857142857</ele><time>2026-03-29T08:43:53.46Z</time></trkpt><trkpt lat="43.5846248" lon="12.7110595"><ele>413.0</ele><time>2026-03-29T08:43:54.46Z</time></trkpt><trkpt lat="43.5846758" lon="12.7109974"><ele>416.49999999999994</ele><time>2026-03-29T08:43:55.46Z</time></trkpt><trkpt lat="43.5847328" lon="12.710932"><ele>420.0</ele><time>2026-03-29T08:43:56.46Z</time></trkpt><trkpt lat="43.5847886" lon="12.7108704"><ele>423.5</ele><time>2026-03-29T08:43:57.461Z</time></trkpt><trkpt lat="43.5848528" lon="12.7108105"><ele>427.0</ele><time>2026-03-29T08:43:58.46Z</time></trkpt><trkpt lat="43.5849184" lon="12.7107462"><ele>430.49999999999994</ele><time>2026-03-29T08:43:59.46Z</time></trkpt><trkpt lat="43.5849958" lon="12.7106852"><ele>434.0</ele><time>2026-03-29T08:44:00.461Z</time></trkpt><trkpt lat="43.5850595" lon="12.7106242"><ele>434.0</ele><time>2026-03-29T08:44:01.459Z</time></trkpt><trkpt lat="43.5851169" lon="12.7105615"><ele>434.0</ele><time>2026-03-29T08:44:02.46Z</time></trkpt><trkpt lat="43.5851664" lon="12.7104952"><ele>434.0</ele><time>2026-03-29T08:44:03.461Z</time></trkpt><trkpt lat="43.5852167" lon="12.7104272"><ele>434.0</ele><time>2026-03-29T08:44:04.461Z</time></trkpt><trkpt lat="43.5852649" lon="12.7103597"><ele>434.0</ele><time>2026-03-29T08:44:05.461Z</time></trkpt><trkpt lat="43.5853356" lon="12.7102698"><ele>434.0</ele><time>2026-03-29T08:44:07.461Z</time></trkpt><trkpt lat="43.5853809" lon="12.7101978"><ele>434.0</ele><time>2026-03-29T08:44:09.459Z</time></trkpt><trkpt lat="43.5854524" lon="12.7100803"><ele>436.16666666666663</ele><time>2026-03-29T08:44:11.459Z</time></trkpt><trkpt lat="43.5854939" lon="12.710005"><ele>438.3333333333333</ele><time>2026-03-29T08:44:12.459Z</time></trkpt><trkpt lat="43.5855468" lon="12.7099218"><ele>440.5</ele><time>2026-03-29T08:44:13.46Z</time></trkpt><trkpt lat="43.5855823" lon="12.7098298"><ele>442.66666666666663</ele><time>2026-03-29T08:44:14.462Z</time></trkpt><trkpt lat="43.585629" lon="12.7097436"><ele>444.8333333333333</ele><time>2026-03-29T08:44:15.46Z</time></trkpt><trkpt lat="43.5856724" lon="12.7096488"><ele>447.0</ele><time>2026-03-29T08:44:16.461Z</time></trkpt><trkpt lat="43.5857265" lon="12.7095562"><ele>447.0</ele><time>2026-03-29T08:44:17.459Z</time></trkpt><trkpt lat="43.5857821" lon="12.7094516"><ele>447.00000000000006</ele><time>2026-03-29T08:44:18.46Z</time></trkpt><trkpt lat="43.5858302" lon="12.7093466"><ele>447.00000000000006</ele><time>2026-03-29T08:44:19.461Z</time></trkpt><trkpt lat="43.5858934" lon="12.7092436"><ele>447.0</ele><time>2026-03-29T08:44:20.459Z</time></trkpt><trkpt lat="43.5859603" lon="12.7091506"><ele>447.0</ele><time>2026-03-29T08:44:21.459Z</time></trkpt><trkpt lat="43.5860377" lon="12.7090454"><ele>446.20000000000005</ele><time>2026-03-29T08:44:22.459Z</time></trkpt><trkpt lat="43.5861112" lon="12.7089468"><ele>445.40000000000003</ele><time>2026-03-29T08:44:23.461Z</time></trkpt><trkpt lat="43.5861847" lon="12.7088452"><ele>444.59999999999997</ele><time>2026-03-29T08:44:24.461Z</time></trkpt><trkpt lat="43.5862581" lon="12.7087461"><ele>443.79999999999995</ele><time>2026-03-29T08:44:25.46Z</time></trkpt><trkpt lat="43.5863196" lon="12.7086397"><ele>443.0</ele><time>2026-03-29T08:44:26.46Z</time></trkpt><trkpt lat="43.5863856" lon="12.7085219"><ele>443.0</ele><time>2026-03-29T08:44:27.46Z</time></trkpt><trkpt lat="43.5864302" lon="12.7083986"><ele>442.99999999999994</ele><time>2026-03-29T08:44:28.46Z</time></trkpt><trkpt lat="43.586483" lon="12.7082838"><ele>442.99999999999994</ele><time>2026-03-29T08:44:29.46Z</time></trkpt><trkpt lat="43.5865272" lon="12.7081643"><ele>443.0</ele><time>2026-03-29T08:44:30.46Z</time></trkpt><trkpt lat="43.5865527" lon="12.7080491"><ele>443.0</ele><time>2026-03-29T08:44:31.461Z</time></trkpt><trkpt lat="43.5865661" lon="12.7079455"><ele>442.99999999999994</ele><time>2026-03-29T08:44:32.46Z</time></trkpt><trkpt lat="43.5865518" lon="12.7078475"><ele>443.0</ele><time>2026-03-29T08:44:33.46Z</time></trkpt><trkpt lat="43.5865175" lon="12.707761"><ele>443.0</ele><time>2026-03-29T08:44:34.46Z</time></trkpt><trkpt lat="43.5864652" lon="12.7077055"><ele>443.0</ele><time>2026-03-29T08:44:35.459Z</time></trkpt><trkpt lat="43.586401" lon="12.7076748"><ele>442.99999999999994</ele><time>2026-03-29T08:44:36.461Z</time></trkpt><trkpt lat="43.586273" lon="12.7077203"><ele>443.0</ele><time>2026-03-29T08:44:38.459Z</time></trkpt><trkpt lat="43.5861993" lon="12.7077733"><ele>440.49999999999994</ele><time>2026-03-29T08:44:39.46Z</time></trkpt><trkpt lat="43.5861249" lon="12.7078272"><ele>438.0</ele><time>2026-03-29T08:44:40.46Z</time></trkpt><trkpt lat="43.5860515" lon="12.7078658"><ele>435.5</ele><time>2026-03-29T08:44:41.46Z</time></trkpt><trkpt lat="43.5859694" lon="12.7078983"><ele>433.0</ele><time>2026-03-29T08:44:42.46Z</time></trkpt><trkpt lat="43.5858922" lon="12.7078999"><ele>430.49999999999994</ele><time>2026-03-29T08:44:43.46Z</time></trkpt><trkpt lat="43.5858174" lon="12.7078991"><ele>428.0</ele><time>2026-03-29T08:44:44.461Z</time></trkpt><trkpt lat="43.5857465" lon="12.7078906"><ele>427.99999999999994</ele><time>2026-03-29T08:44:45.46Z</time></trkpt><trkpt lat="43.5856692" lon="12.7078912"><ele>428.0</ele><time>2026-03-29T08:44:46.46Z</time></trkpt><trkpt lat="43.5855955" lon="12.7078695"><ele>428.0</ele><time>2026-03-29T08:44:47.46Z</time></trkpt><trkpt lat="43.5854906" lon="12.7077901"><ele>428.0</ele><time>2026-03-29T08:44:49.461Z</time></trkpt><trkpt lat="43.5854304" lon="12.7077453"><ele>427.99999999999994</ele><time>2026-03-29T08:44:50.461Z</time></trkpt><trkpt lat="43.585379" lon="12.7076221"><ele>428.0</ele><time>2026-03-29T08:44:51.461Z</time></trkpt><trkpt lat="43.5853279" lon="12.7075444"><ele>430.8333333333333</ele><time>2026-03-29T08:44:52.461Z</time></trkpt><trkpt lat="43.5852713" lon="12.70748"><ele>433.66666666666663</ele><time>2026-03-29T08:44:53.459Z</time></trkpt><trkpt lat="43.585202" lon="12.7074138"><ele>436.5</ele><time>2026-03-29T08:44:54.461Z</time></trkpt><trkpt lat="43.5851319" lon="12.7073579"><ele>439.33333333333337</ele><time>2026-03-29T08:44:55.46Z</time></trkpt><trkpt lat="43.5850587" lon="12.7073121"><ele>442.1666666666667</ele><time>2026-03-29T08:44:56.46Z</time></trkpt><trkpt lat="43.5849908" lon="12.7072855"><ele>445.0</ele><time>2026-03-29T08:44:57.459Z</time></trkpt><trkpt lat="43.5849248" lon="12.7072775"><ele>445.0</ele><time>2026-03-29T08:44:58.46Z</time></trkpt><trkpt lat="43.5848586" lon="12.7072779"><ele>445.0</ele><time>2026-03-29T08:44:59.46Z</time></trkpt><trkpt lat="43.5847887" lon="12.7072804"><ele>445.0</ele><time>2026-03-29T08:45:00.46Z</time></trkpt><trkpt lat="43.5847183" lon="12.707293"><ele>445.0</ele><time>2026-03-29T08:45:01.46Z</time></trkpt><trkpt lat="43.5846524" lon="12.7073045"><ele>445.0</ele><time>2026-03-29T08:45:02.46Z</time></trkpt><trkpt lat="43.5845597" lon="12.707303"><ele>445.0</ele><time>2026-03-29T08:45:04.459Z</time></trkpt><trkpt lat="43.5844912" lon="12.7072604"><ele>445.0</ele><time>2026-03-29T08:45:07.461Z</time></trkpt><trkpt lat="43.5844341" lon="12.7071839"><ele>444.8</ele><time>2026-03-29T08:45:09.461Z</time></trkpt><trkpt lat="43.5844025" lon="12.7070769"><ele>444.6</ele><time>2026-03-29T08:45:11.461Z</time></trkpt><trkpt lat="43.5844057" lon="12.7069461"><ele>444.4</ele><time>2026-03-29T08:45:13.46Z</time></trkpt><trkpt lat="43.584433" lon="12.7067997"><ele>444.2</ele><time>2026-03-29T08:45:15.459Z</time></trkpt><trkpt lat="43.5844503" lon="12.7066409"><ele>444.0</ele><time>2026-03-29T08:45:17.46Z</time></trkpt><trkpt lat="43.5844623" lon="12.7065547"><ele>444.0</ele><time>2026-03-29T08:45:18.461Z</time></trkpt><trkpt lat="43.584473" lon="12.7064591"><ele>444.0</ele><time>2026-03-29T08:45:19.459Z</time></trkpt><trkpt lat="43.5844723" lon="12.7063566"><ele>444.0</ele><time>2026-03-29T08:45:20.46Z</time></trkpt><trkpt lat="43.5844742" lon="12.7062488"><ele>444.0</ele><time>2026-03-29T08:45:21.46Z</time></trkpt><trkpt lat="43.5844777" lon="12.7061459"><ele>444.0</ele><time>2026-03-29T08:45:22.459Z</time></trkpt><trkpt lat="43.5844692" lon="12.7060455"><ele>444.0</ele><time>2026-03-29T08:45:23.459Z</time></trkpt><trkpt lat="43.5844665" lon="12.7059341"><ele>444.6666666666667</ele><time>2026-03-29T08:45:24.459Z</time></trkpt><trkpt lat="43.5844592" lon="12.7058287"><ele>445.33333333333337</ele><time>2026-03-29T08:45:25.46Z</time></trkpt><trkpt lat="43.5844493" lon="12.7057102"><ele>446.0</ele><time>2026-03-29T08:45:26.46Z</time></trkpt><trkpt lat="43.5844394" lon="12.7055942"><ele>446.6666666666667</ele><time>2026-03-29T08:45:27.461Z</time></trkpt><trkpt lat="43.584435" lon="12.705461"><ele>447.33333333333337</ele><time>2026-03-29T08:45:28.461Z</time></trkpt><trkpt lat="43.584431" lon="12.7053367"><ele>448.0</ele><time>2026-03-29T08:45:29.46Z</time></trkpt><trkpt lat="43.5844307" lon="12.7052219"><ele>449.1666666666667</ele><time>2026-03-29T08:45:30.461Z</time></trkpt><trkpt lat="43.584431" lon="12.705112"><ele>450.33333333333337</ele><time>2026-03-29T08:45:31.46Z</time></trkpt><trkpt lat="43.5844193" lon="12.7050113"><ele>451.5</ele><time>2026-03-29T08:45:32.459Z</time></trkpt><trkpt lat="43.5843958" lon="12.7049179"><ele>452.66666666666663</ele><time>2026-03-29T08:45:33.46Z</time></trkpt><trkpt lat="43.5843476" lon="12.704843"><ele>453.8333333333333</ele><time>2026-03-29T08:45:34.46Z</time></trkpt><trkpt lat="43.5842855" lon="12.7047899"><ele>455.0</ele><time>2026-03-29T08:45:35.459Z</time></trkpt><trkpt lat="43.5841972" lon="12.7047154"><ele>455.0</ele><time>2026-03-29T08:45:36.46Z</time></trkpt><trkpt lat="43.5840703" lon="12.7046318"><ele>455.0</ele><time>2026-03-29T08:45:38.459Z</time></trkpt><trkpt lat="43.5840011" lon="12.7045746"><ele>455.0</ele><time>2026-03-29T08:45:39.46Z</time></trkpt><trkpt lat="43.5839271" lon="12.7045086"><ele>455.0</ele><time>2026-03-29T08:45:40.46Z</time></trkpt><trkpt lat="43.5838872" lon="12.704416"><ele>455.0</ele><time>2026-03-29T08:45:41.459Z</time></trkpt><trkpt lat="43.5838333" lon="12.7043397"><ele>456.3333333333333</ele><time>2026-03-29T08:45:42.459Z</time></trkpt><trkpt lat="43.5837735" lon="12.7042874"><ele>457.66666666666663</ele><time>2026-03-29T08:45:43.459Z</time></trkpt><trkpt lat="43.5836992" lon="12.7042508"><ele>459.0</ele><time>2026-03-29T08:45:44.459Z</time></trkpt><trkpt lat="43.5836332" lon="12.7042414"><ele>460.33333333333337</ele><time>2026-03-29T08:45:45.46Z</time></trkpt><trkpt lat="43.5835561" lon="12.7042468"><ele>461.6666666666667</ele><time>2026-03-29T08:45:46.462Z</time></trkpt><trkpt lat="43.583477" lon="12.7042558"><ele>463.0</ele><time>2026-03-29T08:45:47.46Z</time></trkpt><trkpt lat="43.5833961" lon="12.7042449"><ele>463.00000000000006</ele><time>2026-03-29T08:45:48.461Z</time></trkpt><trkpt lat="43.5833112" lon="12.7042386"><ele>463.0</ele><time>2026-03-29T08:45:49.46Z</time></trkpt><trkpt lat="43.5832448" lon="12.7042414"><ele>463.0</ele><time>2026-03-29T08:45:50.46Z</time></trkpt><trkpt lat="43.583169" lon="12.7042215"><ele>463.0</ele><time>2026-03-29T08:45:51.462Z</time></trkpt><trkpt lat="43.5830956" lon="12.7041959"><ele>463.00000000000006</ele><time>2026-03-29T08:45:52.46Z</time></trkpt><trkpt lat="43.583021" lon="12.704147"><ele>463.0</ele><time>2026-03-29T08:45:53.46Z</time></trkpt><trkpt lat="43.5829256" lon="12.7040761"><ele>463.00000000000006</ele><time>2026-03-29T08:45:54.459Z</time></trkpt><trkpt lat="43.5828533" lon="12.7040177"><ele>463.0</ele><time>2026-03-29T08:45:55.46Z</time></trkpt><trkpt lat="43.5827826" lon="12.7039543"><ele>463.0</ele><time>2026-03-29T08:45:56.46Z</time></trkpt><trkpt lat="43.5827096" lon="12.7038905"><ele>463.0</ele><time>2026-03-29T08:45:57.46Z</time></trkpt><trkpt lat="43.5826488" lon="12.7038417"><ele>463.00000000000006</ele><time>2026-03-29T08:45:58.46Z</time></trkpt><trkpt lat="43.582588" lon="12.7037874"><ele>463.0</ele><time>2026-03-29T08:45:59.461Z</time></trkpt><trkpt lat="43.5825225" lon="12.7036612"><ele>463.4</ele><time>2026-03-29T08:46:01.46Z</time></trkpt><trkpt lat="43.5824864" lon="12.7035823"><ele>463.79999999999995</ele><time>2026-03-29T08:46:02.459Z</time></trkpt><trkpt lat="43.5824524" lon="12.7034434"><ele>464.2</ele><time>2026-03-29T08:46:04.461Z</time></trkpt><trkpt lat="43.5824213" lon="12.7033488"><ele>464.6</ele><time>2026-03-29T08:46:05.46Z</time></trkpt><trkpt lat="43.5824474" lon="12.7031535"><ele>465.0</ele><time>2026-03-29T08:46:07.46Z</time></trkpt><trkpt lat="43.5824708" lon="12.7030711"><ele>467.0</ele><time>2026-03-29T08:46:08.46Z</time></trkpt><trkpt lat="43.5825203" lon="12.7029258"><ele>469.0</ele><time>2026-03-29T08:46:10.46Z</time></trkpt><trkpt lat="43.5825874" lon="12.7028586"><ele>471.0</ele><time>2026-03-29T08:46:12.459Z</time></trkpt><trkpt lat="43.5826843" lon="12.7028613"><ele>473.0</ele><time>2026-03-29T08:46:14.459Z</time></trkpt><trkpt lat="43.5827998" lon="12.7028696"><ele>475.0</ele><time>2026-03-29T08:46:16.461Z</time></trkpt><trkpt lat="43.5829093" lon="12.7028656"><ele>475.6666666666667</ele><time>2026-03-29T08:46:18.461Z</time></trkpt><trkpt lat="43.5830276" lon="12.7028776"><ele>476.33333333333337</ele><time>2026-03-29T08:46:20.46Z</time></trkpt><trkpt lat="43.5831442" lon="12.7028748"><ele>477.0</ele><time>2026-03-29T08:46:22.46Z</time></trkpt><trkpt lat="43.583216" lon="12.7028667"><ele>477.66666666666663</ele><time>2026-03-29T08:46:23.461Z</time></trkpt><trkpt lat="43.5832792" lon="12.7028671"><ele>478.3333333333333</ele><time>2026-03-29T08:46:24.461Z</time></trkpt><trkpt lat="43.5833476" lon="12.7028665"><ele>479.0</ele><time>2026-03-29T08:46:25.46Z</time></trkpt><trkpt lat="43.5834135" lon="12.7028517"><ele>478.99999999999994</ele><time>2026-03-29T08:46:26.461Z</time></trkpt><trkpt lat="43.58348" lon="12.7028231"><ele>479.0</ele><time>2026-03-29T08:46:27.459Z</time></trkpt><trkpt lat="43.5835793" lon="12.7027139"><ele>479.0</ele><time>2026-03-29T08:46:29.46Z</time></trkpt><trkpt lat="43.5836312" lon="12.7026412"><ele>479.0</ele><time>2026-03-29T08:46:30.461Z</time></trkpt><trkpt lat="43.5836738" lon="12.7025659"><ele>478.99999999999994</ele><time>2026-03-29T08:46:31.461Z</time></trkpt><trkpt lat="43.5837134" lon="12.702492"><ele>479.0</ele><time>2026-03-29T08:46:32.46Z</time></trkpt><trkpt lat="43.583754" lon="12.7024088"><ele>483.6</ele><time>2026-03-29T08:46:33.46Z</time></trkpt><trkpt lat="43.5838191" lon="12.7022617"><ele>488.2</ele><time>2026-03-29T08:46:35.46Z</time></trkpt><trkpt lat="43.5838543" lon="12.7021867"><ele>492.80000000000007</ele><time>2026-03-29T08:46:36.459Z</time></trkpt><trkpt lat="43.5838917" lon="12.7021107"><ele>497.40000000000003</ele><time>2026-03-29T08:46:37.46Z</time></trkpt><trkpt lat="43.5839689" lon="12.7019673"><ele>502.0</ele><time>2026-03-29T08:46:39.461Z</time></trkpt><trkpt lat="43.5840148" lon="12.7019027"><ele>504.8</ele><time>2026-03-29T08:46:40.462Z</time></trkpt><trkpt lat="43.5841197" lon="12.7018064"><ele>507.6</ele><time>2026-03-29T08:46:42.46Z</time></trkpt><trkpt lat="43.5842316" lon="12.701781"><ele>510.40000000000003</ele><time>2026-03-29T08:46:44.461Z</time></trkpt><trkpt lat="43.5842947" lon="12.7017944"><ele>513.2</ele><time>2026-03-29T08:46:45.46Z</time></trkpt><trkpt lat="43.5843592" lon="12.7018139"><ele>516.0</ele><time>2026-03-29T08:46:46.46Z</time></trkpt><trkpt lat="43.5844838" lon="12.7018607"><ele>517.5714285714286</ele><time>2026-03-29T08:46:48.459Z</time></trkpt><trkpt lat="43.5845454" lon="12.701884"><ele>519.1428571428571</ele><time>2026-03-29T08:46:49.46Z</time></trkpt><trkpt lat="43.5846106" lon="12.701904"><ele>520.7142857142858</ele><time>2026-03-29T08:46:50.459Z</time></trkpt><trkpt lat="43.5846728" lon="12.7019345"><ele>522.2857142857142</ele><time>2026-03-29T08:46:51.46Z</time></trkpt><trkpt lat="43.5847473" lon="12.7019667"><ele>523.8571428571429</ele><time>2026-03-29T08:46:52.462Z</time></trkpt><trkpt lat="43.5848157" lon="12.7019977"><ele>525.4285714285714</ele><time>2026-03-29T08:46:53.459Z</time></trkpt><trkpt lat="43.5848888" lon="12.702031"><ele>527.0</ele><time>2026-03-29T08:46:54.461Z</time></trkpt><trkpt lat="43.5849611" lon="12.702069"><ele>527.0000000000001</ele><time>2026-03-29T08:46:55.46Z</time></trkpt><trkpt lat="43.5850282" lon="12.7021148"><ele>527.0</ele><time>2026-03-29T08:46:56.46Z</time></trkpt><trkpt lat="43.5850868" lon="12.7021667"><ele>527.0</ele><time>2026-03-29T08:46:57.459Z</time></trkpt><trkpt lat="43.5851445" lon="12.702225"><ele>527.0</ele><time>2026-03-29T08:46:58.46Z</time></trkpt><trkpt lat="43.5851955" lon="12.7022823"><ele>527.0</ele><time>2026-03-29T08:46:59.46Z</time></trkpt><trkpt lat="43.5852437" lon="12.702347"><ele>527.0000000000001</ele><time>2026-03-29T08:47:00.46Z</time></trkpt><trkpt lat="43.5852971" lon="12.7024068"><ele>527.0</ele><time>2026-03-29T08:47:01.461Z</time></trkpt><trkpt lat="43.5853515" lon="12.7024641"><ele>529.2857142857143</ele><time>2026-03-29T08:47:02.46Z</time></trkpt><trkpt lat="43.5853991" lon="12.7025291"><ele>531.5714285714286</ele><time>2026-03-29T08:47:03.461Z</time></trkpt><trkpt lat="43.5854521" lon="12.7025917"><ele>533.8571428571429</ele><time>2026-03-29T08:47:04.459Z</time></trkpt><trkpt lat="43.5855053" lon="12.7026486"><ele>536.1428571428571</ele><time>2026-03-29T08:47:05.461Z</time></trkpt><trkpt lat="43.5855612" lon="12.702695"><ele>538.4285714285714</ele><time>2026-03-29T08:47:06.461Z</time></trkpt><trkpt lat="43.5856278" lon="12.7027512"><ele>540.7142857142858</ele><time>2026-03-29T08:47:07.46Z</time></trkpt><trkpt lat="43.585691" lon="12.7028001"><ele>543.0</ele><time>2026-03-29T08:47:08.461Z</time></trkpt><trkpt lat="43.5857805" lon="12.7028921"><ele>543.0</ele><time>2026-03-29T08:47:10.46Z</time></trkpt><trkpt lat="43.5858455" lon="12.7029104"><ele>543.0</ele><time>2026-03-29T08:47:12.46Z</time></trkpt><trkpt lat="43.5858977" lon="12.7028592"><ele>543.0</ele><time>2026-03-29T08:47:14.46Z</time></trkpt><trkpt lat="43.5859784" lon="12.7027888"><ele>543.0</ele><time>2026-03-29T08:47:16.46Z</time></trkpt><trkpt lat="43.5860715" lon="12.7027464"><ele>543.0</ele><time>2026-03-29T08:47:18.461Z</time></trkpt><trkpt lat="43.586165" lon="12.7027306"><ele>543.0</ele><time>2026-03-29T08:47:20.461Z</time></trkpt><trkpt lat="43.5862474" lon="12.7027615"><ele>545.5</ele><time>2026-03-29T08:47:22.46Z</time></trkpt><trkpt lat="43.586314" lon="12.7028317"><ele>548.0</ele><time>2026-03-29T08:47:24.461Z</time></trkpt><trkpt lat="43.5863719" lon="12.7029132"><ele>550.5</ele><time>2026-03-29T08:47:27.462Z</time></trkpt><trkpt lat="43.5864299" lon="12.7029938"><ele>553.0</ele><time>2026-03-29T08:47:29.46Z</time></trkpt><trkpt lat="43.5865015" lon="12.7030458"><ele>555.5</ele><time>2026-03-29T08:47:31.46Z</time></trkpt><trkpt lat="43.5865835" lon="12.7029971"><ele>558.0</ele><time>2026-03-29T08:47:33.461Z</time></trkpt><trkpt lat="43.5866541" lon="12.7029386"><ele>558.0</ele><time>2026-03-29T08:47:35.46Z</time></trkpt><trkpt lat="43.5867353" lon="12.7028687"><ele>558.0</ele><time>2026-03-29T08:47:37.461Z</time></trkpt><trkpt lat="43.5868216" lon="12.7028144"><ele>558.0</ele><time>2026-03-29T08:47:39.46Z</time></trkpt><trkpt lat="43.5869158" lon="12.7027746"><ele>558.0</ele><time>2026-03-29T08:47:41.46Z</time></trkpt><trkpt lat="43.5870029" lon="12.7027637"><ele>558.0</ele><time>2026-03-29T08:47:43.46Z</time></trkpt><trkpt lat="43.5870916" lon="12.7027902"><ele>559.4</ele><time>2026-03-29T08:47:45.459Z</time></trkpt><trkpt lat="43.5871872" lon="12.7028433"><ele>560.8</ele><time>2026-03-29T08:47:47.462Z</time></trkpt><trkpt lat="43.5872871" lon="12.7029258"><ele>562.2</ele><time>2026-03-29T08:47:49.459Z</time></trkpt><trkpt lat="43.5873957" lon="12.7030034"><ele>563.6</ele><time>2026-03-29T08:47:51.459Z</time></trkpt><trkpt lat="43.5875024" lon="12.7030217"><ele>565.0</ele><time>2026-03-29T08:47:53.46Z</time></trkpt><trkpt lat="43.5875881" lon="12.7029884"><ele>565.0</ele><time>2026-03-29T08:47:55.46Z</time></trkpt><trkpt lat="43.58767" lon="12.7029309"><ele>565.0</ele><time>2026-03-29T08:47:57.459Z</time></trkpt><trkpt lat="43.5877569" lon="12.7029124"><ele>565.0</ele><time>2026-03-29T08:47:59.462Z</time></trkpt><trkpt lat="43.587864" lon="12.7029348"><ele>565.0</ele><time>2026-03-29T08:48:01.461Z</time></trkpt><trkpt lat="43.5879789" lon="12.7029139"><ele>565.0</ele><time>2026-03-29T08:48:03.461Z</time></trkpt><trkpt lat="43.58808" lon="12.7028495"><ele>565.2</ele><time>2026-03-29T08:48:05.46Z</time></trkpt><trkpt lat="43.5881716" lon="12.7027848"><ele>565.4</ele><time>2026-03-29T08:48:07.46Z</time></trkpt><trkpt lat="43.5882622" lon="12.702718"><ele>565.6</ele><time>2026-03-29T08:48:09.46Z</time></trkpt><trkpt lat="43.5883325" lon="12.7026428"><ele>565.8</ele><time>2026-03-29T08:48:11.459Z</time></trkpt><trkpt lat="43.5884391" lon="12.7025637"><ele>566.0</ele><time>2026-03-29T08:48:13.461Z</time></trkpt><trkpt lat="43.5885375" lon="12.7024982"><ele>570.6666666666666</ele><time>2026-03-29T08:48:15.459Z</time></trkpt><trkpt lat="43.5886126" lon="12.7024542"><ele>575.3333333333333</ele><time>2026-03-29T08:48:17.461Z</time></trkpt><trkpt lat="43.5887041" lon="12.702448"><ele>580.0</ele><time>2026-03-29T08:48:19.461Z</time></trkpt><trkpt lat="43.588786" lon="12.7024543"><ele>584.6666666666666</ele><time>2026-03-29T08:48:21.461Z</time></trkpt><trkpt lat="43.5888589" lon="12.7024604"><ele>589.3333333333334</ele><time>2026-03-29T08:48:23.459Z</time></trkpt><trkpt lat="43.588934" lon="12.7024452"><ele>594.0</ele><time>2026-03-29T08:48:26.46Z</time></trkpt><trkpt lat="43.5889781" lon="12.7025297"><ele>594.4</ele><time>2026-03-29T08:48:28.461Z</time></trkpt><trkpt lat="43.589063" lon="12.7026142"><ele>594.8</ele><time>2026-03-29T08:48:30.46Z</time></trkpt><trkpt lat="43.5891667" lon="12.7026485"><ele>595.2</ele><time>2026-03-29T08:48:32.461Z</time></trkpt><trkpt lat="43.5893" lon="12.7026477"><ele>595.6</ele><time>2026-03-29T08:48:34.461Z</time></trkpt><trkpt lat="43.5893782" lon="12.7026435"><ele>596.0</ele><time>2026-03-29T08:48:35.46Z</time></trkpt><trkpt lat="43.5894459" lon="12.7026443"><ele>596.7142857142857</ele><time>2026-03-29T08:48:36.461Z</time></trkpt><trkpt lat="43.5895146" lon="12.7026571"><ele>597.4285714285713</ele><time>2026-03-29T08:48:37.459Z</time></trkpt><trkpt lat="43.5895803" lon="12.7026653"><ele>598.1428571428571</ele><time>2026-03-29T08:48:38.46Z</time></trkpt><trkpt lat="43.5896486" lon="12.7026702"><ele>598.8571428571429</ele><time>2026-03-29T08:48:39.461Z</time></trkpt><trkpt lat="43.5897181" lon="12.7026697"><ele>599.5714285714287</ele><time>2026-03-29T08:48:40.459Z</time></trkpt><trkpt lat="43.5897876" lon="12.7026661"><ele>600.2857142857142</ele><time>2026-03-29T08:48:41.461Z</time></trkpt><trkpt lat="43.5898661" lon="12.7026764"><ele>601.0</ele><time>2026-03-29T08:48:42.459Z</time></trkpt><trkpt lat="43.5899386" lon="12.702684"><ele>601.0</ele><time>2026-03-29T08:48:43.459Z</time></trkpt><trkpt lat="43.5900133" lon="12.7026944"><ele>601.0</ele><time>2026-03-29T08:48:44.46Z</time></trkpt><trkpt lat="43.5900848" lon="12.7026938"><ele>601.0</ele><time>2026-03-29T08:48:45.46Z</time></trkpt><trkpt lat="43.5901505" lon="12.7026824"><ele>601.0</ele><time>2026-03-29T08:48:46.46Z</time></trkpt><trkpt lat="43.5902273" lon="12.7026548"><ele>601.0</ele><time>2026-03-29T08:48:48.46Z</time></trkpt><trkpt lat="43.5902981" lon="12.7026699"><ele>601.0</ele><time>2026-03-29T08:48:51.46Z</time></trkpt><trkpt lat="43.5903633" lon="12.7027244"><ele>601.0</ele><time>2026-03-29T08:48:53.46Z</time></trkpt><trkpt lat="43.5904297" lon="12.7028035"><ele>599.6</ele><time>2026-03-29T08:48:55.46Z</time></trkpt><trkpt lat="43.5905059" lon="12.7029002"><ele>598.2</ele><time>2026-03-29T08:48:57.46Z</time></trkpt><trkpt lat="43.5905714" lon="12.7029625"><ele>596.8</ele><time>2026-03-29T08:48:59.461Z</time></trkpt><trkpt lat="43.5906463" lon="12.7030172"><ele>595.4</ele><time>2026-03-29T08:49:01.459Z</time></trkpt><trkpt lat="43.5907298" lon="12.7030804"><ele>594.0</ele><time>2026-03-29T08:49:03.461Z</time></trkpt><trkpt lat="43.5908237" lon="12.7031455"><ele>594.0</ele><time>2026-03-29T08:49:05.46Z</time></trkpt><trkpt lat="43.5909297" lon="12.7031917"><ele>594.0</ele><time>2026-03-29T08:49:07.461Z</time></trkpt><trkpt lat="43.5910295" lon="12.7032167"><ele>594.0</ele><time>2026-03-29T08:49:09.461Z</time></trkpt><trkpt lat="43.5911317" lon="12.7031966"><ele>594.0</ele><time>2026-03-29T08:49:11.46Z</time></trkpt><trkpt lat="43.5912142" lon="12.703141"><ele>594.0</ele><time>2026-03-29T08:49:13.461Z</time></trkpt><trkpt lat="43.5912945" lon="12.7030731"><ele>592.8333333333334</ele><time>2026-03-29T08:49:15.46Z</time></trkpt><trkpt lat="43.591355" lon="12.7030232"><ele>591.6666666666666</ele><time>2026-03-29T08:49:17.459Z</time></trkpt><trkpt lat="43.5914349" lon="12.7029756"><ele>590.5</ele><time>2026-03-29T08:49:20.46Z</time></trkpt><trkpt lat="43.5915107" lon="12.7029298"><ele>589.3333333333333</ele><time>2026-03-29T08:49:23.46Z</time></trkpt><trkpt lat="43.5915755" lon="12.7028831"><ele>588.1666666666666</ele><time>2026-03-29T08:49:26.461Z</time></trkpt><trkpt lat="43.5916218" lon="12.7028197"><ele>587.0</ele><time>2026-03-29T08:49:29.461Z</time></trkpt><trkpt lat="43.5916905" lon="12.7027415"><ele>586.6</ele><time>2026-03-29T08:49:32.461Z</time></trkpt><trkpt lat="43.5917614" lon="12.7026916"><ele>586.2</ele><time>2026-03-29T08:49:34.461Z</time></trkpt><trkpt lat="43.5918519" lon="12.702629"><ele>585.8</ele><time>2026-03-29T08:49:36.461Z</time></trkpt><trkpt lat="43.5919367" lon="12.7025501"><ele>585.4</ele><time>2026-03-29T08:49:38.461Z</time></trkpt><trkpt lat="43.5920072" lon="12.7024442"><ele>585.0</ele><time>2026-03-29T08:49:40.461Z</time></trkpt><trkpt lat="43.5920258" lon="12.7023242"><ele>585.0</ele><time>2026-03-29T08:49:42.46Z</time></trkpt><trkpt lat="43.5920179" lon="12.7022054"><ele>585.0</ele><time>2026-03-29T08:49:44.459Z</time></trkpt><trkpt lat="43.5919962" lon="12.7020848"><ele>585.0</ele><time>2026-03-29T08:49:46.462Z</time></trkpt><trkpt lat="43.5919765" lon="12.7019584"><ele>585.0</ele><time>2026-03-29T08:49:48.46Z</time></trkpt><trkpt lat="43.5919566" lon="12.7017952"><ele>585.0</ele><time>2026-03-29T08:49:50.46Z</time></trkpt><trkpt lat="43.5919586" lon="12.7016612"><ele>582.8333333333334</ele><time>2026-03-29T08:49:52.461Z</time></trkpt><trkpt lat="43.5919745" lon="12.7015741"><ele>580.6666666666666</ele><time>2026-03-29T08:49:54.461Z</time></trkpt><trkpt lat="43.591992" lon="12.7014783"><ele>578.5</ele><time>2026-03-29T08:49:57.459Z</time></trkpt><trkpt lat="43.5920304" lon="12.7013627"><ele>576.3333333333333</ele><time>2026-03-29T08:50:00.459Z</time></trkpt><trkpt lat="43.5920598" lon="12.7012785"><ele>574.1666666666666</ele><time>2026-03-29T08:50:02.461Z</time></trkpt><trkpt lat="43.5920903" lon="12.7011919"><ele>572.0</ele><time>2026-03-29T08:50:04.46Z</time></trkpt><trkpt lat="43.5921453" lon="12.7010949"><ele>570.9999999999999</ele><time>2026-03-29T08:50:07.461Z</time></trkpt><trkpt lat="43.5921877" lon="12.7010119"><ele>570.0</ele><time>2026-03-29T08:50:09.46Z</time></trkpt><trkpt lat="43.5922334" lon="12.7009242"><ele>569.0</ele><time>2026-03-29T08:50:11.461Z</time></trkpt><trkpt lat="43.5922676" lon="12.700834"><ele>568.0</ele><time>2026-03-29T08:50:13.461Z</time></trkpt><trkpt lat="43.592295" lon="12.7007458"><ele>567.0</ele><time>2026-03-29T08:50:15.461Z</time></trkpt><trkpt lat="43.5923236" lon="12.7006591"><ele>565.9999999999999</ele><time>2026-03-29T08:50:17.46Z</time></trkpt><trkpt lat="43.5923543" lon="12.7005803"><ele>565.0</ele><time>2026-03-29T08:50:19.46Z</time></trkpt><trkpt lat="43.5923919" lon="12.7004909"><ele>565.0</ele><time>2026-03-29T08:50:21.46Z</time></trkpt><trkpt lat="43.5924286" lon="12.7004125"><ele>565.0</ele><time>2026-03-29T08:50:23.46Z</time></trkpt><trkpt lat="43.5924666" lon="12.7003339"><ele>565.0</ele><time>2026-03-29T08:50:25.461Z</time></trkpt><trkpt lat="43.5925044" lon="12.7002579"><ele>565.0</ele><time>2026-03-29T08:50:27.46Z</time></trkpt><trkpt lat="43.5925484" lon="12.7001851"><ele>565.0</ele><time>2026-03-29T08:50:29.46Z</time></trkpt><trkpt lat="43.5926224" lon="12.7001569"><ele>565.0</ele><time>2026-03-29T08:50:31.459Z</time></trkpt><trkpt lat="43.5927278" lon="12.7001317"><ele>562.8</ele><time>2026-03-29T08:50:33.459Z</time></trkpt><trkpt lat="43.5928369" lon="12.7001302"><ele>560.6</ele><time>2026-03-29T08:50:35.46Z</time></trkpt><trkpt lat="43.5929577" lon="12.7001117"><ele>558.4</ele><time>2026-03-29T08:50:37.46Z</time></trkpt><trkpt lat="43.59302" lon="12.700094"><ele>556.2</ele><time>2026-03-29T08:50:38.459Z</time></trkpt><trkpt lat="43.5930812" lon="12.7000733"><ele>554.0</ele><time>2026-03-29T08:50:39.46Z</time></trkpt><trkpt lat="43.5931745" lon="12.7000126"><ele>553.8571428571429</ele><time>2026-03-29T08:50:41.46Z</time></trkpt><trkpt lat="43.5932382" lon="12.6999407"><ele>553.7142857142857</ele><time>2026-03-29T08:50:43.46Z</time></trkpt><trkpt lat="43.5932988" lon="12.6998525"><ele>553.5714285714286</ele><time>2026-03-29T08:50:45.461Z</time></trkpt><trkpt lat="43.5933447" lon="12.6997674"><ele>553.4285714285714</ele><time>2026-03-29T08:50:47.46Z</time></trkpt><trkpt lat="43.5933852" lon="12.6996939"><ele>553.2857142857142</ele><time>2026-03-29T08:50:49.461Z</time></trkpt><trkpt lat="43.5934401" lon="12.6996413"><ele>553.1428571428571</ele><time>2026-03-29T08:50:51.46Z</time></trkpt><trkpt lat="43.5935055" lon="12.6996388"><ele>553.0</ele><time>2026-03-29T08:51:09.46Z</time></trkpt><trkpt lat="43.5935377" lon="12.69973"><ele>553.0</ele><time>2026-03-29T08:51:14.461Z</time></trkpt><trkpt lat="43.5935293" lon="12.6998435"><ele>553.0</ele><time>2026-03-29T08:51:17.46Z</time></trkpt><trkpt lat="43.5935459" lon="12.6999533"><ele>553.0</ele><time>2026-03-29T08:51:20.46Z</time></trkpt><trkpt lat="43.5936349" lon="12.6999358"><ele>553.0</ele><time>2026-03-29T08:51:23.46Z</time></trkpt><trkpt lat="43.5937164" lon="12.6998688"><ele>553.0</ele><time>2026-03-29T08:51:25.461Z</time></trkpt><trkpt lat="43.5938313" lon="12.6998156"><ele>551.0</ele><time>2026-03-29T08:51:27.46Z</time></trkpt><trkpt lat="43.5939584" lon="12.6997866"><ele>549.0</ele><time>2026-03-29T08:51:29.462Z</time></trkpt><trkpt lat="43.5940257" lon="12.6997646"><ele>547.0</ele><time>2026-03-29T08:51:30.46Z</time></trkpt><trkpt lat="43.5940938" lon="12.6997402"><ele>545.0</ele><time>2026-03-29T08:51:31.46Z</time></trkpt><trkpt lat="43.5941651" lon="12.6997173"><ele>543.0</ele><time>2026-03-29T08:51:32.461Z</time></trkpt><trkpt lat="43.5942372" lon="12.6997001"><ele>541.0</ele><time>2026-03-29T08:51:33.46Z</time></trkpt><trkpt lat="43.5943124" lon="12.6996745"><ele>541.0</ele><time>2026-03-29T08:51:34.46Z</time></trkpt><trkpt lat="43.5943863" lon="12.6996479"><ele>541.0</ele><time>2026-03-29T08:51:35.46Z</time></trkpt><trkpt lat="43.5944629" lon="12.6996184"><ele>541.0</ele><time>2026-03-29T08:51:36.461Z</time></trkpt><trkpt lat="43.5945414" lon="12.6995929"><ele>541.0</ele><time>2026-03-29T08:51:37.46Z</time></trkpt><trkpt lat="43.5946213" lon="12.6995766"><ele>541.0</ele><time>2026-03-29T08:51:38.46Z</time></trkpt><trkpt lat="43.5946967" lon="12.6995568"><ele>541.0</ele><time>2026-03-29T08:51:39.46Z</time></trkpt><trkpt lat="43.5947755" lon="12.6995474"><ele>539.6666666666667</ele><time>2026-03-29T08:51:40.46Z</time></trkpt><trkpt lat="43.5948474" lon="12.6995337"><ele>538.3333333333334</ele><time>2026-03-29T08:51:41.461Z</time></trkpt><trkpt lat="43.5949257" lon="12.6995251"><ele>537.0</ele><time>2026-03-29T08:51:42.46Z</time></trkpt><trkpt lat="43.5950032" lon="12.6995211"><ele>535.6666666666666</ele><time>2026-03-29T08:51:43.46Z</time></trkpt><trkpt lat="43.59508" lon="12.6995122"><ele>534.3333333333333</ele><time>2026-03-29T08:51:44.461Z</time></trkpt><trkpt lat="43.5951535" lon="12.6995011"><ele>533.0</ele><time>2026-03-29T08:51:45.46Z</time></trkpt><trkpt lat="43.5952302" lon="12.6994765"><ele>533.0</ele><time>2026-03-29T08:51:46.461Z</time></trkpt><trkpt lat="43.5953075" lon="12.6994453"><ele>533.0</ele><time>2026-03-29T08:51:47.461Z</time></trkpt><trkpt lat="43.5953847" lon="12.6993997"><ele>533.0</ele><time>2026-03-29T08:51:48.461Z</time></trkpt><trkpt lat="43.5954648" lon="12.6993474"><ele>533.0</ele><time>2026-03-29T08:51:49.462Z</time></trkpt><trkpt lat="43.5955478" lon="12.699295"><ele>533.0</ele><time>2026-03-29T08:51:50.46Z</time></trkpt><trkpt lat="43.5956304" lon="12.6992314"><ele>533.0</ele><time>2026-03-29T08:51:51.46Z</time></trkpt><trkpt lat="43.5957178" lon="12.6991684"><ele>534.4</ele><time>2026-03-29T08:51:52.461Z</time></trkpt><trkpt lat="43.5957976" lon="12.6990973"><ele>535.8</ele><time>2026-03-29T08:51:53.46Z</time></trkpt><trkpt lat="43.5958713" lon="12.6990356"><ele>537.2</ele><time>2026-03-29T08:51:54.46Z</time></trkpt><trkpt lat="43.5959385" lon="12.6989718"><ele>538.6</ele><time>2026-03-29T08:51:55.46Z</time></trkpt><trkpt lat="43.5960061" lon="12.6989239"><ele>540.0</ele><time>2026-03-29T08:51:56.46Z</time></trkpt><trkpt lat="43.5961014" lon="12.6988008"><ele>540.0</ele><time>2026-03-29T08:51:58.46Z</time></trkpt><trkpt lat="43.5961418" lon="12.6987276"><ele>540.0</ele><time>2026-03-29T08:51:59.459Z</time></trkpt><trkpt lat="43.5961772" lon="12.698642"><ele>540.0</ele><time>2026-03-29T08:52:00.461Z</time></trkpt><trkpt lat="43.5962138" lon="12.6985463"><ele>540.0</ele><time>2026-03-29T08:52:01.46Z</time></trkpt><trkpt lat="43.5962498" lon="12.6984378"><ele>540.0</ele><time>2026-03-29T08:52:02.46Z</time></trkpt><trkpt lat="43.5962968" lon="12.6983352"><ele>540.0</ele><time>2026-03-29T08:52:03.459Z</time></trkpt><trkpt lat="43.5963386" lon="12.6982405"><ele>537.6666666666666</ele><time>2026-03-29T08:52:04.461Z</time></trkpt><trkpt lat="43.5963875" lon="12.6981466"><ele>535.3333333333334</ele><time>2026-03-29T08:52:05.46Z</time></trkpt><trkpt lat="43.5964317" lon="12.6980551"><ele>533.0</ele><time>2026-03-29T08:52:06.46Z</time></trkpt><trkpt lat="43.5964605" lon="12.6979617"><ele>530.6666666666667</ele><time>2026-03-29T08:52:07.461Z</time></trkpt><trkpt lat="43.5964976" lon="12.6978641"><ele>528.3333333333334</ele><time>2026-03-29T08:52:08.46Z</time></trkpt><trkpt lat="43.5965152" lon="12.6977533"><ele>526.0</ele><time>2026-03-29T08:52:09.462Z</time></trkpt><trkpt lat="43.5965224" lon="12.697619"><ele>526.0</ele><time>2026-03-29T08:52:10.461Z</time></trkpt><trkpt lat="43.5965196" lon="12.6974883"><ele>526.0</ele><time>2026-03-29T08:52:11.46Z</time></trkpt><trkpt lat="43.5965101" lon="12.6973537"><ele>526.0</ele><time>2026-03-29T08:52:12.46Z</time></trkpt><trkpt lat="43.596503" lon="12.6972262"><ele>526.0</ele><time>2026-03-29T08:52:13.459Z</time></trkpt><trkpt lat="43.596478" lon="12.6970994"><ele>526.0</ele><time>2026-03-29T08:52:14.461Z</time></trkpt><trkpt lat="43.5964689" lon="12.6969734"><ele>525.3333333333334</ele><time>2026-03-29T08:52:15.459Z</time></trkpt><trkpt lat="43.5964585" lon="12.696865"><ele>524.6666666666667</ele><time>2026-03-29T08:52:16.459Z</time></trkpt><trkpt lat="43.5964566" lon="12.6967486"><ele>524.0</ele><time>2026-03-29T08:52:17.46Z</time></trkpt><trkpt lat="43.5964565" lon="12.6966442"><ele>523.3333333333334</ele><time>2026-03-29T08:52:18.459Z</time></trkpt><trkpt lat="43.5964865" lon="12.6964951"><ele>522.6666666666666</ele><time>2026-03-29T08:52:20.462Z</time></trkpt><trkpt lat="43.596527" lon="12.6964145"><ele>522.0</ele><time>2026-03-29T08:52:23.461Z</time></trkpt><trkpt lat="43.5964574" lon="12.6964406"><ele>522.0</ele><time>2026-03-29T08:52:43.46Z</time></trkpt><trkpt lat="43.596394" lon="12.6963785"><ele>522.0</ele><time>2026-03-29T08:52:47.461Z</time></trkpt><trkpt lat="43.5963028" lon="12.6963123"><ele>522.0</ele><time>2026-03-29T08:52:49.461Z</time></trkpt><trkpt lat="43.596237" lon="12.6962871"><ele>522.0</ele><time>2026-03-29T08:52:50.46Z</time></trkpt><trkpt lat="43.5961625" lon="12.6962814"><ele>522.0</ele><time>2026-03-29T08:52:51.46Z</time></trkpt><trkpt lat="43.5960922" lon="12.6962774"><ele>522.0</ele><time>2026-03-29T08:52:52.46Z</time></trkpt><trkpt lat="43.5960254" lon="12.6962575"><ele>522.2857142857143</ele><time>2026-03-29T08:52:53.459Z</time></trkpt><trkpt lat="43.5959637" lon="12.6962147"><ele>522.5714285714286</ele><time>2026-03-29T08:52:54.46Z</time></trkpt><trkpt lat="43.5959103" lon="12.6961523"><ele>522.8571428571429</ele><time>2026-03-29T08:52:55.461Z</time></trkpt><trkpt lat="43.5958599" lon="12.6960783"><ele>523.1428571428571</ele><time>2026-03-29T08:52:56.46Z</time></trkpt><trkpt lat="43.5958129" lon="12.6959941"><ele>523.4285714285714</ele><time>2026-03-29T08:52:57.462Z</time></trkpt><trkpt lat="43.5957735" lon="12.6958968"><ele>523.7142857142858</ele><time>2026-03-29T08:52:58.461Z</time></trkpt><trkpt lat="43.5957402" lon="12.6958053"><ele>524.0</ele><time>2026-03-29T08:52:59.461Z</time></trkpt><trkpt lat="43.5957203" lon="12.6957205"><ele>524.0</ele><time>2026-03-29T08:53:00.461Z</time></trkpt><trkpt lat="43.5957062" lon="12.6956287"><ele>524.0</ele><time>2026-03-29T08:53:01.46Z</time></trkpt><trkpt lat="43.5956851" lon="12.6955332"><ele>524.0</ele><time>2026-03-29T08:53:02.462Z</time></trkpt><trkpt lat="43.5956517" lon="12.6954586"><ele>524.0</ele><time>2026-03-29T08:53:03.461Z</time></trkpt><trkpt lat="43.5956023" lon="12.6953971"><ele>524.0</ele><time>2026-03-29T08:53:04.461Z</time></trkpt><trkpt lat="43.5955368" lon="12.6953433"><ele>524.0</ele><time>2026-03-29T08:53:05.46Z</time></trkpt><trkpt lat="43.5954644" lon="12.6953014"><ele>524.0</ele><time>2026-03-29T08:53:06.461Z</time></trkpt><trkpt lat="43.5953865" lon="12.6952561"><ele>522.1666666666666</ele><time>2026-03-29T08:53:07.461Z</time></trkpt><trkpt lat="43.595318" lon="12.6952079"><ele>520.3333333333333</ele><time>2026-03-29T08:53:08.461Z</time></trkpt><trkpt lat="43.5952506" lon="12.6951466"><ele>518.5</ele><time>2026-03-29T08:53:09.461Z</time></trkpt><trkpt lat="43.5951904" lon="12.695097"><ele>516.6666666666666</ele><time>2026-03-29T08:53:10.46Z</time></trkpt><trkpt lat="43.5950696" lon="12.6950703"><ele>514.8333333333334</ele><time>2026-03-29T08:53:12.461Z</time></trkpt><trkpt lat="43.5949993" lon="12.6950878"><ele>513.0</ele><time>2026-03-29T08:53:13.46Z</time></trkpt><trkpt lat="43.5949299" lon="12.6951318"><ele>513.0</ele><time>2026-03-29T08:53:14.459Z</time></trkpt><trkpt lat="43.5948691" lon="12.6951942"><ele>513.0</ele><time>2026-03-29T08:53:15.46Z</time></trkpt><trkpt lat="43.5948204" lon="12.6952649"><ele>513.0</ele><time>2026-03-29T08:53:16.46Z</time></trkpt><trkpt lat="43.5947804" lon="12.6953491"><ele>513.0</ele><time>2026-03-29T08:53:17.46Z</time></trkpt><trkpt lat="43.5947552" lon="12.6954493"><ele>513.0</ele><time>2026-03-29T08:53:18.459Z</time></trkpt><trkpt lat="43.5947387" lon="12.6955649"><ele>513.0</ele><time>2026-03-29T08:53:19.46Z</time></trkpt><trkpt lat="43.594724" lon="12.6956804"><ele>515.1666666666666</ele><time>2026-03-29T08:53:20.46Z</time></trkpt><trkpt lat="43.5946961" lon="12.6957805"><ele>517.3333333333334</ele><time>2026-03-29T08:53:21.46Z</time></trkpt><trkpt lat="43.5946545" lon="12.6958864"><ele>519.5</ele><time>2026-03-29T08:53:22.46Z</time></trkpt><trkpt lat="43.5946151" lon="12.6959887"><ele>521.6666666666667</ele><time>2026-03-29T08:53:23.461Z</time></trkpt><trkpt lat="43.5945732" lon="12.6960978"><ele>523.8333333333334</ele><time>2026-03-29T08:53:24.46Z</time></trkpt><trkpt lat="43.5945417" lon="12.6962101"><ele>526.0</ele><time>2026-03-29T08:53:25.46Z</time></trkpt><trkpt lat="43.5945182" lon="12.6963278"><ele>524.6666666666667</ele><time>2026-03-29T08:53:26.461Z</time></trkpt><trkpt lat="43.5944906" lon="12.6964379"><ele>523.3333333333334</ele><time>2026-03-29T08:53:27.46Z</time></trkpt><trkpt lat="43.5944528" lon="12.6965372"><ele>522.0</ele><time>2026-03-29T08:53:28.46Z</time></trkpt><trkpt lat="43.5943978" lon="12.6966141"><ele>520.6666666666666</ele><time>2026-03-29T08:53:29.462Z</time></trkpt><trkpt lat="43.5943336" lon="12.6966745"><ele>519.3333333333333</ele><time>2026-03-29T08:53:30.461Z</time></trkpt><trkpt lat="43.5942594" lon="12.6967287"><ele>518.0</ele><time>2026-03-29T08:53:31.461Z</time></trkpt><trkpt lat="43.5941878" lon="12.6967796"><ele>518.0</ele><time>2026-03-29T08:53:32.461Z</time></trkpt><trkpt lat="43.5941235" lon="12.6968421"><ele>518.0</ele><time>2026-03-29T08:53:33.461Z</time></trkpt></trkseg></trk></gpx>